[[{"header":{"parameterUnit":"m.s-1","parameterCategory":1,"la1":30.6,"la2":29.2853,"lo1":-89.7004,"lo2":-87.6739,"dy":0.0162,"dx":0.0183,"nx":112,"ny":82,"refTime":"2024-05-14T12:00:00:Z","depth":0,"parameterNumber":2,"parameterNumberName":"U-component_of_WINDS"},"data":[0.0,0.0,0.0,0.0,0.0,0.0,0.0,0.0,0.0,0.0,0.0,0.0,0.0,0.0,0.0,0.0,0.0,0.0,0.0,0.0,0.0,0.0,0.0,0.0,0.0,0.0,0.0,0.0,0.0,0.0,0.0,0.0,0.0,0.0,0.0,0.0,0.0,0.0,0.0,0.0,0.0,0.0,0.0,0.0,0.0,0.0,0.0,0.0,0.0,0.0,0.0,0.0,0.0,0.0,0.0,0.0,0.0,0.0,0.0,0.0,0.0,0.0,0.0,0.0,0.0,0.0,0.0,0.0,0.0,0.0,0.0,0.0,0.0,0.0,0.0,0.0,0.0,0.0,0.0,0.0,0.0,0.0,0.0,0.0,0.0,0.0,0.0,0.0,0.0,0.0,0.9922,0.991,1.01,1.0346,1.0869,1.0961,1.1511,1.2923,0.0,0.0,0.0,0.0,0.0,0.0,0.0,0.0,0.0,0.0,0.0,0.0,0.0,0.0,0.0,0.0,0.0,0.0,0.0,0.0,0.0,0.0,0.0,0.0,0.0,0.0,0.0,0.0,0.0,0.0,0.0,0.0,0.0,0.0,0.0,0.0,0.0,0.0,0.0,0.0,0.0,0.0,0.0,0.0,0.0,0.0,0.0,0.0,0.0,0.0,0.0,0.0,0.0,0.0,0.0,0.0,0.0,0.0,0.0,0.0,0.0,0.0,0.0,0.0,0.0,0.0,0.0,0.0,0.0,0.0,0.0,0.0,0.0,0.0,0.0,0.0,0.0,0.0,0.0,0.0,0.0,0.0,0.0,0.0,0.0,0.0,0.0,0.0,0.0,0.0,0.0,0.0,0.0,0.0,0.0,0.0,0.0,0.0,0.0,0.0,0.0,0.0,0.0,0.0,0.8119,0.817,0.8186,0.8848,1.0519,1.0697,1.1011,1.1988,0.0,0.0,0.0,0.0,0.0,0.0,0.0,0.0,0.0,0.0,0.0,0.0,0.0,0.0,0.0,0.0,0.0,0.0,0.0,0.0,0.0,0.0,0.0,0.0,0.0,0.0,0.0,0.0,0.0,0.0,0.0,0.0,0.0,0.0,0.0,0.0,0.0,0.0,0.0,0.0,0.0,0.0,0.0,0.0,0.0,0.0,0.0,0.0,0.0,0.0,0.0,0.0,0.0,0.0,0.0,0.0,0.0,0.0,0.0,0.0,0.0,0.0,0.0,0.0,0.0,0.0,0.0,0.0,0.0,0.0,0.0,0.0,0.0,0.0,0.0,0.0,0.0,0.0,0.0,0.0,0.0,0.0,0.0,0.0,0.0,0.0,0.0,0.0,0.0,0.0,0.0,0.0,0.0,0.0,0.0,0.0,0.0,0.0,0.0,0.0,0.0,0.0,0.0,0.625,0.5773,0.5926,0.5869,0.6489,0.799,0.8165,0.8662,0.9807,1.0429,0.0,0.0,0.0,0.0,0.0,0.0,0.0,0.0,0.0,0.0,0.0,0.0,0.0,0.0,0.0,0.0,0.0,0.0,0.0,0.0,0.0,0.0,0.0,0.0,0.0,0.0,0.0,0.0,0.0,0.0,0.0,0.0,0.0,0.0,0.0,0.0,0.0,0.0,0.0,0.0,0.0,0.0,0.0,0.0,0.0,0.0,0.0,0.0,0.0,0.0,0.0,0.0,0.0,0.0,0.0,0.0,0.0,0.0,0.0,0.0,0.0,0.0,0.0,0.0,0.0,0.0,0.0,0.0,0.0,0.0,0.0,0.0,0.0,0.0,0.0,0.0,0.0,0.0,0.0,0.0,0.0,0.0,0.0,0.0,0.0,0.0,0.0,0.0,0.0,0.0,0.0,0.0,0.0,0.0,0.0,0.0,0.0,0.0,0.0,0.0,0.0,0.0,0.3959,0.3643,0.3645,0.3575,0.4107,0.5354,0.5714,0.642,0.7848,0.8056,0.0,0.0,0.0,0.0,0.0,0.0,0.0,0.0,0.0,0.0,0.0,0.0,0.0,0.0,0.0,0.0,0.0,0.0,0.0,0.0,0.0,0.0,0.0,0.0,0.0,0.0,0.0,0.0,0.0,0.0,0.0,0.0,0.0,0.0,0.0,0.0,0.0,0.0,0.0,0.0,0.0,0.0,0.0,0.0,0.0,0.0,0.0,0.0,0.0,0.0,0.0,0.0,0.0,0.0,0.0,0.0,0.0,0.0,0.0,0.0,0.0,0.0,0.0,0.0,0.0,0.0,0.0,0.0,0.0,0.0,0.0,0.0,0.0,0.0,0.0,0.0,0.0,0.0,0.0,0.0,0.0,0.0,0.0,0.0,0.0,0.0,0.0,0.0,0.0,0.0,0.0,0.0,0.0,0.0,0.0,0.0,0.0,0.0,0.0,0.0,0.0,0.0,0.2956,0.232,0.1699,0.161,0.2145,0.339,0.4559,0.5648,0.6631,0.682,0.0,0.0,0.0,0.0,0.0,0.0,0.0,0.0,0.0,0.0,0.0,0.0,0.0,0.0,0.0,0.0,0.0,0.0,0.0,0.0,0.0,0.0,0.0,0.0,0.0,0.0,0.0,0.0,0.0,0.0,0.0,0.0,0.0,0.0,0.0,0.0,0.0,0.0,0.0,0.0,0.0,0.0,0.0,0.0,0.0,0.0,0.0,0.0,0.0,0.0,0.0,0.0,0.0,0.0,0.0,0.0,0.0,0.0,0.0,0.0,0.0,0.0,0.0,0.0,0.0,0.0,0.0,0.0,0.0,0.0,0.0,0.0,0.0,0.0,0.0,0.0,0.0,0.0,0.0,0.0,0.0,0.0,0.0,0.0,0.0,0.0,0.0,0.0,0.0,0.0,0.0,0.0,0.0,0.0,0.0,0.0,0.0,0.0,0.0,0.0,0.0,0.0,0.0086,-0.0353,0.0,-0.0089,0.0358,0.1608,0.2413,0.3478,0.5036,0.0,0.0,0.0,0.0,0.0,0.0,0.0,0.0,0.0,0.0,0.0,0.0,0.0,0.0,0.0,0.0,0.0,0.0,0.0,0.0,0.0,0.0,0.0,0.0,0.0,0.0,0.0,0.0,0.0,0.0,0.0,0.0,0.0,0.0,0.0,0.0,0.0,0.0,0.0,0.0,0.0,0.0,0.0,0.0,0.0,0.0,0.0,0.0,0.0,0.0,0.0,0.0,0.0,0.0,0.0,0.0,0.0,0.0,0.0,0.0,0.0,0.0,0.0,0.0,0.0,0.0,0.0,0.0,0.0,0.0,0.0,0.0,0.0,0.0,0.0,0.0,0.0,0.0,0.0,0.0,0.0,0.0,0.0,0.0,0.0,0.0,0.0,0.0,0.0,0.0,0.0,0.0,0.0,0.0,0.0,0.0,0.0,0.0,0.0,0.0,0.0,0.0,-0.1672,-0.2321,-0.273,0.0,-0.2057,-0.1341,-0.0805,-0.0089,0.1044,0.2928,0.0,0.0,0.0,0.0,0.0,0.0,0.0,0.0,0.0,0.0,0.0,0.0,0.0,0.0,0.0,0.0,0.0,0.0,0.0,0.0,0.0,0.0,0.0,0.0,0.0,0.0,0.0,0.0,0.0,0.0,0.0,0.0,0.0,0.0,0.0,0.0,0.0,0.0,0.0,0.0,0.0,0.0,0.0,0.0,0.0,0.0,0.0,0.0,0.0,0.0,0.0,0.0,0.0,0.0,0.0,0.0,0.0,0.0,0.0,0.0,0.0,0.0,0.0,0.0,0.0,0.0,0.0,0.0,0.0,0.0,0.0,0.0,0.0,0.0,0.0,0.0,0.0,0.0,0.0,0.0,0.0,0.0,0.0,0.0,0.0,0.0,0.0,0.0,0.0,0.0,0.0,0.0,0.0,0.0,0.0,0.0,0.0,0.0,0.0,0.0,0.0,0.0,-0.3688,-0.3834,-0.4476,-0.6192,-0.4295,-0.3218,-0.3758,-0.2774,-0.1393,0.0,0.0,0.0,0.0,0.0,0.0,0.0,0.0,0.0,0.0,0.0,0.0,0.0,0.0,0.0,0.0,0.0,0.0,0.0,0.0,0.0,0.0,0.0,0.0,0.0,0.0,0.0,0.0,0.0,0.0,0.0,0.0,0.0,0.0,0.0,0.0,0.0,0.0,0.0,0.0,0.0,0.0,0.0,0.0,0.0,0.0,0.0,0.0,0.0,0.0,0.0,0.0,0.0,0.0,0.0,0.0,0.0,0.0,0.0,0.0,0.0,0.0,0.0,0.0,0.0,0.0,0.0,0.0,0.0,0.0,0.0,0.0,0.0,0.0,0.0,0.0,0.0,0.0,0.0,0.0,0.0,0.0,0.0,0.0,0.0,0.0,0.0,0.0,0.0,0.0,0.0,0.0,0.0,0.0,0.0,0.0,0.0,0.0,0.0,0.0,0.0,0.0,0.0,-0.478,-0.5313,-0.5902,-0.6542,-0.6,-0.5549,-0.5646,-0.5287,-0.4295,-0.2161,0.0,0.0,0.0,0.0,0.0,0.0,0.0,0.0,0.0,0.0,0.0,0.0,0.0,0.0,0.0,0.0,0.0,0.0,0.0,0.0,0.0,0.0,0.0,0.0,0.0,0.0,0.0,0.0,0.0,0.0,0.0,0.0,0.0,0.0,0.0,0.0,0.0,0.0,0.0,0.0,0.0,0.0,0.0,0.0,0.0,0.0,0.0,0.0,0.0,0.0,0.0,0.0,0.0,0.0,0.0,0.0,0.0,0.0,0.0,0.0,0.0,0.0,0.0,0.0,0.0,0.0,0.0,0.0,0.0,0.0,0.0,0.0,0.0,0.0,0.0,0.0,0.0,0.0,0.0,0.0,0.0,0.0,0.0,0.0,0.0,0.0,0.0,0.0,0.0,0.0,0.0,0.0,0.0,0.0,0.0,0.0,0.0,0.0,0.0,0.0,0.0,0.0,-0.5699,-0.6267,-0.6615,-0.6799,-0.6802,-0.6716,-0.6542,-0.6545,-0.5917,-0.46,0.0,0.0,0.0,0.0,0.0,0.0,0.0,0.0,0.0,0.0,0.0,0.0,0.0,0.0,0.0,0.0,0.0,0.0,0.0,0.0,0.0,0.0,0.0,0.0,0.0,0.0,0.0,0.0,0.0,0.0,0.0,0.0,0.0,0.0,0.0,0.0,0.0,0.0,0.0,0.0,0.0,0.0,0.0,0.0,0.0,0.0,0.0,0.0,0.0,0.0,0.0,0.0,0.0,0.0,0.0,0.0,0.0,0.0,0.0,0.0,0.0,0.0,0.0,0.0,0.0,0.0,0.0,0.0,0.0,0.0,0.0,0.0,0.0,0.0,0.0,0.0,0.0,0.0,0.0,0.0,0.0,0.0,0.0,0.0,0.0,0.0,0.0,0.0,0.0,0.0,0.0,0.0,0.0,0.0,0.0,0.0,0.0,0.0,0.0,0.0,0.0,0.0,-0.6526,-0.6784,-0.7058,-0.7143,-0.6969,-0.6884,-0.6884,-0.6802,-0.675,-0.6791,0.0,0.0,0.0,0.0,0.0,0.0,0.0,0.0,0.0,0.0,0.0,0.0,0.0,0.0,0.0,0.0,0.0,0.0,0.0,0.0,0.0,0.0,0.0,0.0,0.0,0.0,0.0,0.0,0.0,0.0,0.0,0.0,0.0,0.0,0.0,0.0,0.0,0.0,0.0,0.0,0.0,0.0,0.0,0.0,0.0,0.0,0.0,0.0,0.0,0.0,0.0,0.0,0.0,0.0,0.0,0.0,0.0,0.0,0.0,0.0,-0.3651,0.0,0.0,0.0,0.0,0.0,0.0,0.0,0.0,0.0,0.0,0.0,0.0,0.0,0.0,0.0,0.0,0.0,0.0,0.0,0.0,0.0,0.0,0.0,0.0,0.0,0.0,0.0,0.0,0.0,0.0,0.0,0.0,0.0,0.0,0.0,0.0,0.0,0.0,0.0,0.0,0.0,-0.7859,-0.8235,-0.8281,-0.7764,-0.7676,-0.7676,-0.7676,-0.7415,-0.7267,-0.7197,-0.7001,0.0,0.0,0.0,0.0,0.0,0.0,0.0,0.0,0.0,0.0,0.0,0.0,0.0,0.0,0.0,0.0,0.0,0.0,0.0,0.0,0.0,0.0,0.0,0.0,0.0,0.0,0.0,0.0,0.0,0.0,0.0,0.0,0.0,0.0,0.0,0.0,0.0,0.0,0.0,0.0,0.0,0.0,0.0,0.0,0.0,0.0,0.0,0.0,0.0,0.0,0.0,0.0,0.0,0.0,0.0,0.0,0.0,0.0,0.0,0.0,-0.69,0.0,0.0,0.0,0.0,0.0,0.0,0.0,0.0,0.0,0.0,0.0,0.0,0.0,0.0,0.0,0.0,0.0,0.0,0.0,0.0,0.0,0.0,0.0,0.0,0.0,0.0,0.0,0.0,0.0,0.0,0.0,0.0,0.0,0.0,0.0,0.0,0.0,0.0,0.0,0.0,-0.8991,-0.9079,-0.889,-0.8544,-0.8113,-0.7944,-0.7944,-0.7768,-0.7643,-0.7559,-0.7318,0.0,0.0,0.0,0.0,0.0,0.0,0.0,0.0,0.0,0.0,0.0,0.0,0.0,0.0,0.0,0.0,0.0,0.0,0.0,0.0,0.0,0.0,0.0,0.0,0.0,0.0,0.0,0.0,0.0,0.0,0.0,0.0,0.0,0.0,0.0,0.0,0.0,0.0,0.0,0.0,0.0,0.0,0.0,0.0,0.0,0.0,0.0,0.0,0.0,0.0,0.0,0.0,0.0,-1.3185,-1.4116,-1.4435,-1.515,-1.5553,-1.5666,-1.3373,-1.2005,-1.1396,0.0,0.0,0.0,0.0,0.0,0.0,0.0,0.0,0.0,0.0,0.0,0.0,0.0,0.0,0.0,0.0,0.0,0.0,0.0,0.0,0.0,0.0,0.0,0.0,0.0,-0.9535,-0.9863,0.0,0.0,0.0,0.0,0.0,0.0,0.0,0.0,0.0,0.0,0.0,0.0,-1.0167,-0.994,-0.9666,-0.9579,-0.8894,-0.8464,-0.8292,-0.8201,-0.8113,-0.794,-0.7639,-0.7379,0.0,0.0,0.0,0.0,0.0,0.0,0.0,0.0,0.0,0.0,0.0,0.0,0.0,0.0,0.0,0.0,0.0,0.0,0.0,0.0,0.0,0.0,0.0,0.0,0.0,0.0,0.0,0.0,0.0,0.0,0.0,0.0,0.3701,0.2431,0.0,0.0,0.0,0.0,0.0,0.0,0.0,0.0,0.0,0.0,0.0,0.0,0.0,-0.9585,-1.0707,-1.2445,-1.3591,-1.4079,-1.574,-1.6776,-1.7368,-1.8268,-1.8303,-1.7612,-1.8039,0.0,-1.5548,-1.5438,0.0,0.0,0.0,0.0,0.0,0.0,0.0,0.0,0.0,0.0,0.0,0.0,0.0,0.0,0.0,0.0,0.0,0.0,0.0,0.0,0.0,0.0,-1.2076,-1.2076,-1.2535,-1.2808,0.0,-1.0875,-0.9285,-0.9285,-0.9528,0.0,0.0,0.0,0.0,0.0,0.0,0.0,-1.1675,-1.1838,-1.1752,-1.1063,-1.089,-1.0544,-0.9685,-0.9501,-0.9065,-0.8201,-0.7921,-0.7755,-0.7606,-0.7328,0.0,0.0,0.0,0.0,0.0,0.0,0.0,0.0,0.0,0.0,0.0,0.0,0.0,0.0,0.0,0.0,0.0,0.0,0.0,0.0,0.0,0.0,0.0,0.0,0.0,0.0,0.0,0.0,0.0,0.0289,-0.1448,-0.158,-0.3757,-0.5107,0.0,0.0,0.0,0.0,0.0,0.0,0.0,0.0,0.0,-1.1115,-1.1243,-1.2036,-1.3542,-1.4605,-1.5775,-1.7115,-1.8151,-1.9003,-1.9737,-2.0148,-2.0148,-1.9816,-2.0226,-1.9877,-1.8912,-1.7556,-1.7146,-1.7397,0.0,0.0,0.0,0.0,-1.6285,-1.6198,-1.5785,-1.5465,0.0,-1.4695,0.0,0.0,0.0,0.0,0.0,0.0,0.0,0.0,0.0,0.0,-1.3111,-1.3432,-1.3724,-1.3977,-1.3977,-1.3169,-1.2318,0.0,-1.164,-1.1543,-1.1215,0.0,0.0,0.0,0.0,-1.2294,-1.2807,-1.271,-1.2448,-1.21,-1.1585,-1.1154,-1.0722,-1.0631,-1.0366,-0.9937,-0.9758,-0.9625,-0.9533,-0.8662,-0.8199,0.0,0.0,0.0,0.0,0.0,0.0,0.0,0.0,0.0,0.0,0.0,0.0,0.0,0.0,0.0,0.0,0.0,0.0,0.0,0.0,0.0,0.0,0.0,0.0,0.0,0.0,0.0,0.0,-0.4131,-0.559,-0.5026,-0.7919,-0.9526,0.0,0.0,0.0,0.0,0.0,0.0,-1.1597,-1.2012,-1.2677,-1.3567,-1.3653,-1.4498,-1.6139,-1.6641,-1.7698,-1.943,-1.9908,-2.0604,-2.1359,-2.1359,-2.1359,-2.1359,-2.1359,-2.1359,-2.1118,-1.9256,-1.878,-1.9125,-1.847,-1.823,-1.8141,-1.8069,-1.8069,-1.8069,-1.7819,-1.7568,-1.7349,-1.6905,0.0,-1.4728,-1.4338,0.0,0.0,0.0,0.0,-1.3139,-1.3592,-1.3665,-1.3801,-1.4176,-1.4398,-1.4482,-1.4482,-1.4504,-1.4393,0.0,-1.3561,-1.3326,-1.3046,0.0,0.0,0.0,0.0,-1.3155,-1.3817,-1.351,-1.3215,-1.3124,-1.2522,-1.2009,-1.1671,-1.1671,-1.1585,-1.1327,-1.1144,-1.1047,-1.1047,-1.0028,-0.9498,-0.9447,0.0,0.0,0.0,0.0,0.0,0.0,0.0,0.0,0.0,0.0,0.0,0.0,0.0,0.0,0.0,0.0,0.0,0.0,0.0,0.0,0.0,0.0,0.0,0.0,0.0,0.0,0.0,0.0,0.0,-0.8179,-1.0019,0.0,0.0,0.0,0.0,-1.1636,-1.24,-1.3201,-1.3833,-1.4783,-1.5676,-1.6383,-1.6609,-1.6888,-1.7378,-1.7996,-1.8856,-1.9968,-2.0551,-2.1179,-2.1807,-2.1807,-2.1807,-2.1807,-2.1807,-2.1655,-2.1425,-2.1118,-2.0896,-2.0751,-2.0751,-2.0576,-2.0401,-2.0255,-2.0177,-2.0098,-1.9863,-1.9213,-1.8488,-1.8186,-1.6729,-1.5055,-1.4488,-1.4055,0.0,0.0,-1.4177,-1.4246,-1.4552,-1.4629,-1.4636,-1.4643,-1.465,-1.465,-1.465,-1.451,-1.4391,0.0,-1.4636,-1.4532,-1.4232,0.0,-1.4191,-1.4244,-1.4177,-1.4302,-1.4594,-1.4643,-1.4566,-1.4307,-1.4307,-1.3802,-1.2705,-1.2619,-1.2272,-1.1322,-1.1322,-1.1322,-1.1322,-1.1037,-1.0841,-1.0632,-1.035,0.0,0.0,0.0,0.0,0.0,0.0,0.0,0.0,0.0,0.0,0.0,0.0,0.0,0.0,0.0,0.0,0.0,0.0,0.0,0.0,0.0,0.0,0.0,0.0,0.0,0.0,0.0,0.0,-0.9278,-1.1512,0.0,-1.2424,-1.3521,-1.434,-1.453,-1.5307,-1.5913,-1.6175,-1.6569,-1.6853,-1.712,-1.7198,-1.7681,-1.8603,-1.8948,-1.9753,-2.0882,-2.1787,-2.2093,-2.1807,-2.2327,-2.2327,-2.1807,-2.1807,-2.1731,-2.1655,-2.1655,-2.1359,-2.1051,-2.1051,-2.0974,-2.0819,-2.0741,-2.0576,-2.0489,-2.0411,-2.0167,-1.9737,-1.8952,-1.7856,-1.6661,-1.5665,-1.49,-1.4433,-1.4545,-1.4573,-1.4601,-1.4887,-1.4999,-1.4999,-1.5082,-1.5166,-1.5166,-1.5166,-1.5087,-1.5036,-1.5151,-1.4752,-1.4412,-1.43,-1.4447,-1.451,-1.4314,-1.4447,-1.4615,-1.472,-1.4734,-1.465,-1.4566,-1.4482,-1.423,-1.3802,-1.3646,-1.3483,-1.3137,-1.3137,-1.3137,-1.3137,-1.2437,-1.2049,-1.1962,-1.1182,-1.0401,0.0,0.0,0.0,0.0,0.0,0.0,0.0,0.0,0.0,0.0,0.0,0.0,0.0,0.0,0.0,0.0,0.0,0.0,0.0,0.0,0.0,0.0,0.0,0.0,0.0,0.0,-1.1481,-1.0633,-1.2821,-1.434,-1.3978,-1.5244,-1.6131,-1.6486,-1.7184,-1.7677,-1.7745,-1.7891,-1.8095,-1.8379,-1.8389,-1.8943,-2.0041,-2.0186,-2.0793,-2.1723,-2.2477,-2.2478,-2.1959,-2.2478,-2.2402,-2.1807,-2.1807,-2.1807,-2.1807,-2.1807,-2.1655,-2.1436,-2.1359,-2.1205,-2.0984,-2.0984,-2.0896,-2.0654,-2.0644,-2.0566,-2.0401,-1.9116,-1.8479,-1.7989,-1.6609,-1.5794,-1.5387,-1.5387,-1.5151,-1.5075,-1.5484,-1.565,-1.5733,-1.6221,-1.6147,-1.5989,-1.6064,-1.5831,-1.5597,-1.5506,-1.5083,-1.4693,-1.4693,-1.4856,-1.4809,-1.4579,-1.471,-1.4873,-1.4766,-1.4844,-1.4908,-1.4824,-1.465,-1.4482,-1.4398,-1.4149,-1.3981,-1.4082,-1.3995,-1.3981,-1.4082,-1.3483,-1.3137,-1.3137,-1.2437,-1.1286,-0.9741,0.0,0.0,0.0,0.0,0.0,0.0,0.0,0.0,0.0,0.0,0.0,0.0,0.0,0.0,0.0,0.0,0.0,0.0,0.0,0.0,0.0,0.0,0.0,-0.9431,-1.0545,-1.1695,-1.2258,-1.4065,-1.5267,-1.5521,-1.6171,-1.6872,-1.7404,-1.7833,-1.8259,-1.8596,-1.8962,-1.9525,-2.0328,-2.0339,-2.0775,-2.169,-2.169,-2.1934,-2.2478,-2.2478,-2.2327,-2.2101,-2.2176,-2.2025,-2.1807,-2.1807,-2.1807,-2.1807,-2.1807,-2.1807,-2.1807,-2.1578,-2.1359,-2.1205,-2.1205,-2.1061,-2.0906,-2.0654,-2.0644,-2.0323,-1.8638,-1.8647,-1.8975,-1.7261,-1.6698,-1.6698,-1.6698,-1.6064,-1.5665,-1.646,-1.6698,-1.6935,-1.798,-1.7585,-1.7033,-1.718,-1.6632,-1.5997,-1.5741,-1.5582,-1.5431,-1.5431,-1.5431,-1.5321,-1.4925,-1.5226,0.0,-1.4999,-1.5233,-1.534,-1.5159,-1.4894,-1.4643,-1.4398,-1.3897,-1.3788,-1.4095,-1.3841,-1.3814,-1.4102,-1.4115,-1.4115,-1.4115,-1.4108,-1.3096,-1.1144,0.0,0.0,0.0,0.0,0.0,0.0,0.0,0.0,0.0,0.0,0.0,0.0,0.0,0.0,0.0,0.0,0.0,0.0,0.0,0.0,0.0,0.0,-1.0018,-0.9947,-1.1918,-1.3245,-1.2999,-1.4284,-1.5376,-1.5687,-1.6867,-1.7765,-1.8162,-1.9354,-2.0172,-2.024,-2.0651,-2.1036,-2.1246,-2.1246,-2.1539,-2.2158,-2.1991,-2.2426,-2.339,-2.3841,-2.3768,-2.3169,-2.3537,-2.3117,-2.2025,-2.1883,-2.1807,-2.1807,-2.1807,-2.1807,-2.1807,-2.1731,-2.1578,-2.1436,-2.1436,-2.1205,-2.0906,-2.0829,-2.0731,-2.0489,-2.0001,-1.9204,-1.8247,-1.7755,-1.7188,-1.6535,-1.5906,-1.6476,-1.7188,-1.678,-1.678,-1.6952,-1.7269,-1.6706,-1.6147,-1.6402,-1.6072,-1.5824,-1.5733,-1.5658,-1.5582,-1.5423,-1.5431,-1.5394,-1.5306,-1.5372,0.0,-1.5306,-1.5372,-1.5253,-1.502,-1.4746,-1.4578,-1.4629,-1.4337,-1.4352,-1.4689,-1.4643,-1.4636,-1.4716,-1.4723,-1.4723,-1.4723,-1.3967,-1.3559,0.0,0.0,0.0,0.0,0.0,0.0,0.0,0.0,0.0,0.0,0.0,0.0,0.0,0.0,0.0,0.0,0.0,0.0,0.0,0.0,0.0,0.0,-0.997,-1.064,-1.1007,-1.2638,-1.3825,-1.4034,-1.4903,-1.5762,-1.6655,-1.7781,-1.8791,-1.9469,-2.0533,-2.1166,-2.1166,-2.1439,-2.168,-2.1887,-2.1898,-2.2127,-2.2597,-2.2635,-2.3086,-2.3787,-2.4671,-2.4614,-2.3786,-2.4323,-2.3713,0.0,-2.2043,-2.1883,-2.1807,-2.1807,-2.1807,0.0,0.0,0.0,0.0,0.0,-2.1359,-2.1138,-2.0984,-2.0819,-2.0654,-2.0177,-1.9608,-1.9036,-1.8647,-1.8158,-1.7674,-1.7204,-1.7521,-1.7917,-1.735,-1.7594,-1.8006,-1.8149,-1.7594,-1.7033,-1.7196,-1.6632,-1.5899,-1.5733,-1.5733,0.0,-1.5423,-1.5431,-1.5387,-1.5248,-1.5343,-1.5379,-1.524,-1.5343,-1.5409,-1.5357,-1.5011,-1.4965,-1.5098,-1.4679,0.0,0.0,0.0,-1.4836,-1.4957,-1.4963,0.0,0.0,0.0,-1.3793,-1.3438,0.0,0.0,0.0,-0.9013,-0.9055,0.0,0.0,0.0,0.0,0.0,0.0,0.0,0.0,0.0,0.0,0.0,0.0,0.0,0.0,0.0,0.0,-1.0484,-1.1675,-1.2418,-1.3084,-1.389,-1.5054,-1.5664,-1.6456,-1.7832,-1.8775,-1.9741,-2.0801,-2.1396,-2.1669,-2.1669,0.0,0.0,0.0,0.0,-2.2695,-2.3165,-2.3602,-2.3886,-2.404,-2.5156,-2.5283,-2.4489,-2.4808,-2.4236,-2.2934,-2.259,-2.2258,-2.1963,-2.1901,-2.1859,-2.1807,-2.1807,-2.1807,-2.1807,-2.1578,-2.1512,-2.1425,-2.1051,0.0,0.0,-1.9784,-1.9932,-2.0401,-1.9539,-1.9301,-1.9301,-1.9222,-1.8727,-1.8238,-1.8158,-1.8727,-1.945,-1.9668,-1.9116,-1.8567,-1.855,-1.7432,-1.6229,-1.5816,-1.5733,-1.5658,-1.5423,-1.5431,-1.5328,-1.5043,-1.524,-1.5321,-1.4954,-1.5284,-1.5577,-1.5833,0.0,0.0,-1.5637,-1.498,-1.471,-1.5037,-1.4816,-1.479,-1.505,-1.5064,-1.5064,-1.5064,-1.5064,-1.4223,-1.2464,-1.2464,-1.1549,-0.9886,-1.0919,-1.0901,0.0,0.0,0.0,0.0,0.0,0.0,0.0,0.0,0.0,0.0,0.0,0.0,0.0,0.0,0.0,-1.0599,-1.1304,-1.2198,-1.376,-1.4482,-1.4911,-1.5196,-1.6108,-1.7009,-1.7873,-1.9019,-1.9992,-2.073,-2.1685,-2.2182,-2.2182,-2.2521,-2.2947,-2.3438,-2.346,-2.37,-2.4192,-2.4301,-2.5015,-2.6281,0.0,0.0,-2.6347,-2.6316,-2.5355,-2.3906,-2.4181,-2.3835,-2.3133,-2.26,-2.2149,-2.1807,-2.1807,-2.1807,-2.1807,-2.1731,-2.1655,-2.1512,-2.1436,-2.1282,-2.1051,-2.0741,-2.0323,-1.9913,-1.945,-1.9371,0.0,-1.8479,-1.9116,-1.9923,-1.9213,-1.9441,-1.959,-1.8807,-1.8078,-1.7432,-1.6804,-1.6229,-1.5816,-1.5733,-1.5733,-1.5658,-1.5423,-1.5431,-1.5409,-1.5343,-1.5387,-1.5409,-1.5343,-1.5621,-1.5745,-1.554,-1.549,-1.5503,-1.563,-1.5253,-1.5187,-1.5625,-1.5605,-1.5598,-1.5658,-1.5665,-1.5665,-1.5665,-1.5665,-1.547,-1.5081,-1.5081,-1.4892,-1.4401,-1.1096,-0.9468,0.0,0.0,0.0,0.0,0.0,0.0,0.0,0.0,0.0,0.0,0.0,-0.6972,-0.7802,0.0,-0.8881,-1.0777,-1.1459,-1.2271,-1.3833,-1.5073,-1.5774,-1.5774,-1.6722,-1.7784,-1.8773,-1.997,-2.0907,-2.1514,-2.2244,-2.2761,-2.3012,-2.3241,-2.3591,-2.4093,-2.4104,-2.4235,-2.4486,-2.4716,-2.5441,-2.6647,-2.6905,-2.7191,-2.7645,-2.7292,-2.6635,-2.5622,-2.4678,-2.4194,-2.3934,-2.3165,-2.2573,-2.2149,-2.2149,-2.2004,-2.1807,-2.1807,-2.1731,-2.1655,-2.1502,-2.1425,-2.1282,-2.0984,-2.0654,-2.0323,-2.001,-2.001,-2.0001,-1.9441,-1.9923,-2.0411,-1.9539,-1.945,-1.9362,-1.8479,-1.7674,-1.7025,-1.6624,-1.6139,-1.565,-1.5582,-1.5582,-1.5499,-1.5431,-1.5431,-1.5431,-1.5431,-1.5431,-1.5489,-1.565,-1.5818,-1.5972,-1.6126,-1.6022,-1.6059,-1.6092,-1.5752,-1.5611,-1.5812,-1.5832,-1.5832,-1.5832,-1.5832,-1.5832,-1.5832,-1.5832,-1.554,-1.5064,-1.5064,-1.4771,-1.4172,-1.1919,-1.1157,0.0,0.0,0.0,0.0,0.0,0.0,0.0,0.0,-0.2513,-0.5052,-0.6,-0.6703,-0.7863,-0.8327,-0.9084,-1.0732,-1.1465,-1.2365,-1.3842,-1.5422,-1.6478,-1.6624,-1.7588,-1.8644,-1.9845,-2.0959,-2.1828,-2.2371,-2.2881,-2.3307,-2.3711,-2.382,-2.4104,-2.4607,-2.4618,-2.4661,-2.476,-2.5282,-2.6004,-2.6769,-2.7894,-2.8505,-2.8652,-2.8215,-2.7633,-2.6916,-2.4869,-2.4261,-2.4541,-2.3703,-2.3119,-2.2851,-2.2704,-2.2397,-2.2056,-2.188,-2.1807,-2.1807,-2.1578,-2.1578,-2.1502,-2.1128,-2.1051,-2.1051,-2.0809,-2.0722,-2.0722,-2.0644,-2.0644,-2.0411,-1.9696,-1.9618,-1.9381,-1.847,-1.7747,-1.7188,-1.6764,-1.6131,-1.5575,-1.5423,-1.5431,-1.5431,-1.5431,-1.5431,-1.5431,-1.5431,-1.5431,-1.5548,-1.5877,-1.5972,-1.6221,-1.6791,-1.6641,-1.6508,-1.6473,-1.6021,-1.5832,-1.5832,-1.5832,-1.5832,-1.5832,-1.5832,-1.5832,-1.5832,-1.5635,-1.5064,-1.4298,-1.4298,-1.3902,-1.3022,-1.3216,-1.3511,1.4726,1.1383,0.8466,0.6842,0.4834,0.2935,0.0,0.0,-0.2322,-0.3732,-0.5529,-0.6861,-0.7015,-0.8246,-0.9765,-1.131,-1.1977,-1.2889,-1.4774,-1.5814,-1.6676,-1.7261,-1.855,-1.9691,-2.043,-2.1445,-2.2253,-2.285,-2.3372,-2.3667,-2.3733,-2.4159,-2.4618,-2.5087,-2.5098,-2.5306,-2.5742,-2.6591,-2.7406,-2.8183,-2.8323,-2.8821,-2.9549,-2.9344,-2.8342,-2.6733,-2.5387,-2.4879,-2.5043,-2.4187,-2.3995,-2.4165,-2.3412,-2.308,-2.2936,-2.2108,-2.1807,-2.1807,-2.1807,-2.1807,-2.1731,-2.1512,-2.1578,-2.1655,-2.1282,-2.1128,-2.1128,-2.0906,-2.0731,-2.0566,-2.0479,-2.0576,-2.0264,-1.8479,-1.8069,-1.7658,-1.5989,-1.5506,-1.5423,-1.5431,-1.5431,-1.5431,-1.5431,-1.5431,-1.5431,-1.5431,-1.5431,-1.5548,-1.5877,-1.6148,-1.6455,-1.6821,-1.6743,-1.6358,-1.592,-1.5832,-1.5832,-1.5832,-1.5832,-1.5832,-1.5832,-1.5832,-1.5832,-1.5832,-1.4968,-1.4394,-1.4298,-1.4298,-1.4202,-1.41,-1.5057,-1.4567,1.3957,1.1202,0.8992,0.0,0.5661,0.3927,0.1374,0.0153,-0.1152,-0.3507,-0.5151,-0.6311,-0.6934,-0.8322,-0.969,0.0,-1.1835,-1.2896,-1.444,-1.5856,-1.7084,-1.7914,-1.9487,-2.0655,-2.0893,-2.1975,-2.2703,-2.3001,-2.3449,-2.3864,-2.4159,-2.4628,-2.5109,-2.5579,-2.56,-2.5937,-2.6622,-2.7021,-2.7891,-2.9147,-2.9147,-2.9381,-2.9704,-2.9626,-2.8755,-2.7395,-2.7069,-2.6464,-2.5535,-2.5131,-2.4708,-2.4129,-2.3742,-2.3422,-2.3111,-2.2449,-2.2211,-2.217,-2.1901,-2.1807,-2.1807,-2.1589,-2.1502,-2.1436,-2.1138,-2.0974,-2.0809,-2.0731,-2.0654,-2.0566,-2.0566,-2.0255,-1.9618,-1.8318,-1.8078,-1.7747,-1.646,-1.6139,-1.6139,-1.6139,-1.5748,-1.5431,-1.5431,-1.5431,-1.5431,-1.5431,-1.5431,-1.5613,-1.6111,-1.6287,-1.6572,-1.6907,-1.6612,-1.6312,-1.6028,-1.5927,-1.5832,-1.5832,-1.5832,-1.5832,-1.5832,-1.5832,-1.5832,-1.5832,-1.535,-1.5159,-1.5159,-1.5159,-1.5159,-1.5159,-1.4968,-1.4484,1.3357,0.0,0.0,0.7574,0.6261,0.4712,0.1447,0.061,-0.0306,-0.3119,-0.453,-0.561,-0.6619,-0.8084,-0.9539,-1.0663,-1.1768,-1.2938,-1.4253,-1.5894,-1.7369,-1.8452,-2.0101,-2.1242,-2.1395,-2.2392,-2.3001,-2.3001,-2.358,-2.4104,-2.4465,-2.5054,-2.5535,-2.5884,-2.5895,-2.6302,-2.7185,-2.7418,-2.8279,-2.9704,-2.9935,-3.0024,-3.0024,-2.9704,-2.8991,-2.7971,-2.8051,-2.7395,-2.6152,-2.5902,-2.5228,-2.4378,-2.4137,-2.3857,-2.3505,-2.3049,-2.2801,-2.2625,-2.2159,-2.1994,-2.1973,-2.1696,-2.1436,-2.1282,-2.1138,-2.0896,-2.0654,-2.0654,-2.0644,-2.0566,-2.0566,-2.0167,-1.945,-1.8567,-1.8318,-1.8078,-1.6944,-1.6698,-1.6617,-1.6378,-1.5824,-1.5431,-1.5431,-1.5431,-1.5431,-1.5431,-1.5504,-1.576,-1.6301,-1.6528,-1.6639,-1.6828,-1.6508,-1.613,-1.6123,-1.5927,-1.5832,-1.5832,-1.5832,-1.5832,-1.5832,-1.5832,-1.5832,-1.5832,-1.554,-1.535,-1.535,-1.535,-1.535,-1.535,-1.4968,-1.4682,1.3194,1.1661,0.9944,0.7843,0.641,0.4756,0.1406,0.0626,-0.0,-0.2117,-0.3677,-0.4916,-0.5532,-0.7456,-0.9377,-1.0588,-1.2003,-1.3333,-1.465,-1.6049,-1.7473,-1.8849,-2.0285,-2.1395,0.0,-2.2628,-2.3001,-2.3001,-2.3919,-2.4476,-2.4486,-2.5371,-2.5884,-2.5895,-2.5895,-2.6302,-2.7185,-2.7959,-2.8821,-2.9704,-3.0583,-3.0986,-3.0898,-2.9716,-2.8846,-2.8462,-2.7557,-2.7151,-2.6987,-2.6152,-2.5819,-2.5641,-2.484,-2.4509,-2.4447,-2.4002,-2.3557,-2.3101,-2.2635,-2.248,-2.2397,-2.1952,-2.1655,-2.1512,-2.1502,-2.1215,-2.0906,-2.0906,-2.0741,-2.0566,-2.0566,-2.0566,-2.0323,-1.946,-1.9222,-1.8816,-1.7107,-1.6698,-1.646,-1.5582,-1.5431,-1.5431,-1.5431,-1.5431,-1.5431,-1.5431,-1.5694,-1.6016,-1.633,-1.6747,-1.6864,-1.6676,-1.6407,-1.6123,-1.5832,-1.5832,-1.5832,-1.5832,-1.5832,-1.5832,-1.5832,-1.5832,-1.5832,-1.5832,-1.4873,-1.4394,-1.4394,-1.4394,-1.4394,-1.4394,-1.535,-1.5737,1.2918,1.1778,1.0462,0.8221,0.7034,0.5523,0.2027,0.0939,-0.0,-0.2038,-0.3679,-0.4817,-0.5345,-0.7378,-0.9251,-0.9917,-1.1653,-1.3184,-1.4108,-1.5819,-1.7635,-1.9409,-2.0527,0.0,0.0,0.0,0.0,-2.3001,-2.3613,-2.3984,-2.3984,-2.4902,-2.5415,-2.5415,-2.6289,-2.7174,-2.7959,-2.8834,-2.9704,-3.0583,-3.0266,-3.0419,-3.0986,-2.9716,-2.9328,-2.9729,-2.9118,-2.8554,-2.8051,-2.7718,-2.6894,-2.5735,-2.5505,-2.502,-2.4519,-2.4374,-2.4219,-2.3981,-2.3215,-2.2956,-2.2884,-2.2418,-2.2039,-2.1676,-2.1373,-2.1041,-2.0731,-2.0731,-2.0644,-2.0566,-2.0566,-2.0566,-2.0411,-1.9539,-1.9775,-1.9687,-1.7917,-1.7594,-1.7269,-1.646,-1.5831,-1.5431,-1.5431,-1.5606,-1.5818,-1.6023,-1.6148,-1.633,-1.6652,-1.67,-1.6683,-1.6588,-1.6211,-1.5927,-1.5832,-1.5832,-1.5832,-1.5832,-1.5832,-1.5832,-1.5832,-1.5832,-1.5832,-1.5832,-1.5445,-1.5255,-1.5255,-1.5255,-1.5255,-1.5255,-1.4968,-1.4777,1.3042,1.2033,1.0833,0.8633,0.746,0.5906,0.2647,0.125,0.0078,-0.1803,-0.3343,-0.453,-0.5205,-0.7135,-0.8832,-0.9504,-1.1443,-1.311,-1.379,-1.5658,-1.7702,-1.9643,-2.0692,-2.17,0.0,0.0,0.0,-2.3001,-2.3449,-2.3733,-2.3733,-2.4486,-2.5084,-2.5303,-2.6154,-2.7179,-2.8261,-2.881,-2.9605,-3.0686,-3.0329,-3.0343,-3.0748,-2.996,-2.9806,-3.0152,-2.9934,-2.93,-2.8462,-2.8462,-2.7464,-2.5819,-2.5819,-2.5263,-2.454,-2.454,-2.454,-2.4436,-2.3691,-2.3432,-2.336,-2.2804,-2.2318,-2.1829,-2.1449,-2.1015,-2.0566,-2.0566,-2.0566,-2.0566,-2.0566,-2.0566,-2.0489,-1.9932,-2.0167,-2.0079,-1.8399,-1.7997,-1.7674,-1.6468,-1.5741,-1.5431,-1.5431,-1.5701,-1.6016,-1.6323,-1.6462,-1.6616,-1.6744,-1.6679,-1.6588,-1.6494,-1.6021,-1.5832,-1.5832,-1.5832,-1.5832,-1.5832,-1.5832,-1.5832,-1.5832,-1.5832,-1.5832,-1.5832,-1.5832,-1.5832,-1.5832,-1.5832,-1.5832,-1.5737,-1.5159,-1.4873,1.3484,1.2487,1.1213,0.9231,0.7757,0.6063,0.3195,0.1563,0.0157,-0.1251,-0.2686,-0.392,0.0,0.0,-0.8299,-0.9462,-1.1436,-1.3103,-1.3846,-1.5718,-1.7769,0.0,0.0,0.0,0.0,0.0,0.0,-2.3001,0.0,-2.3689,-2.3689,-2.417,-2.4826,-2.5558,-2.567,-2.6422,-2.7986,-2.8072,-2.8715,-3.0098,-3.0647,-3.067,-3.0355,-3.0279,-3.0063,-2.9704,-2.9704,-2.9201,-2.8457,-2.8457,-2.7394,-2.5753,-2.5775,-2.5221,-2.4509,-2.4444,-2.454,-2.4478,-2.4053,-2.3919,-2.3836,-2.3115,-2.2423,-2.1909,-2.163,-2.1076,-2.0566,-2.0566,-2.0566,-2.0566,-2.0566,-2.0566,-2.0566,-2.0566,-2.0566,-2.0079,-1.8399,-1.7997,-1.7521,-1.5748,-1.5431,-1.5431,-1.5452,-1.5709,-1.6023,-1.6345,-1.666,-1.6773,-1.6528,-1.66,-1.6494,-1.6224,-1.5927,-1.5832,-1.5832,-1.5832,-1.5832,-1.5832,-1.5832,-1.5832,-1.5832,-1.5832,-1.5832,-1.5832,-1.5832,-1.5832,-1.5832,-1.5832,-1.5832,-1.5832,-1.5832,-1.5832,1.337,1.2414,1.1236,0.921,0.7766,0.6217,0.4201,0.2106,0.0312,-0.0842,-0.2426,-0.388,0.0,0.0,0.0,-0.9814,-1.1677,0.0,-1.4094,-1.6171,0.0,-1.9373,0.0,-2.2176,-2.2927,-2.3001,0.0,0.0,-2.311,-2.3187,-2.3187,-2.3656,-2.4293,-2.5032,-2.6083,-2.7025,-2.7986,-2.8664,-2.9126,-2.9497,-2.9483,-2.9476,-2.9331,-2.9027,-2.888,-2.8746,-2.8598,-2.8375,-2.8139,-2.7575,-2.6623,-2.5656,-2.5396,-2.4834,-2.4084,-2.4416,-2.454,-2.4529,-2.4405,-2.4374,-2.4302,-2.3763,-2.3063,-2.2312,-2.19,-2.1233,-2.0566,-2.0566,-2.0566,-2.0566,-2.0566,-2.0566,-2.0566,-2.0566,-2.0566,-2.0079,-1.8399,-1.7997,-1.7521,-1.5748,-1.5431,-1.5504,-1.5752,-1.5862,-1.6104,-1.6645,-1.6715,-1.6677,-1.6829,-1.6727,-1.6494,-1.6224,-1.5927,-1.5832,-1.5832,-1.5832,-1.5832,-1.5832,-1.5832,-1.5832,-1.5832,-1.5832,-1.5832,-1.5832,-1.5832,-1.5832,-1.5832,-1.5832,-1.5832,-1.5832,-1.5832,-1.5832,1.3111,1.1919,1.0571,0.9216,0.7536,0.5825,0.4074,0.2151,0.0306,-0.0747,-0.2285,-0.3765,-0.47,-0.6462,0.0,0.0,0.0,0.0,-1.4134,-1.6412,-1.8294,0.0,-2.0969,0.0,-2.2927,-2.3001,-2.3001,0.0,-2.3001,-2.3001,-2.3001,-2.3541,-2.4272,-2.502,-2.6106,-2.7058,-2.7768,-2.8542,-2.8882,-2.8895,-2.8989,-2.8964,-2.8821,-2.852,-2.8375,-2.8243,0.0,-2.8109,-2.8024,-2.7224,-2.6387,-2.5581,-2.5092,-2.4352,-2.3608,-2.3857,-2.3866,-2.3782,-2.3782,-2.3698,-2.3729,-2.3778,-2.3223,-2.2329,-2.2008,-2.1313,-2.0566,-2.0566,-2.0566,-2.0566,-2.0566,-2.0566,-2.0566,-2.0566,-2.0333,-1.9687,-1.8318,-1.7674,-1.7033,-1.5673,-1.5431,-1.5489,-1.5672,-1.5826,-1.6082,-1.6565,-1.6588,-1.6614,-1.6842,-1.6595,-1.6312,-1.6028,-1.5927,-1.5832,-1.5832,-1.5832,-1.5832,-1.5832,-1.5832,-1.5832,-1.5832,-1.5832,-1.5832,-1.5832,-1.5832,-1.5832,-1.5832,-1.5832,-1.5832,-1.5832,-1.5832,-1.5832,1.2503,1.1019,0.9588,0.8903,0.7226,0.5197,0.3634,0.1959,0.0375,-0.0729,-0.2277,-0.3702,-0.472,-0.6487,-0.8304,-1.0025,0.0,-1.3162,-1.4223,-1.6402,-1.8286,-1.9212,-2.0954,-2.2339,-2.2916,-2.3001,-2.3075,-2.3139,-2.3139,-2.3139,-2.3139,-2.3768,-2.448,-2.5441,-2.6139,-2.6837,-2.7456,-2.802,-2.8268,-2.8268,-2.8568,-2.8673,-2.8472,-2.8244,-2.8015,-2.7883,-2.7883,0.0,-2.7811,-2.7017,-2.6261,-2.544,-2.4659,-2.3928,-2.3262,-2.3244,-2.3103,-2.2951,-2.2951,-2.2788,-2.2674,-2.3418,-2.2938,-2.2116,-2.1879,-2.1301,-2.0566,-2.0566,-2.0566,-2.0566,-2.0566,-2.0566,-2.0566,-2.0489,-1.9854,-1.9054,-1.8078,-1.7107,-1.6296,-1.559,-1.5431,-1.5431,-1.5431,-1.5665,-1.5965,-1.6316,-1.6346,-1.638,-1.6539,-1.6312,-1.6123,-1.5832,-1.5832,-1.5832,-1.5832,-1.5832,-1.5832,-1.5832,-1.5832,-1.5832,-1.5832,-1.5832,-1.5832,-1.5832,-1.5832,-1.5832,-1.5832,-1.5832,-1.573,-1.5635,-1.5635,-1.5635,1.0536,0.9502,0.868,0.777,0.6696,0.5502,0.4013,0.2258,0.0,-0.0285,-0.2382,-0.4158,-0.4736,-0.6583,-0.8675,-1.0598,-1.185,-1.3056,-1.4392,-1.658,-1.8266,0.0,-2.0928,-2.244,-2.2957,-2.3001,0.0,0.0,0.0,-2.3902,-2.3902,-2.4047,-2.4767,-2.6139,-2.6905,-2.739,-2.7523,-2.7628,-2.768,-2.768,-2.7459,-2.7306,-2.7306,-2.6949,-2.681,-2.6753,-2.6753,0.0,-2.6741,-2.5944,-2.5505,-2.5253,-2.4254,-2.3732,-2.3554,-2.3269,-2.3184,-2.3103,-2.2951,-2.2696,-2.2553,-2.2724,-2.2321,-2.172,-2.165,-2.1125,-2.0566,-2.0566,-2.0566,-2.0566,-2.0566,-2.0566,-2.0411,-1.9696,-1.9381,-1.8895,-1.7269,-1.6229,-1.559,-1.5423,-1.5431,-1.5431,-1.5431,-1.5474,-1.5624,-1.603,-1.5885,-1.5854,-1.6243,-1.6224,-1.6123,-1.5832,-1.5832,-1.5832,-1.5832,-1.5832,-1.5832,-1.5832,-1.5832,-1.5832,-1.5832,-1.5832,-1.5832,-1.5832,-1.5832,-1.5832,-1.5832,-1.5832,-1.535,-1.4586,-1.4586,-1.4586,0.9513,0.8604,0.7918,0.7242,0.5844,0.4327,0.3278,0.0,0.0,-0.1384,-0.3211,-0.4757,-0.5289,-0.7065,0.0,-1.0527,-1.1971,-1.3334,-1.4743,-1.6765,-1.8437,-1.9305,-2.1114,-2.2499,0.0,-2.3423,0.0,0.0,0.0,-2.4826,-2.4707,-2.5063,-2.5836,-2.6905,-2.7323,-2.7523,-2.7523,-2.7523,-2.7523,-2.7523,-2.7146,-2.7024,-2.7024,-2.6671,-2.6533,-2.6533,-2.6533,0.0,-2.6465,-2.5594,-2.5312,-2.5194,-2.3828,-2.3329,-2.3286,-2.2688,-2.2313,-2.2165,-2.2086,-2.1759,-2.1511,-2.1521,-2.1451,-2.1381,-2.1381,-2.0987,-2.0566,-2.0566,-2.0566,-2.0566,-2.0566,-2.0566,-2.0489,-2.0089,-1.9292,-1.8167,-1.6386,-1.5665,-1.5431,-1.5431,-1.5347,-1.5257,-1.5257,-1.5166,-1.5212,-1.5758,-1.5582,-1.5624,-1.6142,-1.6123,-1.5927,-1.5832,-1.5832,-1.5832,-1.5832,-1.5832,-1.5832,-1.5832,-1.5832,-1.5832,-1.5832,-1.5832,-1.5832,-1.5832,-1.5832,-1.5832,-1.5832,-1.5832,-1.5255,-1.4298,-1.4873,-1.4777,0.8452,0.7544,0.685,0.6395,0.4916,0.3165,0.2054,0.0145,0.0,-0.2715,-0.4154,-0.5415,-0.6001,-0.7692,-0.9417,0.0,-1.2222,-1.3721,-1.5222,-1.6986,-1.8486,0.0,-2.1182,0.0,-2.2952,-2.3857,0.0,0.0,0.0,0.0,-2.5581,-2.6208,-2.6905,-2.7456,-2.7523,-2.7523,-2.7523,-2.7523,-2.7523,-2.7523,-2.7146,-2.7024,-2.7024,-2.6671,-2.6533,-2.6533,-2.6533,0.0,0.0,-2.5816,-2.5523,-2.5453,-2.4009,-2.335,-2.3065,-2.2317,-2.1655,-2.1205,-2.1128,-2.0896,-2.0654,-2.0644,-2.0801,-2.1094,-2.1094,-2.084,-2.0566,-2.0566,-2.0566,-2.0566,-2.0566,-2.0566,-2.0566,-2.0411,-1.8957,-1.7359,-1.5989,-1.5506,-1.5431,-1.5431,-1.5257,-1.5173,-1.509,-1.4915,-1.4951,-1.5485,-1.5411,-1.554,-1.6048,-1.5927,-1.5832,-1.5832,-1.5832,-1.5832,-1.5832,-1.5832,-1.5832,-1.5832,-1.5832,-1.5832,-1.5832,-1.573,-1.573,-1.5832,-1.5737,-1.5642,-1.573,-1.554,-1.4867,-1.3902,-1.4472,-1.4376,0.6663,0.5702,0.5079,0.4533,0.407,0.317,0.0733,0.0,-0.1428,-0.3324,-0.4815,-0.6001,-0.6711,-0.8166,-0.9943,0.0,0.0,-1.4013,-1.6015,-1.7176,-1.8268,-1.94,0.0,0.0,-2.2804,0.0,0.0,0.0,0.0,0.0,-2.6346,-2.6973,-2.7456,-2.7523,-2.7523,-2.7523,-2.7523,-2.7523,-2.7523,-2.7523,-2.7146,-2.7024,-2.7024,-2.6671,-2.6533,-2.6533,-2.6533,0.0,0.0,-2.6383,-2.6383,-2.6314,-2.5453,-2.4492,-2.361,-2.2883,-2.2004,-2.1205,-2.0984,-2.0906,-2.0829,-2.0654,-2.0596,-2.0625,-2.0625,-2.0596,-2.0566,-2.0566,-2.0566,-2.0566,-2.0566,-2.0566,-2.0411,-1.9618,-1.8078,-1.678,-1.6617,-1.5989,-1.5431,-1.5431,-1.5431,-1.5347,-1.509,-1.509,-1.5135,-1.5321,-1.5322,-1.545,-1.5758,-1.5832,-1.5832,-1.5832,-1.5832,-1.5832,-1.5832,-1.5832,-1.5832,-1.5832,-1.5832,-1.5832,-1.5832,-1.5635,-1.5635,-1.5832,-1.5363,-1.5267,-1.554,-1.458,-1.3511,-1.2436,-1.1853,-1.156,0.597,0.4996,0.4137,0.375,0.2473,0.0909,-0.0146,0.0,-0.3971,-0.4906,-0.651,-0.7817,-0.814,-0.9666,-1.1219,0.0,0.0,0.0,-1.6172,-1.7229,-1.8448,-1.9852,-2.1486,0.0,0.0,0.0,0.0,0.0,0.0,0.0,-2.7456,-2.759,-2.7656,-2.7523,-2.7523,-2.7523,-2.7523,-2.7523,-2.7523,-2.7523,-2.7146,-2.7024,-2.7024,-2.6671,-2.6533,-2.6533,-2.6533,0.0,0.0,-2.6533,-2.6533,-2.6383,-2.5594,-2.4779,-2.3891,-2.3021,-2.208,-2.1205,-2.0984,-2.0819,-2.0731,-2.0644,-2.0566,-2.0566,-2.0566,-2.0566,-2.0566,-2.0566,-2.0566,-2.0566,-2.0566,-2.0566,-2.0411,-1.9539,-1.8407,-1.735,-1.678,-1.5899,-1.5257,-1.5257,-1.4999,-1.4741,-1.4657,-1.458,-1.4624,-1.5055,-1.5143,-1.5261,-1.5752,-1.5832,-1.5832,-1.5832,-1.5832,-1.5832,-1.5832,-1.5832,-1.5832,-1.5832,-1.5832,-1.5737,-1.5635,-1.554,-1.5452,-1.5363,-1.5178,-1.4783,-1.4286,-1.3902,-1.2829,-1.117,-1.1463,-1.1268,0.4991,0.4037,0.2965,0.2578,0.0613,-0.1271,0.0,0.0,-0.6399,-0.6482,-0.7812,-0.9116,-0.9488,-1.092,-1.2158,-1.2769,0.0,-1.5689,-1.6786,-1.7706,-1.8781,0.0,0.0,0.0,0.0,0.0,0.0,0.0,0.0,0.0,-2.8197,-2.8,-2.7789,-2.759,-2.7523,-2.7523,-2.7523,-2.7523,-2.7523,-2.7523,-2.7146,-2.7024,-2.7024,-2.6671,-2.6533,-2.6533,-2.6533,0.0,0.0,-2.6533,-2.6533,-2.6452,-2.5886,-2.4933,-2.3818,-2.3169,-2.2145,-2.0964,-2.0896,-2.0731,-2.0566,-2.0566,-2.0566,-2.0566,-2.0566,-2.0566,-2.0566,-2.0566,-2.0566,-2.0566,-2.0566,-2.0566,-2.0411,-1.9775,-1.8727,-1.7747,-1.7017,-1.5884,-1.4999,-1.4999,-1.4741,-1.4482,-1.4398,-1.4237,-1.4334,-1.4756,-1.491,-1.5144,-1.5638,-1.5772,-1.5832,-1.5832,-1.5832,-1.5832,-1.5832,-1.5832,-1.5832,-1.5832,-1.5832,-1.573,-1.554,-1.5452,-1.5261,-1.5083,-1.4981,-1.4496,-1.3806,-1.3511,-1.263,-1.117,-1.1663,-1.137,0.3446,0.2458,0.1407,0.0548,-0.1306,-0.3069,-0.3776,-0.6088,-0.8088,-0.8017,-0.8538,-0.943,-1.0732,-1.1542,-1.2647,-1.4542,-1.5264,0.0,-1.8098,-1.8646,-1.9228,0.0,0.0,0.0,0.0,0.0,0.0,0.0,0.0,0.0,-2.8287,-2.8197,-2.8,-2.7776,-2.759,-2.7523,-2.7523,-2.7523,-2.7523,-2.7523,-2.7146,-2.7024,-2.7024,-2.6671,-2.6533,0.0,0.0,0.0,0.0,-2.6533,-2.6533,-2.6533,-2.6465,-2.5276,-2.3526,-2.3514,-2.2264,-2.0644,-2.0566,-2.0566,-2.0566,-2.0566,-2.0566,-2.0566,-2.0566,-2.0566,-2.0566,-2.0566,-2.0566,-2.0566,-2.0566,-2.0566,-2.0566,-2.0342,-1.8957,-1.7658,-1.7334,-1.5959,-1.4734,-1.4734,-1.4734,-1.465,-1.4398,-1.4398,-1.4416,-1.4476,-1.4776,-1.507,-1.5364,-1.5651,-1.5832,-1.5832,-1.5832,-1.5832,-1.5832,-1.5832,-1.5832,-1.5832,-1.5832,-1.573,-1.554,-1.5267,-1.5083,-1.5083,-1.4592,-1.4394,-1.4688,-1.3613,-1.3119,-1.3022,-1.236,-1.1389,0.131,0.0074,-0.1186,-0.1558,-0.3058,-0.4635,-0.5218,-0.6738,-0.8128,-0.8624,-0.9506,-1.0591,-1.1695,-1.2671,-1.376,-1.5012,-1.5911,-1.6839,0.0,0.0,0.0,-2.107,0.0,0.0,0.0,0.0,0.0,0.0,0.0,0.0,-2.8509,-2.8314,-2.8105,-2.7776,-2.759,-2.7523,-2.7523,-2.7523,-2.7469,-2.7335,-2.7146,-2.6943,-2.6794,-2.6589,-2.6533,0.0,0.0,0.0,0.0,-2.6339,-2.627,-2.627,-2.6119,-2.5004,-2.3514,-2.3368,-2.2209,-2.0819,-2.0644,-2.0566,-2.0566,-2.0566,-2.0566,-2.0566,-2.0566,-2.0566,-2.0566,-2.0411,-2.042,-2.042,-2.042,-2.042,-2.0342,-2.0342,-1.8957,-1.7658,-1.7334,-1.5786,-1.4482,-1.4482,-1.4405,-1.425,-1.4243,-1.4166,-1.426,-1.4476,-1.4603,-1.4836,-1.5337,-1.5478,-1.5611,-1.5805,-1.5635,-1.5635,-1.5825,-1.5832,-1.573,-1.5635,-1.5635,-1.535,-1.4975,-1.4885,-1.479,-1.4592,-1.4394,-1.4004,-1.3318,-1.3022,-1.2436,-1.1755,-1.1565,-1.1375,-0.0923,-0.187,-0.2968,-0.3327,-0.4257,-0.5428,-0.6515,-0.7707,-0.8854,-0.9621,-1.0766,-1.1903,-1.2879,-1.3717,-1.4619,-1.5497,-1.6539,-1.7568,0.0,0.0,0.0,0.0,0.0,0.0,0.0,0.0,0.0,0.0,0.0,0.0,-2.8587,-2.843,-2.817,-2.7934,-2.7723,-2.759,-2.7523,-2.7523,-2.7403,-2.7268,-2.7079,-2.6875,-2.6714,-2.6589,-2.6533,0.0,0.0,0.0,0.0,-2.6339,-2.6339,-2.627,-2.6119,-2.5004,-2.3452,-2.3294,-2.2209,-2.0741,-2.0644,-2.0566,-2.0566,-2.0566,-2.0566,-2.0498,-2.0498,-2.0566,-2.0566,-2.0411,-2.0342,-2.0264,-2.0264,-2.0186,-2.0108,-2.0029,-1.8718,-1.7334,-1.7098,-1.5628,-1.4321,-1.4321,-1.4166,-1.4088,-1.4088,-1.4088,-1.4148,-1.4329,-1.4449,-1.4649,-1.5017,-1.5164,-1.5344,-1.5631,-1.5571,-1.5523,-1.5629,-1.5547,-1.5452,-1.5356,-1.5356,-1.5166,-1.4688,-1.4688,-1.4592,-1.4298,-1.4298,-1.4004,-1.3318,-1.3318,-1.3022,-1.2344,-1.1565,-1.1268,0.0,-0.3337,-0.4109,-0.4745,-0.5081,-0.5809,-0.7634,-0.8935,0.0,-1.0885,-1.2074,-1.3252,-1.4085,-1.461,-1.5264,-1.6104,-1.7202,-1.8351,0.0,-2.0665,0.0,0.0,0.0,0.0,0.0,0.0,0.0,0.0,0.0,0.0,-2.8597,-2.8336,-2.8115,-2.8011,-2.7802,-2.7644,-2.7523,-2.7523,-2.7403,-2.7268,-2.7079,-2.6875,-2.6658,-2.6589,-2.6533,0.0,0.0,0.0,0.0,-2.6465,-2.6465,-2.6465,-2.627,-2.5087,-2.3514,-2.3294,-2.2188,-2.0789,-2.0722,-2.0722,-2.0644,-2.0644,-2.0489,-2.0264,-2.0264,-2.042,-2.0566,-2.0566,-2.0411,-2.0264,-2.0264,-2.0108,-1.9784,-1.9557,-1.8238,-1.6919,-1.669,-1.5311,-1.4088,-1.4088,-1.4088,-1.4088,-1.4088,-1.4088,-1.4088,-1.4088,-1.4315,-1.4496,-1.4516,-1.4763,-1.5044,-1.5337,-1.5384,-1.5318,-1.5393,-1.5255,-1.5083,-1.5083,-1.5083,-1.4987,-1.4688,-1.4688,-1.4592,-1.4298,-1.4298,-1.4298,-1.4298,-1.4298,-1.4298,-1.4292,-1.2242,-1.1268,-0.426,0.0,-0.572,-0.6459,-0.6959,-0.7588,0.0,-0.967,-1.0571,-1.1454,-1.2266,-1.3183,-1.4373,-1.5226,-1.6079,-1.7157,-1.807,-1.916,-2.0539,0.0,0.0,0.0,0.0,0.0,0.0,0.0,0.0,0.0,0.0,-2.8034,-2.8284,-2.7598,-2.7045,-2.6894,-2.6707,-2.6956,-2.7523,-2.7523,-2.7335,-2.7079,-2.7024,-2.6807,-2.6521,-2.6533,-2.6533,0.0,0.0,0.0,-2.6465,-2.6339,-2.6201,-2.605,-2.5828,-2.5004,-2.3963,-2.3891,-2.3231,-2.236,-2.1766,-2.1538,-2.1395,-2.0789,-2.0489,-2.0264,-2.0264,-2.0186,-2.002,-1.9872,-1.9794,-1.9803,-1.9803,-1.9715,-1.9469,-1.8798,-1.7811,-1.6756,-1.5876,-1.4824,-1.4088,-1.4088,-1.4088,-1.4088,-1.4088,-1.4088,-1.4088,-1.4088,-1.4142,-1.4269,-1.4489,-1.4583,-1.4648,-1.4753,-1.4806,-1.4682,-1.4565,-1.5139,-1.5261,-1.479,-1.479,-1.4688,-1.4394,-1.4394,-1.4394,-1.4298,-1.4298,-1.4298,-1.4298,-1.4298,-1.4298,-1.4298,-1.2926,-1.2339,-0.5422,-0.5818,-0.6408,-0.726,-0.7591,-0.8107,-0.9466,-1.0275,-1.101,-1.195,0.0,-1.3965,-1.5196,-1.6158,-1.7024,0.0,-1.9185,0.0,0.0,0.0,0.0,0.0,0.0,0.0,0.0,0.0,0.0,0.0,0.0,-2.7516,-2.7699,-2.7107,-2.6688,-2.6478,-2.6356,-2.6476,-2.6804,-2.7,-2.6946,-2.6614,-2.6896,-2.6807,-2.6533,-2.6533,-2.6533,0.0,0.0,0.0,-2.6465,-2.627,-2.6131,-2.5992,-2.5676,-2.5004,-2.4264,-2.412,-2.361,-2.2957,-2.251,-2.2059,-2.1538,-2.0712,-2.0264,-1.9951,-1.9951,-1.9794,-1.9627,-1.9715,-1.9636,-1.9566,-1.9566,-1.9557,-1.9301,-1.8877,-1.806,-1.7172,-1.6206,-1.5311,-1.458,-1.4166,-1.4088,-1.4088,-1.4088,-1.4088,-1.4088,-1.4088,-1.4004,-1.3965,-1.4124,-1.4058,-1.4076,-1.4186,-1.4263,-1.4286,-1.4266,-1.4703,-1.4836,-1.4484,-1.4496,-1.449,-1.4298,-1.4298,-1.4298,-1.4298,-1.4298,-1.4298,-1.4298,-1.4298,-1.4004,-1.3511,-1.2538,-1.1755,-0.628,-0.6436,-0.6713,-0.7526,-0.7837,-0.842,-1.0034,-1.0968,-1.175,0.0,0.0,0.0,0.0,-1.7299,0.0,0.0,0.0,0.0,0.0,0.0,0.0,0.0,0.0,0.0,0.0,0.0,0.0,0.0,0.0,-2.711,-2.711,-2.6818,-2.6478,-2.627,-2.6089,-2.5967,-2.5722,-2.628,-2.6388,-2.6087,-2.6652,-2.6731,-2.6533,-2.6533,-2.6533,-2.6533,0.0,0.0,-2.6465,-2.627,-2.6131,-2.6062,-2.5758,-2.5158,-2.4492,-2.4337,-2.3829,-2.3095,-2.2883,-2.2134,-2.1165,-2.0489,-1.9951,-1.9566,-1.9566,-1.9478,-1.9381,-1.9696,-1.9715,-1.9557,-1.9557,-1.939,-1.9301,-1.9134,-1.8567,-1.7755,-1.6698,-1.5884,-1.5151,-1.425,-1.4088,-1.4088,-1.4088,-1.4088,-1.4088,-1.4088,-1.3913,-1.3737,-1.3737,-1.3568,-1.3487,-1.3716,-1.3786,-1.3824,-1.4124,-1.4106,-1.4247,-1.422,-1.4274,-1.4298,-1.4298,-1.4298,-1.4298,-1.4298,-1.41,-1.41,-1.4298,-1.4004,-1.3414,-1.2635,-1.1463,-1.0489,-0.6465,-0.6718,-0.7211,-0.7574,-0.8994,-1.0388,-1.0829,-1.2251,-1.3828,0.0,0.0,0.0,0.0,-1.8635,-1.9262,0.0,0.0,0.0,0.0,0.0,0.0,0.0,0.0,0.0,0.0,0.0,0.0,0.0,0.0,0.0,-2.6833,-2.609,-2.5474,-2.5047,-2.4945,-2.4758,-2.4569,-2.5467,-2.5999,-2.6074,-2.6164,-2.6324,-2.6533,-2.6533,-2.6533,-2.6465,0.0,-2.627,-2.6201,-2.605,-2.584,-2.5688,-2.5606,-2.5382,-2.5158,-2.5158,-2.4636,-2.3745,-2.2274,-2.1001,-2.0098,-2.002,-1.9794,-1.9566,-1.9566,-1.9478,-1.9301,-1.9381,-1.9381,-1.9381,-1.9381,-1.9301,-1.9134,-1.8407,-1.8078,-1.7594,-1.5966,-1.5477,-1.5151,-1.425,-1.4088,-1.4088,-1.4088,-1.4088,-1.4088,-1.4088,-1.4088,-1.4004,-1.4004,-1.3822,-1.358,-1.3455,-1.3492,-1.3498,-1.3325,-1.3447,-1.3688,-1.3948,-1.4171,-1.4298,-1.4298,-1.4298,-1.4298,-1.4298,-1.3414,-1.3414,-1.4298,-1.2538,-1.2047,-1.263,-1.0779,-0.9805,-0.6949,-0.7341,-0.7802,-0.8087,-0.9103,-1.0261,-1.12,-1.2618,-1.4096,0.0,0.0,0.0,0.0,0.0,-2.0752,-2.2356,0.0,0.0,0.0,0.0,0.0,0.0,0.0,0.0,0.0,0.0,0.0,0.0,0.0,0.0,-2.7142,-2.64,-2.577,-2.5453,-2.5189,-2.4865,-2.4492,-2.4741,-2.5,-2.5179,-2.578,-2.607,-2.6,-2.6382,-2.6533,-2.6465,0.0,-2.6213,-2.6213,-2.584,-2.5676,-2.5606,-2.5465,-2.5382,-2.5312,-2.5312,-2.4707,-2.3745,-2.2489,-2.1364,-2.0313,-1.9863,-1.9627,-1.9469,-1.9469,-1.939,-1.9301,-1.9301,-1.9301,-1.9301,-1.9301,-1.9301,-1.9222,-1.8807,-1.8727,-1.8238,-1.6453,-1.6131,-1.5718,-1.4334,-1.4088,-1.4082,-1.3913,-1.3906,-1.3828,-1.3737,-1.3659,-1.3568,-1.3568,-1.3307,-1.313,-1.3045,-1.3077,-1.3039,-1.3109,-1.3236,-1.3477,-1.3882,-1.4153,-1.4298,-1.4298,-1.4298,-1.4004,-1.3414,-1.2926,-1.2635,-1.2635,-1.1658,-1.117,-1.0974,-1.0096,-0.9316,-0.7423,-0.7779,-0.8154,-0.8663,-0.9338,-1.0214,-1.1451,-1.2899,-1.4281,0.0,0.0,0.0,0.0,-2.0859,0.0,0.0,0.0,0.0,0.0,0.0,0.0,0.0,0.0,0.0,0.0,0.0,0.0,0.0,0.0,0.0,-2.7464,-2.6901,-2.6428,-2.6172,-2.5823,-2.5412,-2.4921,-2.4492,-2.4268,-2.4413,-2.5409,-2.5803,-2.5611,-2.6189,-2.6465,-2.6396,-2.6201,-2.6131,-2.605,-2.5688,-2.5535,-2.5535,-2.5382,-2.5241,-2.517,-2.4791,-2.412,-2.3147,-2.2253,-2.1217,-2.0236,-1.9565,-1.9187,-1.9026,-1.9026,-1.9091,-1.9164,-1.9164,-1.9228,-1.9301,-1.9301,-1.9301,-1.9301,-1.9301,-1.9134,-1.8479,-1.6935,-1.6445,-1.5794,-1.4243,-1.3913,-1.3913,-1.3652,-1.3652,-1.3568,-1.3392,-1.3307,-1.3143,-1.3143,-1.2966,-1.279,-1.279,-1.2705,-1.2789,-1.3006,-1.3085,-1.3296,-1.3701,-1.4026,-1.4232,-1.4292,-1.4298,-1.3806,-1.2727,-1.2436,-1.195,-1.117,-1.0685,-1.0194,-0.9608,-0.9312,-0.8825,-0.7491,-0.7478,-0.774,-0.9041,-1.0328,-1.1447,-1.1808,-1.3477,0.0,-1.697,0.0,0.0,0.0,-2.3051,0.0,0.0,0.0,0.0,0.0,0.0,0.0,0.0,0.0,0.0,0.0,0.0,0.0,0.0,0.0,0.0,-2.7515,-2.7348,-2.7041,-2.6678,-2.6375,-2.6108,-2.5903,-2.505,-2.4582,-2.4413,-2.5076,-2.5434,-2.5611,-2.6189,-2.6396,-2.6213,-2.5992,-2.584,-2.5606,-2.5382,-2.5312,-2.5312,-2.5312,-2.5111,-2.4706,-2.3316,-2.2403,-2.1659,-2.0313,-1.9385,-1.8828,-1.8751,-1.8504,-1.821,-1.821,-1.8467,-1.8751,-1.8751,-1.9017,-1.9301,-1.9301,-1.9301,-1.9301,-1.9301,-1.8559,-1.7577,-1.6601,-1.5613,-1.4538,-1.3646,-1.3483,-1.3483,-1.3392,-1.3392,-1.3392,-1.3398,-1.3392,-1.3398,-1.3398,-1.3228,-1.3052,-1.3052,-1.2875,-1.2711,-1.2735,-1.297,-1.3139,-1.3181,-1.3652,-1.4045,-1.4286,-1.4298,-1.3806,-1.2727,-1.1755,-1.1268,-1.117,-0.9217,-0.8726,-0.9608,-0.8531,-0.8038,-0.7613,-0.7453,-0.7491,-0.8513,-0.9296,0.0,0.0,-1.3361,-1.5422,-1.7366,-1.9304,0.0,0.0,0.0,0.0,0.0,0.0,0.0,0.0,0.0,0.0,0.0,0.0,0.0,0.0,0.0,0.0,0.0,0.0,0.0,0.0,-2.8091,-2.773,-2.7449,-2.7093,-2.6678,-2.6215,-2.5645,-2.5271,-2.5016,-2.4745,-2.4583,-2.4619,-2.5131,-2.5249,-2.5195,-2.4835,-2.4688,-2.4621,-2.4418,-2.435,-2.435,-2.4065,-2.379,-2.3364,-2.2477,-2.16,-2.075,-1.9885,-1.9051,-1.8348,-1.8348,-1.8247,-1.8128,-1.8128,-1.8229,-1.8263,-1.8019,-1.8042,-1.8353,-1.9085,-1.9301,-1.9222,-1.9002,-1.8594,-1.7853,-1.6281,-1.5613,-1.4956,-1.3639,-1.3398,-1.3392,-1.3228,-1.3222,-1.3137,-1.2966,-1.296,-1.296,-1.296,-1.2881,-1.2875,-1.2875,-1.279,-1.2705,-1.2705,-1.2801,-1.2934,-1.3115,-1.3616,-1.3954,-1.4051,-1.4208,-1.3806,-1.2727,-1.1755,-1.0877,-1.0194,-0.8726,-0.8237,-0.8627,-0.8237,-0.8038,-0.8179,-0.7771,-0.7377,-0.8396,0.0,0.0,-1.0592,-1.2389,-1.4563,-1.7593,-2.1057,0.0,0.0,0.0,0.0,0.0,0.0,0.0,0.0,0.0,0.0,0.0,0.0,0.0,0.0,0.0,0.0,0.0,0.0,0.0,0.0,-2.87,-2.8317,-2.8189,-2.773,-2.7276,-2.6774,-2.6254,-2.5823,-2.5632,-2.4805,-2.4343,-2.4178,-2.4441,-2.4443,-2.4378,-2.4157,-2.3881,-2.3749,-2.3628,-2.3549,-2.3416,-2.3136,-2.2854,-2.2446,-2.1851,-2.1156,-2.0389,-1.9611,-1.8807,-1.8,-1.777,-1.7541,-1.736,-1.736,-1.7458,-1.7483,-1.7234,-1.7248,-1.7534,-1.8392,-1.8626,-1.8646,-1.8426,-1.7954,-1.7286,-1.5869,-1.5123,-1.4455,-1.3385,-1.3222,-1.3137,-1.2966,-1.2966,-1.2881,-1.2705,-1.2705,-1.2705,-1.2705,-1.2705,-1.2705,-1.2705,-1.2705,-1.2619,-1.2534,-1.2443,-1.2525,-1.254,-1.296,-1.3454,-1.39,-1.4081,-1.3724,-1.2727,-1.2047,-1.0974,-0.9608,-0.8821,-0.8333,-0.8038,-0.8038,-0.8038,-0.9254,-0.8297,-0.7276,0.0,0.0,0.0,-0.9376,-1.0536,-1.293,-1.7924,-2.3741,-2.7934,-2.7922,0.0,0.0,0.0,0.0,0.0,0.0,0.0,0.0,0.0,0.0,0.0,0.0,0.0,0.0,0.0,0.0,0.0,0.0,-2.906,-2.8794,-2.8794,-2.8266,-2.7955,-2.779,-2.6826,-2.6229,-2.6122,-2.5342,-2.4847,-2.4606,-2.4391,-2.421,-2.4001,-2.4001,-2.3658,-2.3191,-2.3191,-2.2977,-2.2684,-2.2684,-2.2514,-2.2125,-2.1446,-2.0956,-2.0542,-1.933,-1.8398,-1.7682,-1.7117,-1.6429,-1.5833,-1.5833,-1.6108,-1.6418,-1.6418,-1.6684,-1.696,-1.696,-1.7252,-1.7458,-1.7466,-1.6452,-1.5387,-1.5387,-1.3957,-1.2699,-1.2705,-1.2705,-1.2705,-1.2705,-1.2705,-1.2705,-1.2705,-1.2705,-1.2705,-1.2705,-1.2705,-1.2705,-1.2705,-1.2705,-1.2534,-1.2015,-1.2015,-1.1757,-1.1322,-1.1558,-1.2355,-1.3782,-1.3906,-1.3543,-1.2721,-1.2727,-1.1658,-0.9608,-0.9608,-0.9019,-0.8038,-0.8038,-0.8038,-0.7744,-0.7375,0.0,-0.7545,0.0,0.0,0.0,-1.4821,0.0,0.0,-2.7973,-2.9677,-2.9477,0.0,0.0,0.0,0.0,0.0,0.0,0.0,0.0,0.0,0.0,0.0,0.0,0.0,0.0,0.0,0.0,0.0,0.0,-2.9198,-2.8951,-2.8794,-2.8396,-2.8103,-2.7955,-2.7372,-2.7011,-2.6841,-2.5892,-2.4919,-2.4059,-2.3892,-2.3492,-2.2894,-2.2769,-2.2516,-2.2121,-2.1864,-2.1594,-2.1192,-2.1192,-2.1018,-2.0632,-2.0055,-1.9775,-1.9583,-1.8784,-1.7935,-1.7265,-1.7003,-1.6422,-1.5833,-1.5833,-1.5848,-1.5942,-1.5656,-1.566,-1.5671,-1.5381,-1.5585,-1.6002,-1.6546,-1.606,-1.5264,-1.4681,-1.3823,-1.306,-1.2747,-1.2705,-1.2705,-1.2705,-1.2705,-1.2705,-1.2705,-1.2705,-1.2613,-1.2272,-1.2186,-1.21,-1.1757,-1.1757,-1.1671,-1.1499,-1.1499,-1.1413,-1.1327,-1.1392,-1.1668,-1.2344,-1.2685,-1.2703,-1.249,-1.1884,-1.1385,-1.0699,-1.0015,-0.9126,-0.8233,-0.8233,-0.7935,-0.7865,-0.7415,0.0,-0.7418,-1.1107,-1.5628,-1.9699,0.0,0.0,0.0,0.0,-3.1635,-3.1271,0.0,0.0,0.0,0.0,0.0,0.0,0.0,0.0,0.0,0.0,0.0,0.0,0.0,0.0,0.0,0.0,0.0,0.0,-2.9805,-2.9422,-2.9075,-2.8669,-2.8286,-2.7905,-2.7539,-2.7233,-2.7093,-2.6297,-2.5329,-2.431,-2.3741,-2.31,-2.2347,-2.1788,-2.1474,-2.121,-2.0903,-2.0646,-2.0388,-2.0388,-2.0259,-2.0009,-1.966,-1.9518,-1.932,-1.8731,-1.7901,-1.706,-1.6742,-1.6044,-1.5338,-1.5338,-1.5338,-1.5267,-1.5062,-1.4991,-1.4919,-1.4641,-1.48,-1.5128,-1.5697,-1.5349,-1.465,-1.4128,-1.3366,-1.2719,-1.2583,-1.2548,-1.2578,-1.2687,-1.2528,-1.2443,-1.2443,-1.2272,-1.2015,-1.1757,-1.1757,-1.1585,-1.1322,-1.1327,-1.1235,-1.1063,-1.0982,-1.0982,-1.0809,-1.0809,-1.0876,-1.102,-1.1732,-1.2199,-1.2388,-1.196,-1.1497,-1.1194,-1.0212,-0.9324,-0.8432,-0.8031,-0.7633,-0.889,-0.8084,-0.7381,-0.8631,-1.2427,0.0,-2.7496,-2.8977,-2.8357,-2.8142,0.0,-3.3533,0.0,0.0,0.0,0.0,0.0,0.0,0.0,0.0,0.0,0.0,0.0,0.0,0.0,0.0,0.0,0.0,0.0,0.0,0.0,-3.0633,-3.0117,-2.9496,-2.9057,-2.8512,-2.789,-2.7423,-2.713,-2.7003,-2.6525,-2.596,-2.5231,-2.3949,-2.3015,-2.231,-2.1135,-2.0571,-2.0582,-2.0205,-2.0085,-2.0074,-2.0074,-2.0009,-1.9868,-1.9868,-1.9747,-1.955,-1.9008,-1.8094,-1.7111,-1.6507,-1.5613,-1.4713,-1.4641,-1.4569,-1.4569,-1.4569,-1.4569,-1.4569,-1.4569,-1.4569,-1.472,-1.5062,-1.4455,-1.3818,-1.3768,-1.2831,-1.2043,-1.2228,-1.2276,-1.2361,-1.262,-1.2237,-1.1986,-1.1923,-1.158,-1.1322,-1.1241,-1.1241,-1.1235,-1.1154,-1.1154,-1.0982,-1.0549,-1.0549,-1.0381,-1.0038,-1.0038,-1.0038,-1.0038,-1.104,-1.1807,-1.2224,-1.225,-1.1908,-1.1165,-1.0373,-0.9395,-0.8432,-0.7637,-0.7238,-0.7599,-0.7979,0.0,0.0,-1.9597,-2.7346,-3.2984,-3.4079,-3.3802,-3.3526,-3.3829,-3.4041,0.0,0.0,0.0,0.0,0.0,0.0,0.0,0.0,0.0,0.0,0.0,0.0,0.0,0.0,0.0,0.0,0.0,0.0,-3.1189,-3.0771,-3.036,-2.9935,-2.9164,-2.8591,-2.8334,-2.756,-2.713,0.0,-2.6525,-2.6136,-2.5715,-2.4667,-2.3492,-2.2113,-2.1071,-2.0518,-2.0399,-2.0074,-1.9878,-1.9681,-1.9681,-1.9671,-1.9671,-1.9671,-1.9615,-1.955,-1.9274,-1.8654,-1.7823,-1.7001,-1.6245,-1.5409,-1.4776,-1.4569,-1.4569,-1.4569,-1.4569,-1.4569,-1.4569,-1.4569,-1.4585,-1.4736,-1.4217,-1.3748,-1.3473,-1.2832,-1.222,-1.203,-1.2005,-1.2089,-1.2355,-1.1974,-1.1624,-1.1472,-1.1322,-1.1154,-1.0809,-1.0722,-1.0636,-1.0294,-1.0294,-1.0212,-1.012,-1.0125,-1.0125,-1.0038,-1.0038,-1.0038,-1.0038,-1.0425,-1.0675,-1.0763,-1.0925,-1.1027,-1.0962,-1.018,-0.9377,-0.8726,-0.7928,-0.7132,-0.7699,0.0,0.0,-1.9904,0.0,-2.9874,-3.4662,-3.5417,-3.5044,-3.4766,-3.4732,0.0,0.0,0.0,0.0,0.0,0.0,0.0,0.0,0.0,0.0,0.0,0.0,0.0,0.0,0.0,0.0,0.0,0.0,-3.2419,-3.186,-3.1548,-3.1111,-3.051,-2.9903,-2.9374,-2.8919,-2.8271,-2.7845,-2.761,-2.6774,-2.6028,-2.523,-2.4452,-2.3255,-2.1803,-2.1123,-2.0635,-2.0216,-1.9998,-1.9868,-1.9736,-1.9671,-1.9539,-1.9483,-1.9483,-1.9417,-1.9341,-1.9208,-1.8721,-1.8037,-1.755,-1.6664,-1.5692,-1.5196,-1.4776,-1.4497,-1.4425,-1.4353,-1.4353,-1.4353,-1.4353,-1.4353,-1.4353,-1.4049,-1.374,-1.3474,-1.2981,-1.2461,-1.1823,-1.18,-1.1805,-1.1584,-1.1233,-1.0852,-1.0549,-1.057,-1.0554,-1.0381,-1.0294,-1.0207,-1.0038,-1.0038,-1.0038,-1.0038,-1.0038,-1.0038,-1.0038,-1.0038,-1.0038,-1.0038,-1.006,-1.0075,-0.9818,-0.9917,-0.9877,-0.9789,-0.9013,-0.8519,-0.8119,-0.74,-0.6833,-0.9832,0.0,-2.2207,-2.7197,-2.8859,0.0,-3.464,-3.4966,-3.4319,-3.4119,0.0,0.0,0.0,0.0,0.0,0.0,0.0,0.0,0.0,0.0,0.0,0.0,0.0,0.0,0.0,0.0,0.0,0.0,0.0,-3.3006,-3.2573,-3.2404,-3.1896,-3.1033,-3.0697,-3.0218,-2.9451,-2.8904,-2.8496,-2.8207,-2.7004,-2.5811,-2.4563,-2.3956,-2.3027,-2.1803,-2.1313,-2.07,-2.014,-1.9868,-1.9736,-1.9671,-1.9539,-1.9341,-1.9152,-1.9152,-1.9075,-1.9008,-1.9008,-1.8596,-1.8046,-1.7969,-1.7079,-1.5974,-1.5613,-1.5054,-1.4497,-1.4201,-1.4129,-1.4129,-1.4129,-1.4129,-1.4129,-1.4129,-1.3977,-1.3768,-1.3492,-1.3193,-1.2674,-1.1618,-1.1473,-1.1337,-1.0599,-1.0346,-1.01,-0.9639,-0.979,-0.9908,-1.0033,-1.0038,-1.0038,-1.0038,-1.0038,-1.0038,-1.0038,-1.0038,-1.0038,-1.0038,-1.0038,-1.0038,-1.0038,-0.9864,-0.9499,-0.8943,-0.9041,-0.8943,-0.8656,-0.7855,-0.7452,-0.7481,-0.6744,-0.6407,-1.6344,0.0,-2.6791,0.0,-3.1544,-3.3851,0.0,0.0,-3.3431,0.0,0.0,0.0,0.0,0.0,0.0,0.0,0.0,0.0,0.0,0.0,0.0,0.0,0.0,0.0,0.0,0.0,0.0,0.0,-3.3397,-3.3081,-3.2781,-3.2403,-3.2002,-3.1524,-3.0747,-3.0107,-2.9585,-2.8873,-2.8286,-2.7825,-2.6707,-2.5591,-2.462,-2.4216,-2.3543,-2.2677,-2.1451,-2.07,-2.0302,-1.9671,-1.9208,-1.8942,-1.8942,-1.8808,-1.8617,-1.8617,-1.8617,-1.8549,-1.8549,-1.8549,-1.8337,-1.7716,-1.7373,-1.6959,-1.5621,-1.5196,-1.4919,-1.4274,-1.4129,-1.4129,-1.4129,-1.4129,-1.4129,-1.4129,-1.4057,-1.3912,-1.3339,-1.32,-1.276,-1.1378,-1.0812,-1.0355,-0.9838,-0.9948,-0.9921,-0.962,-0.9667,-0.9752,-0.9927,-1.0038,-1.0038,-1.0038,-1.0038,-1.0038,-1.0038,-1.0038,-1.0038,-1.0038,-1.0038,-1.0038,-1.0038,-0.9419,-0.8727,-0.8044,-0.8572,-0.9025,-0.9125,-0.7777,-0.7118,-0.7338,-0.662,-0.629,-2.526,-2.6846,-2.8085,0.0,-3.3375,-3.4399,-3.4017,0.0,-3.2597,0.0,0.0,0.0,0.0,0.0,0.0,0.0,0.0,0.0,0.0,0.0,0.0,0.0,0.0,0.0,0.0,0.0,0.0,0.0,-3.3652,-3.3379,-3.3032,-3.2702,-3.2266,-3.1841,-3.1278,-3.0683,-3.0097,-2.9617,-2.8779,-2.773,-2.6768,-2.5809,-2.4921,-2.4274,-2.3556,-2.2859,-2.1753,-2.1008,-2.0442,-1.9671,-1.9208,-1.9075,-1.8875,-1.8751,-1.8684,-1.8549,-1.8482,-1.8482,-1.8482,-1.8482,-1.8482,-1.8134,-1.7725,-1.7166,-1.6026,-1.533,-1.484,-1.3985,-1.3775,-1.3775,-1.3775,-1.3775,-1.3775,-1.3775,-1.3775,-1.3702,-1.3419,-1.3564,-1.3251,-1.1613,-1.029,-0.9376,-0.9145,-0.9252,-0.9465,-0.9436,-0.9568,-0.9719,-0.9927,-1.0038,-1.0038,-1.0038,-1.0038,-1.0038,-1.0038,-1.0038,-1.0038,-1.0038,-1.0038,-1.0038,-1.0038,-0.9331,-0.8715,-0.8448,-0.7921,-0.7521,-0.7241,-0.6687,-0.6388,-0.6542,-0.6297,-0.6203,0.0,0.0,-2.87,-3.2693,-3.3604,-3.3429,0.0,0.0,-3.1757,0.0,0.0,0.0,0.0,0.0,0.0,0.0,0.0,0.0,0.0,0.0,0.0,0.0,0.0,0.0,0.0,0.0,0.0,0.0,-3.3902,-3.3652,-3.3268,-3.2894,-3.2486,-3.2074,-3.1674,-3.1117,-3.0468,-2.9957,-2.9012,-2.7685,-2.6739,-2.5889,-2.5119,-2.4203,-2.345,-2.2932,-2.2113,-2.1365,-2.0624,-1.9791,-1.9274,-1.9008,-1.8741,-1.8607,-1.8607,-1.8414,-1.8347,-1.8347,-1.8347,-1.8347,-1.8347,-1.8347,-1.7998,-1.7373,-1.6228,-1.5525,-1.4903,-1.3775,-1.3492,-1.3492,-1.3492,-1.3492,-1.3492,-1.3492,-1.3492,-1.3492,-1.3492,-1.3404,-1.2945,-1.1607,-0.9895,-0.8703,-0.8703,-0.8836,-0.9011,-0.9219,-0.9349,-0.9555,-0.9761,-0.9831,-0.9864,-0.9864,-0.9864,-0.9864,-0.9864,-0.9864,-0.9864,-0.9864,-0.9864,-0.9864,-0.9864,-0.889,-0.836,-0.836,-0.6953,-0.6074,-0.5997,-0.5907,-0.586,-0.5863,-0.5983,-0.6089,0.0,-2.9775,0.0,-3.1518,-3.1414,0.0,0.0,0.0,0.0,0.0,0.0,0.0,0.0,0.0,0.0,0.0,0.0,0.0,0.0,0.0,0.0,0.0,0.0,0.0,0.0,0.0,0.0,0.0,-3.4093,-3.3753,-3.3393,-3.2943,-3.2537,-3.2214,-3.1637,-3.1004,-3.0309,-2.935,-2.8446,-2.7685,-2.6582,-2.5645,-2.4951,-2.3897,-2.333,-2.3065,-2.2567,-2.1791,-2.076,-2.002,-1.9187,-1.8337,-1.8337,-1.8202,-1.8008,-1.8008,-1.8008,-1.8008,-1.8008,-1.8008,-1.8008,-1.8008,-1.8008,-1.7657,-1.6167,-1.5675,-1.5392,-1.392,-1.3492,-1.3492,-1.3492,-1.3492,-1.3492,-1.3492,-1.3492,-1.3492,-1.3492,-1.2298,-1.126,-1.1105,-0.983,-0.8703,-0.8703,-0.8713,-0.8789,-0.9006,-0.9052,-0.9096,-0.9301,-0.932,-0.9349,-0.9349,-0.9349,-0.9432,-0.9602,-0.9602,-0.9602,-0.9602,-0.9602,-0.9515,-0.9349,-0.7749,-0.6868,-0.6868,-0.5272,-0.5186,-0.6779,-0.6088,-0.5741,-0.5744,-0.5858,-0.5915,0.0,0.0,0.0,-3.0034,-3.042,-3.0568,-3.0462,-3.063,0.0,0.0,0.0,0.0,0.0,0.0,0.0,0.0,0.0,0.0,0.0,0.0,0.0,0.0,0.0,0.0,0.0,0.0,0.0,0.0,0.0,-3.4292,-3.3865,-3.3524,-3.3009,-3.2283,-3.1877,-3.1145,-3.0011,-2.9227,-2.8542,-2.7879,-2.7078,-2.6172,-2.5119,-2.4221,-2.3484,-2.2969,-2.2482,-2.1889,-2.1227,-2.0096,-1.9396,-1.8921,-1.8337,-1.7998,-1.7784,-1.7784,-1.7784,-1.7862,-1.794,-1.8008,-1.8008,-1.8008,-1.8008,-1.7725,-1.6097,-1.5604,-1.5251,-1.355,-1.3119,-1.3119,-1.3119,-1.3119,-1.3119,-1.3119,-1.3119,-1.3119,-1.3119,-1.1916,-1.0944,-1.0944,-0.9528,-0.8327,-0.8327,-0.8327,-0.8394,-0.8593,-0.8604,-0.8765,-0.9092,-0.911,-0.9117,-0.9244,-0.9262,-0.9345,-0.9432,-0.9432,-0.9432,-0.9432,-0.9432,-0.9345,-0.9262,-0.8285,-0.7665,-0.7665,-0.6074,-0.5186,-0.5186,-0.4924,-0.4835,-0.4837,-0.4871,-0.5103,-2.9068,-2.852,0.0,0.0,-2.8892,-2.9356,-2.9465,0.0,0.0,0.0,0.0,0.0,0.0,0.0,0.0,0.0,0.0,0.0,0.0,0.0,0.0,0.0,0.0,0.0,0.0,0.0,0.0,0.0,0.0,0.0,-3.387,-3.3827,-3.332,-3.2316,-3.1806,-3.101,-2.9793,-2.909,-2.8431,-2.7925,-2.7078,-2.6119,-2.505,-2.4208,-2.3352,-2.2531,-2.2223,-2.1839,-2.1313,-2.0302,-1.9518,-1.8911,-1.8337,-1.793,-1.7647,-1.7647,-1.7647,-1.7647,-1.7803,-1.7803,-1.7803,-1.7803,-1.7803,-1.752,-1.5895,-1.5401,-1.5046,-1.3404,-1.29,-1.29,-1.29,-1.29,-1.29,-1.29,-1.29,-1.29,-1.29,-1.1761,-1.0708,-1.0708,-0.9296,-0.8102,-0.8102,-0.8102,-0.8146,-0.8269,-0.8265,-0.8421,-0.8743,-0.8755,-0.8867,-0.9065,-0.9087,-0.9087,-0.9174,-0.9174,-0.9174,-0.9174,-0.9174,-0.8995,-0.8552,-0.7757,-0.7224,-0.6868,-0.5453,-0.4476,-0.3855,-0.4121,-0.43,-0.43,-0.43,-0.4527,0.0,0.0,0.0,0.0,0.0,0.0,-2.9026,0.0,-2.9747,0.0,0.0,0.0,0.0,0.0,0.0,0.0,0.0,0.0,0.0,0.0,0.0,0.0,0.0,0.0,0.0,0.0,0.0,0.0,-3.3336,-3.3608,-3.3411,-3.378,-3.3451,-3.2263,-3.1367,-3.0551,-2.9793,-2.8858,-2.822,-2.774,-2.6453,-2.5522,-2.4854,-2.3826,-2.2823,-2.1877,-2.1889,-2.1514,-2.0903,-2.056,-1.9584,-1.8337,-1.8337,-1.794,-1.747,-1.747,-1.747,-1.747,-1.747,-1.747,-1.747,-1.747,-1.747,-1.7185,-1.563,-1.5196,-1.484,-1.3331,-1.29,-1.29,-1.29,-1.29,-1.29,-1.29,-1.29,-1.29,-1.29,-1.162,-1.049,-1.0484,-0.9226,-0.8102,-0.8102,-0.8102,-0.8102,-0.8102,-0.8104,-0.8133,-0.8246,-0.8258,-0.8357,-0.8548,-0.8568,-0.8652,-0.8911,-0.8911,-0.8911,-0.8911,-0.8823,-0.8292,-0.7139,-0.6163,-0.5275,-0.4387,-0.3409,-0.2963,-0.2963,-0.3855,-0.43,-0.43,-0.4297,-0.4346,-2.7006,0.0,0.0,0.0,0.0,0.0,-2.7498,-2.8593,-2.9572,0.0,0.0,0.0,0.0,0.0,0.0,0.0,0.0,0.0,0.0,0.0,0.0,0.0,0.0,0.0,0.0,0.0,0.0,0.0,-3.2923,-3.3465,-3.3747,-3.3819,-3.3378,-3.2384,-3.1448,-3.0597,-2.9876,-2.8997,-2.8107,-2.7291,-2.6849,-2.5795,-2.4239,-2.3728,-2.2847,-2.1714,-2.1094,-2.0775,-2.0635,-2.0302,-1.9835,-1.932,-1.8405,-1.793,-1.7647,-1.7382,-1.7314,-1.7314,-1.747,-1.747,-1.747,-1.747,-1.747,-1.7185,-1.5471,-1.4974,-1.4617,-1.2959,-1.2452,-1.2452,-1.2452,-1.2452,-1.2452,-1.2452,-1.2452,-1.2452,-1.2452,-1.1626,-1.0801,-1.034,-0.8841,-0.7638,-0.7638,-0.7638,-0.7638,-0.7638,-0.7679,-0.775,-0.8057,-0.8061,-0.8215,-0.8532,-0.8568,-0.8656,-0.8652,-0.8652,-0.8652,-0.8652,-0.8028,-0.7404,-0.7139,-0.6163,-0.5542,-0.5275,-0.4389,-0.3944,-0.3944,-0.3499,-0.332,-0.332,-0.3676,-0.3599,-2.6573,-2.5902,-2.5534,-2.5542,0.0,0.0,-2.7267,-2.8226,-2.9155,0.0,0.0,0.0,0.0,0.0,0.0,0.0,0.0,0.0,0.0,0.0,0.0,0.0,0.0,0.0,0.0,-3.1214,-3.1496,-3.1457,-3.2205,-3.3024,-3.3867,-3.3695,-3.3395,-3.3003,-3.1776,-3.0785,-3.0112,-2.881,-2.778,-2.7004,-2.6549,-2.5563,-2.4208,-2.361,-2.2713,-2.1639,-2.0775,-2.0335,-2.0313,-2.0118,-1.9715,-1.9177,-1.8452,-1.7852,-1.7304,-1.6959,-1.6821,-1.6821,-1.6968,-1.6978,-1.7047,-1.7185,-1.7263,-1.6978,-1.5692,-1.4966,-1.4386,-1.3018,-1.2445,-1.2157,-1.2305,-1.2305,-1.2305,-1.2305,-1.2305,-1.2305,-1.2305,-1.1706,-1.0881,-1.0196,-0.8917,-0.7863,-0.7561,-0.7484,-0.7484,-0.7484,-0.7484,-0.7586,-0.787,-0.7967,-0.8126,-0.8422,-0.8519,-0.8568,-0.8568,-0.8568,-0.8388,-0.8032,-0.7408,-0.6786,-0.5985,-0.5364,-0.4921,-0.4565,-0.4032,-0.3676,-0.3676,-0.3142,-0.2875,-0.2875,-0.3142,-0.3141,-2.6086,-2.5613,-2.5584,-2.5584,-2.5581,0.0,-2.7556,-2.7987,-2.8496,-3.0054,0.0,0.0,0.0,0.0,0.0,0.0,0.0,0.0,0.0,0.0,0.0,0.0,0.0,0.0,-3.0813,-3.0792,-3.0774,-3.0739,-3.1457,-3.242,-3.3548,-3.3474,-3.3332,-3.3201,-3.2027,-3.0908,-2.9889,-2.8294,-2.7261,-2.6797,-2.5948,-2.5131,-2.4394,-2.3505,-2.2543,-2.1553,-2.07,-2.014,-1.9868,-1.9868,-1.933,-1.8643,-1.8509,-1.7842,-1.6908,-1.6412,-1.6272,-1.6272,-1.6272,-1.6272,-1.6342,-1.6691,-1.6769,-1.6691,-1.5833,-1.4958,-1.4091,-1.331,-1.2586,-1.2077,-1.2231,-1.2305,-1.2305,-1.2298,-1.2305,-1.2224,-1.2224,-1.1632,-1.0807,-0.997,-0.9226,-0.8475,-0.7638,-0.7484,-0.7484,-0.7484,-0.7484,-0.7549,-0.7736,-0.7906,-0.8085,-0.8272,-0.8455,-0.8568,-0.8388,-0.8388,-0.794,-0.6959,-0.6782,-0.5985,-0.4297,-0.4119,-0.3676,-0.2873,-0.2873,-0.2875,-0.2875,-0.2875,-0.2875,-0.2875,-0.2875,-0.2875,-2.6834,0.0,0.0,0.0,0.0,0.0,-2.6034,-2.666,-2.7265,0.0,0.0,0.0,0.0,0.0,0.0,0.0,0.0,0.0,0.0,0.0,0.0,0.0,0.0,0.0,-3.0878,-3.0837,-3.0818,-3.0859,-3.1562,-3.1923,-3.1816,-3.3218,-3.2628,-2.9532,-3.0962,-3.0142,-2.6718,-2.722,-2.7004,-2.6096,-2.5784,-2.516,-2.4118,-2.3148,-2.2237,-2.1388,-2.0248,-1.9736,-1.9671,-1.9473,-1.9407,-1.9264,-1.8442,-1.7833,-1.7432,-1.6324,-1.5903,-1.5903,-1.5903,-1.6053,-1.6272,-1.6053,-1.6193,-1.6123,-1.4609,-1.3962,-1.3593,-1.2512,-1.215,-1.2077,-1.2231,-1.215,-1.2077,-1.2224,-1.2077,-1.1855,-1.2003,-1.1323,-1.0346,-0.9599,-0.8998,-0.8399,-0.7411,-0.7411,-0.7407,-0.7257,-0.7407,-0.7549,-0.7736,-0.7906,-0.8085,-0.8272,-0.8455,-0.8208,-0.7224,-0.7136,-0.6688,-0.5442,-0.4734,-0.4113,-0.3758,-0.3136,-0.2782,-0.2603,-0.2784,-0.2875,-0.2875,-0.2875,-0.2875,-0.2875,-0.2875,-0.2875,0.0,0.0,0.0,-2.5537,0.0,0.0,0.0,-2.6493,-2.6922,-2.7397,0.0,0.0,0.0,0.0,0.0,0.0,0.0,0.0,0.0,0.0,0.0,0.0,0.0,0.0,-3.0859,-3.0818,-3.0765,-3.0711,-3.1001,-3.125,-3.1347,-3.2215,-3.1358,-2.8426,-2.8941,-2.8068,-2.5596,-2.5438,-2.5423,-2.5646,-2.5384,-2.4835,-2.4086,-2.322,-2.2421,-2.1577,-2.0495,-1.9791,-1.9407,-1.9341,-1.9341,-1.9274,-1.825,-1.7423,-1.6664,-1.5833,-1.548,-1.548,-1.548,-1.563,-1.5771,-1.5762,-1.5903,-1.5833,-1.4681,-1.3738,-1.2938,-1.1996,-1.1706,-1.1781,-1.1929,-1.1929,-1.1855,-1.2003,-1.1855,-1.1706,-1.1855,-1.1168,-1.0265,-0.9448,-0.8846,-0.8089,-0.7176,-0.7253,-0.7334,-0.718,-0.7407,-0.7516,-0.7536,-0.7613,-0.7706,-0.7803,-0.7975,-0.7937,-0.7397,-0.7316,-0.6691,-0.5087,-0.4554,-0.3844,-0.2956,-0.2602,-0.2603,-0.2694,-0.2873,-0.2875,-0.2875,-0.2875,-0.2875,-0.2875,-0.2875,-0.2875,0.0,0.0,0.0,0.0,0.0,-2.5739,0.0,0.0,0.0,0.0,0.0,0.0,0.0,0.0,0.0,0.0,0.0,0.0,0.0,0.0,0.0,0.0,0.0,0.0,0.0,-3.0501,-3.0497,-3.0524,-3.0296,-3.0451,-3.1164,-3.1237,-3.0289,-2.8164,-2.7145,-2.6091,-2.497,-2.3575,-2.356,-2.4881,-2.4624,-2.4376,-2.4054,-2.3412,-2.2665,-2.1815,-2.0805,-1.9911,-1.9274,-1.9218,-1.9075,-1.8787,-1.7901,-1.6941,-1.5974,-1.5338,-1.5062,-1.5062,-1.5062,-1.5133,-1.5275,-1.548,-1.548,-1.533,-1.4689,-1.3593,-1.2352,-1.1626,-1.1409,-1.1484,-1.1632,-1.1706,-1.1632,-1.1706,-1.1632,-1.1632,-1.1632,-1.0875,-0.997,-0.9296,-0.8389,-0.7548,-0.6942,-0.7022,-0.7103,-0.7103,-0.7253,-0.733,-0.718,-0.7246,-0.7323,-0.7304,-0.7487,-0.7569,-0.7526,-0.7566,-0.6691,-0.4732,-0.4554,-0.3844,-0.2154,-0.2243,-0.2513,-0.2784,-0.2784,-0.2784,-0.2784,-0.2784,-0.2784,-0.2875,-0.2875,-0.2875,0.0,0.0,0.0,0.0,-2.6192,0.0,0.0,0.0,-2.558,-2.5674,0.0,0.0,0.0,0.0,0.0,0.0,0.0,0.0,0.0,0.0,0.0,0.0,0.0,0.0,0.0,-2.9487,-2.9718,-3.0525,-2.9752,-2.9612,-3.0469,-3.1124,-3.0228,-2.7499,-2.6953,-2.5672,-2.3475,-2.23,-2.2152,-2.311,-2.3361,-2.3577,-2.3793,-2.3339,-2.2531,-2.1553,-2.0549,-1.9781,-1.9142,-1.8942,-1.8596,-1.8037,-1.7394,-1.6982,-1.6585,-1.5196,-1.4641,-1.4641,-1.4641,-1.4919,-1.5133,-1.4848,-1.441,-1.3905,-1.3331,-1.2592,-1.2003,-1.1558,-1.1409,-1.1484,-1.1632,-1.1558,-1.1484,-1.1632,-1.1409,-1.1186,-1.1409,-1.0132,-0.8851,-0.8775,-0.7557,-0.6567,-0.6637,-0.6791,-0.6865,-0.6718,-0.6865,-0.6942,-0.6942,-0.7089,-0.7122,-0.714,-0.7416,-0.7175,-0.6153,-0.6177,-0.5359,-0.3312,-0.3135,-0.2598,-0.1525,-0.1705,-0.1974,-0.2244,-0.2244,-0.2244,-0.2244,-0.2244,-0.2513,-0.2875,-0.2875,-0.2875,0.0,0.0,0.0,0.0,0.0,0.0,-2.6708,0.0,-2.6627,0.0,0.0,0.0,0.0,0.0,0.0,0.0,-2.6249,0.0,0.0,0.0,0.0,0.0,0.0,0.0,0.0,0.0,0.0,0.0,-2.9979,-2.9901,-3.0359,-3.0618,-2.946,-2.6637,-2.6905,-2.5296,-2.1541,-2.2179,-2.2266,-2.1747,-2.2603,-2.3088,-2.3258,-2.3258,-2.2567,-2.1313,-2.0719,-1.989,-1.8942,-1.8674,-1.8259,-1.7609,-1.6913,-1.6507,-1.6105,-1.4919,-1.4497,-1.4569,-1.4497,-1.4641,-1.4848,-1.4641,-1.3985,-1.3258,-1.2973,-1.2224,-1.1409,-1.126,-1.126,-1.126,-1.1335,-1.126,-1.126,-1.1335,-1.1186,-1.1111,-1.1186,-0.9906,-0.8703,-0.8703,-0.7407,-0.6338,-0.6412,-0.6563,-0.6714,-0.6641,-0.6788,-0.6865,-0.6714,-0.6772,-0.6774,-0.6784,-0.6912,-0.6908,-0.6481,-0.6614,-0.5802,-0.3846,-0.2686,-0.1883,-0.1615,-0.1705,-0.1885,-0.2154,-0.2243,-0.2243,-0.2243,-0.2243,-0.2334,-0.2513,-0.2513,-0.2513,-2.928,0.0,0.0,0.0,0.0,0.0,0.0,0.0,0.0,0.0,0.0,0.0,0.0,0.0,0.0,-2.5407,0.0,-2.6193,0.0,0.0,0.0,0.0,0.0,0.0,0.0,0.0,0.0,0.0,0.0,-2.9978,-3.0355,-3.0254,-2.9259,-2.721,-2.7064,-2.5116,-2.116,-2.2073,-2.1852,-2.052,-2.1794,-2.2555,-2.286,-2.315,-2.2506,-2.0985,-2.0771,-1.9944,-1.8674,-1.8549,-1.8124,-1.7619,-1.6576,-1.6097,-1.5824,-1.4705,-1.4425,-1.4497,-1.4353,-1.4274,-1.4122,-1.4194,-1.347,-1.2592,-1.2526,-1.1855,-1.1186,-1.1111,-1.1111,-1.1037,-1.0962,-1.0962,-1.0887,-1.0812,-1.0738,-1.0738,-1.0657,-0.9528,-0.847,-0.8399,-0.7253,-0.6338,-0.6338,-0.6412,-0.6486,-0.6486,-0.6641,-0.6714,-0.6563,-0.6486,-0.6528,-0.6482,-0.6549,-0.6615,-0.6508,-0.656,-0.5857,-0.4022,-0.2329,-0.1525,-0.1705,-0.1705,-0.1794,-0.1974,-0.1974,-0.1974,-0.1974,-0.1974,-0.1974,-0.1974,-0.2154,-0.2243,0.0,0.0,0.0,-2.8415,0.0,0.0,0.0,0.0,-2.7301,0.0,0.0,0.0,0.0,0.0,-2.5858,-2.5215,-2.5254,0.0,0.0,0.0,0.0,0.0,0.0,0.0,0.0,0.0,0.0,0.0,0.0,0.0,-3.0254,-3.0235,-3.0158,-3.0075,-2.746,-2.5139,-2.3209,-2.1465,-2.0158,-1.9291,-2.0707,-2.1901,-2.2739,-2.2969,-2.2298,-2.0824,-2.0451,-1.9628,-1.8482,-1.8337,-1.8337,-1.8269,-1.6636,-1.6149,-1.6097,-1.4625,-1.4209,-1.4361,-1.4201,-1.3608,-1.3011,-1.3164,-1.2565,-1.1681,-1.1477,-1.1409,-1.1335,-1.1186,-1.1111,-1.1037,-1.0588,-1.0513,-1.0443,-0.9992,-0.9922,-0.9841,-0.9453,-0.8689,-0.8008,-0.7633,-0.6872,-0.6338,-0.6338,-0.6338,-0.6338,-0.6338,-0.6338,-0.6338,-0.6338,-0.6338,-0.6342,-0.6345,-0.6393,-0.6212,-0.5432,-0.5472,-0.4809,-0.3041,-0.1973,-0.1436,-0.1436,-0.1436,-0.1436,-0.1436,-0.1436,-0.1436,-0.1436,-0.1436,-0.1436,-0.1436,-0.1974,-0.2243,0.0,0.0,-3.1644,-2.995,0.0,0.0,0.0,0.0,0.0,0.0,0.0,0.0,0.0,0.0,-2.6486,-2.5849,-2.586,-2.583,0.0,0.0,0.0,0.0,0.0,0.0,0.0,0.0,0.0,0.0,-2.9442,0.0,0.0,-3.0286,-3.0241,-3.0203,-2.9879,-2.7308,-2.2304,-2.3489,-2.2167,-1.8322,-2.0224,-2.1588,-2.2371,-2.2334,-2.1678,-2.0473,-1.989,-1.9177,-1.8337,-1.8212,-1.751,-1.6585,-1.6018,-1.5321,-1.4561,-1.4072,-1.4,-1.4201,-1.4129,-1.384,-1.3404,-1.3091,-1.2498,-1.1774,-1.118,-1.0738,-1.0368,-1.0293,-1.0293,-1.0293,-1.0143,-1.0067,-1.0067,-0.9922,-0.9614,-0.9231,-0.915,-0.8232,-0.7395,-0.7173,-0.656,-0.6022,-0.587,-0.5873,-0.5948,-0.6261,-0.618,-0.6099,-0.6261,-0.6338,-0.6338,-0.6338,-0.5912,-0.5523,-0.5241,-0.4324,-0.35,-0.2953,-0.1973,-0.1436,-0.1436,-0.1436,-0.1436,-0.1436,-0.1436,-0.1436,-0.1436,-0.1436,-0.1436,-0.1436,-0.1615,-0.1705,-3.1916,-3.2286,0.0,-3.1035,-3.1209,0.0,-2.9871,0.0,0.0,0.0,0.0,0.0,0.0,0.0,-2.7177,-2.6829,-2.6397,-2.588,0.0,-2.2039,0.0,0.0,0.0,0.0,0.0,0.0,0.0,-2.7187,-2.869,-2.9836,0.0,0.0,-3.0286,-3.0235,-3.088,-2.8781,-2.3735,-2.4619,-2.3196,-1.9501,-2.0187,-2.1049,-2.1925,-2.2025,-2.1376,-2.015,-1.9683,-1.8967,-1.8056,-1.793,-1.7148,-1.6018,-1.5745,-1.4974,-1.3928,-1.379,-1.3783,-1.392,-1.3992,-1.3484,-1.282,-1.2498,-1.1687,-1.0732,-1.0363,-0.9992,-0.9695,-0.9846,-0.9922,-0.9846,-0.9695,-0.9539,-0.9306,-0.9155,-0.8694,-0.8237,-0.8003,-0.7391,-0.678,-0.6479,-0.6096,-0.5789,-0.5637,-0.5559,-0.5637,-0.6025,-0.5944,-0.5941,-0.6103,-0.6257,-0.618,-0.5867,-0.5393,-0.4914,-0.4342,-0.3057,-0.2278,-0.2327,-0.1793,-0.1436,-0.1436,-0.1436,-0.1436,-0.1436,-0.1436,-0.1436,-0.1436,-0.1436,-0.1436,-0.1436,-0.1436,-0.1436]},{"header":{"parameterUnit":"m.s-1","parameterCategory":1,"la1":30.6,"la2":29.2853,"lo1":-89.7004,"lo2":-87.6739,"dy":0.0162,"dx":0.0183,"nx":112,"ny":82,"refTime":"2024-05-14T12:00:00:Z","depth":0,"parameterNumber":3,"parameterNumberName":"V-component_of_WINDS"},"data":[0.0,0.0,0.0,0.0,0.0,0.0,0.0,0.0,0.0,0.0,0.0,0.0,0.0,0.0,0.0,0.0,0.0,0.0,0.0,0.0,0.0,0.0,0.0,0.0,0.0,0.0,0.0,0.0,0.0,0.0,0.0,0.0,0.0,0.0,0.0,0.0,0.0,0.0,0.0,0.0,0.0,0.0,0.0,0.0,0.0,0.0,0.0,0.0,0.0,0.0,0.0,0.0,0.0,0.0,0.0,0.0,0.0,0.0,0.0,0.0,0.0,0.0,0.0,0.0,0.0,0.0,0.0,0.0,0.0,0.0,0.0,0.0,0.0,0.0,0.0,0.0,0.0,0.0,0.0,0.0,0.0,0.0,0.0,0.0,0.0,0.0,0.0,0.0,0.0,0.0,-3.6083,-3.6349,-3.8361,-3.9649,-3.9529,-3.9524,-3.8552,-3.6241,0.0,0.0,0.0,0.0,0.0,0.0,0.0,0.0,0.0,0.0,0.0,0.0,0.0,0.0,0.0,0.0,0.0,0.0,0.0,0.0,0.0,0.0,0.0,0.0,0.0,0.0,0.0,0.0,0.0,0.0,0.0,0.0,0.0,0.0,0.0,0.0,0.0,0.0,0.0,0.0,0.0,0.0,0.0,0.0,0.0,0.0,0.0,0.0,0.0,0.0,0.0,0.0,0.0,0.0,0.0,0.0,0.0,0.0,0.0,0.0,0.0,0.0,0.0,0.0,0.0,0.0,0.0,0.0,0.0,0.0,0.0,0.0,0.0,0.0,0.0,0.0,0.0,0.0,0.0,0.0,0.0,0.0,0.0,0.0,0.0,0.0,0.0,0.0,0.0,0.0,0.0,0.0,0.0,0.0,0.0,0.0,0.0,0.0,0.0,0.0,0.0,0.0,0.0,0.0,-3.779,-3.9276,-3.9792,-3.991,-3.9603,-3.9576,-3.8719,-3.6623,0.0,0.0,0.0,0.0,0.0,0.0,0.0,0.0,0.0,0.0,0.0,0.0,0.0,0.0,0.0,0.0,0.0,0.0,0.0,0.0,0.0,0.0,0.0,0.0,0.0,0.0,0.0,0.0,0.0,0.0,0.0,0.0,0.0,0.0,0.0,0.0,0.0,0.0,0.0,0.0,0.0,0.0,0.0,0.0,0.0,0.0,0.0,0.0,0.0,0.0,0.0,0.0,0.0,0.0,0.0,0.0,0.0,0.0,0.0,0.0,0.0,0.0,0.0,0.0,0.0,0.0,0.0,0.0,0.0,0.0,0.0,0.0,0.0,0.0,0.0,0.0,0.0,0.0,0.0,0.0,0.0,0.0,0.0,0.0,0.0,0.0,0.0,0.0,0.0,0.0,0.0,0.0,0.0,0.0,0.0,0.0,0.0,0.0,0.0,0.0,0.0,0.0,0.0,-3.6856,-3.8061,-4.025,-4.0475,-4.04,-4.017,-4.0135,-3.9071,-3.6599,-3.6671,0.0,0.0,0.0,0.0,0.0,0.0,0.0,0.0,0.0,0.0,0.0,0.0,0.0,0.0,0.0,0.0,0.0,0.0,0.0,0.0,0.0,0.0,0.0,0.0,0.0,0.0,0.0,0.0,0.0,0.0,0.0,0.0,0.0,0.0,0.0,0.0,0.0,0.0,0.0,0.0,0.0,0.0,0.0,0.0,0.0,0.0,0.0,0.0,0.0,0.0,0.0,0.0,0.0,0.0,0.0,0.0,0.0,0.0,0.0,0.0,0.0,0.0,0.0,0.0,0.0,0.0,0.0,0.0,0.0,0.0,0.0,0.0,0.0,0.0,0.0,0.0,0.0,0.0,0.0,0.0,0.0,0.0,0.0,0.0,0.0,0.0,0.0,0.0,0.0,0.0,0.0,0.0,0.0,0.0,0.0,0.0,0.0,0.0,0.0,0.0,0.0,0.0,-3.7664,-3.8716,-4.0638,-4.0859,-4.079,-4.0665,-4.0655,-3.9422,-3.653,-3.7104,0.0,0.0,0.0,0.0,0.0,0.0,0.0,0.0,0.0,0.0,0.0,0.0,0.0,0.0,0.0,0.0,0.0,0.0,0.0,0.0,0.0,0.0,0.0,0.0,0.0,0.0,0.0,0.0,0.0,0.0,0.0,0.0,0.0,0.0,0.0,0.0,0.0,0.0,0.0,0.0,0.0,0.0,0.0,0.0,0.0,0.0,0.0,0.0,0.0,0.0,0.0,0.0,0.0,0.0,0.0,0.0,0.0,0.0,0.0,0.0,0.0,0.0,0.0,0.0,0.0,0.0,0.0,0.0,0.0,0.0,0.0,0.0,0.0,0.0,0.0,0.0,0.0,0.0,0.0,0.0,0.0,0.0,0.0,0.0,0.0,0.0,0.0,0.0,0.0,0.0,0.0,0.0,0.0,0.0,0.0,0.0,0.0,0.0,0.0,0.0,0.0,0.0,-3.9773,-4.0852,-4.0961,-4.0984,-4.092,-4.0797,-4.0801,-3.956,-3.6671,-3.7252,0.0,0.0,0.0,0.0,0.0,0.0,0.0,0.0,0.0,0.0,0.0,0.0,0.0,0.0,0.0,0.0,0.0,0.0,0.0,0.0,0.0,0.0,0.0,0.0,0.0,0.0,0.0,0.0,0.0,0.0,0.0,0.0,0.0,0.0,0.0,0.0,0.0,0.0,0.0,0.0,0.0,0.0,0.0,0.0,0.0,0.0,0.0,0.0,0.0,0.0,0.0,0.0,0.0,0.0,0.0,0.0,0.0,0.0,0.0,0.0,0.0,0.0,0.0,0.0,0.0,0.0,0.0,0.0,0.0,0.0,0.0,0.0,0.0,0.0,0.0,0.0,0.0,0.0,0.0,0.0,0.0,0.0,0.0,0.0,0.0,0.0,0.0,0.0,0.0,0.0,0.0,0.0,0.0,0.0,0.0,0.0,0.0,0.0,0.0,0.0,0.0,0.0,-3.9472,-4.0428,0.0,-4.0996,-4.0975,-4.0925,-4.0925,-3.975,-3.7003,0.0,0.0,0.0,0.0,0.0,0.0,0.0,0.0,0.0,0.0,0.0,0.0,0.0,0.0,0.0,0.0,0.0,0.0,0.0,0.0,0.0,0.0,0.0,0.0,0.0,0.0,0.0,0.0,0.0,0.0,0.0,0.0,0.0,0.0,0.0,0.0,0.0,0.0,0.0,0.0,0.0,0.0,0.0,0.0,0.0,0.0,0.0,0.0,0.0,0.0,0.0,0.0,0.0,0.0,0.0,0.0,0.0,0.0,0.0,0.0,0.0,0.0,0.0,0.0,0.0,0.0,0.0,0.0,0.0,0.0,0.0,0.0,0.0,0.0,0.0,0.0,0.0,0.0,0.0,0.0,0.0,0.0,0.0,0.0,0.0,0.0,0.0,0.0,0.0,0.0,0.0,0.0,0.0,0.0,0.0,0.0,0.0,0.0,0.0,0.0,0.0,0.0,-3.8284,-3.9365,-4.0298,0.0,-4.0964,-4.0974,-4.0969,-4.0996,-3.9869,-3.7209,0.0,0.0,0.0,0.0,0.0,0.0,0.0,0.0,0.0,0.0,0.0,0.0,0.0,0.0,0.0,0.0,0.0,0.0,0.0,0.0,0.0,0.0,0.0,0.0,0.0,0.0,0.0,0.0,0.0,0.0,0.0,0.0,0.0,0.0,0.0,0.0,0.0,0.0,0.0,0.0,0.0,0.0,0.0,0.0,0.0,0.0,0.0,0.0,0.0,0.0,0.0,0.0,0.0,0.0,0.0,0.0,0.0,0.0,0.0,0.0,0.0,0.0,0.0,0.0,0.0,0.0,0.0,0.0,0.0,0.0,0.0,0.0,0.0,0.0,0.0,0.0,0.0,0.0,0.0,0.0,0.0,0.0,0.0,0.0,0.0,0.0,0.0,0.0,0.0,0.0,0.0,0.0,0.0,0.0,0.0,0.0,0.0,0.0,0.0,0.0,0.0,0.0,-3.8299,-3.9816,-4.0869,-4.0822,-4.0869,-4.0889,-4.0902,-4.0961,-3.9897,0.0,0.0,0.0,0.0,0.0,0.0,0.0,0.0,0.0,0.0,0.0,0.0,0.0,0.0,0.0,0.0,0.0,0.0,0.0,0.0,0.0,0.0,0.0,0.0,0.0,0.0,0.0,0.0,0.0,0.0,0.0,0.0,0.0,0.0,0.0,0.0,0.0,0.0,0.0,0.0,0.0,0.0,0.0,0.0,0.0,0.0,0.0,0.0,0.0,0.0,0.0,0.0,0.0,0.0,0.0,0.0,0.0,0.0,0.0,0.0,0.0,0.0,0.0,0.0,0.0,0.0,0.0,0.0,0.0,0.0,0.0,0.0,0.0,0.0,0.0,0.0,0.0,0.0,0.0,0.0,0.0,0.0,0.0,0.0,0.0,0.0,0.0,0.0,0.0,0.0,0.0,0.0,0.0,0.0,0.0,0.0,0.0,0.0,0.0,0.0,0.0,0.0,0.0,-3.8237,-3.9685,-4.0707,-4.0728,-4.0752,-4.0776,-4.0822,-4.0851,-4.0024,-3.8064,0.0,0.0,0.0,0.0,0.0,0.0,0.0,0.0,0.0,0.0,0.0,0.0,0.0,0.0,0.0,0.0,0.0,0.0,0.0,0.0,0.0,0.0,0.0,0.0,0.0,0.0,0.0,0.0,0.0,0.0,0.0,0.0,0.0,0.0,0.0,0.0,0.0,0.0,0.0,0.0,0.0,0.0,0.0,0.0,0.0,0.0,0.0,0.0,0.0,0.0,0.0,0.0,0.0,0.0,0.0,0.0,0.0,0.0,0.0,0.0,0.0,0.0,0.0,0.0,0.0,0.0,0.0,0.0,0.0,0.0,0.0,0.0,0.0,0.0,0.0,0.0,0.0,0.0,0.0,0.0,0.0,0.0,0.0,0.0,0.0,0.0,0.0,0.0,0.0,0.0,0.0,0.0,0.0,0.0,0.0,0.0,0.0,0.0,0.0,0.0,0.0,0.0,-3.8131,-3.9565,-4.0617,-4.0626,-4.0646,-4.068,-4.0728,-4.0747,-4.0192,-3.8869,0.0,0.0,0.0,0.0,0.0,0.0,0.0,0.0,0.0,0.0,0.0,0.0,0.0,0.0,0.0,0.0,0.0,0.0,0.0,0.0,0.0,0.0,0.0,0.0,0.0,0.0,0.0,0.0,0.0,0.0,0.0,0.0,0.0,0.0,0.0,0.0,0.0,0.0,0.0,0.0,0.0,0.0,0.0,0.0,0.0,0.0,0.0,0.0,0.0,0.0,0.0,0.0,0.0,0.0,0.0,0.0,0.0,0.0,0.0,0.0,0.0,0.0,0.0,0.0,0.0,0.0,0.0,0.0,0.0,0.0,0.0,0.0,0.0,0.0,0.0,0.0,0.0,0.0,0.0,0.0,0.0,0.0,0.0,0.0,0.0,0.0,0.0,0.0,0.0,0.0,0.0,0.0,0.0,0.0,0.0,0.0,0.0,0.0,0.0,0.0,0.0,0.0,-3.7978,-3.948,-4.0543,-4.0508,-4.0558,-4.0592,-4.0592,-4.0646,-4.0337,-3.9518,0.0,0.0,0.0,0.0,0.0,0.0,0.0,0.0,0.0,0.0,0.0,0.0,0.0,0.0,0.0,0.0,0.0,0.0,0.0,0.0,0.0,0.0,0.0,0.0,0.0,0.0,0.0,0.0,0.0,0.0,0.0,0.0,0.0,0.0,0.0,0.0,0.0,0.0,0.0,0.0,0.0,0.0,0.0,0.0,0.0,0.0,0.0,0.0,0.0,0.0,0.0,0.0,0.0,0.0,0.0,0.0,0.0,0.0,0.0,0.0,-3.7067,0.0,0.0,0.0,0.0,0.0,0.0,0.0,0.0,0.0,0.0,0.0,0.0,0.0,0.0,0.0,0.0,0.0,0.0,0.0,0.0,0.0,0.0,0.0,0.0,0.0,0.0,0.0,0.0,0.0,0.0,0.0,0.0,0.0,0.0,0.0,0.0,0.0,0.0,0.0,0.0,0.0,-3.7785,-3.9163,-4.0251,-4.0413,-4.043,-4.043,-4.043,-4.0499,-4.0188,-3.9307,-3.9204,0.0,0.0,0.0,0.0,0.0,0.0,0.0,0.0,0.0,0.0,0.0,0.0,0.0,0.0,0.0,0.0,0.0,0.0,0.0,0.0,0.0,0.0,0.0,0.0,0.0,0.0,0.0,0.0,0.0,0.0,0.0,0.0,0.0,0.0,0.0,0.0,0.0,0.0,0.0,0.0,0.0,0.0,0.0,0.0,0.0,0.0,0.0,0.0,0.0,0.0,0.0,0.0,0.0,0.0,0.0,0.0,0.0,0.0,0.0,0.0,-3.678,0.0,0.0,0.0,0.0,0.0,0.0,0.0,0.0,0.0,0.0,0.0,0.0,0.0,0.0,0.0,0.0,0.0,0.0,0.0,0.0,0.0,0.0,0.0,0.0,0.0,0.0,0.0,0.0,0.0,0.0,0.0,0.0,0.0,0.0,0.0,0.0,0.0,0.0,0.0,0.0,-3.7451,-3.8936,-4.0101,-4.0196,-4.0325,-4.0398,-4.0398,-4.0432,-4.0257,-3.9816,-3.9484,0.0,0.0,0.0,0.0,0.0,0.0,0.0,0.0,0.0,0.0,0.0,0.0,0.0,0.0,0.0,0.0,0.0,0.0,0.0,0.0,0.0,0.0,0.0,0.0,0.0,0.0,0.0,0.0,0.0,0.0,0.0,0.0,0.0,0.0,0.0,0.0,0.0,0.0,0.0,0.0,0.0,0.0,0.0,0.0,0.0,0.0,0.0,0.0,0.0,0.0,0.0,0.0,0.0,-3.5981,-3.5836,-3.5729,-3.5475,-3.5769,-3.6464,-3.6494,-3.6946,-3.7567,0.0,0.0,0.0,0.0,0.0,0.0,0.0,0.0,0.0,0.0,0.0,0.0,0.0,0.0,0.0,0.0,0.0,0.0,0.0,0.0,0.0,0.0,0.0,0.0,0.0,-3.8243,-3.8483,0.0,0.0,0.0,0.0,0.0,0.0,0.0,0.0,0.0,0.0,0.0,0.0,-3.7291,-3.8785,-3.988,-3.9901,-4.012,-4.0252,-4.0308,-4.0307,-4.0325,-4.0379,-3.9761,-3.9333,0.0,0.0,0.0,0.0,0.0,0.0,0.0,0.0,0.0,0.0,0.0,0.0,0.0,0.0,0.0,0.0,0.0,0.0,0.0,0.0,0.0,0.0,0.0,0.0,0.0,0.0,0.0,0.0,0.0,0.0,0.0,0.0,-3.4489,-3.4759,0.0,0.0,0.0,0.0,0.0,0.0,0.0,0.0,0.0,0.0,0.0,0.0,0.0,-3.3154,-3.3199,-3.4192,-3.495,-3.5514,-3.5772,-3.6183,-3.6617,-3.6242,-3.6312,-3.6717,-3.6379,0.0,-3.6409,-3.6371,0.0,0.0,0.0,0.0,0.0,0.0,0.0,0.0,0.0,0.0,0.0,0.0,0.0,0.0,0.0,0.0,0.0,0.0,0.0,0.0,0.0,0.0,-3.8891,-3.8891,-3.8868,-3.8841,0.0,-3.7925,-3.7239,-3.7239,-3.7177,0.0,0.0,0.0,0.0,0.0,0.0,0.0,-3.7891,-3.8719,-3.9357,-3.9556,-3.9604,-3.9698,-3.9956,-3.996,-4.0061,-4.0307,-4.0283,-3.9898,-3.9131,-3.9065,0.0,0.0,0.0,0.0,0.0,0.0,0.0,0.0,0.0,0.0,0.0,0.0,0.0,0.0,0.0,0.0,0.0,0.0,0.0,0.0,0.0,0.0,0.0,0.0,0.0,0.0,0.0,0.0,0.0,-3.3065,-3.3171,-3.4456,-3.4307,-3.4171,0.0,0.0,0.0,0.0,0.0,0.0,0.0,0.0,0.0,-3.2053,-3.2422,-3.2845,-3.3309,-3.4199,-3.4816,-3.5092,-3.5623,-3.5928,-3.5977,-3.5793,-3.5793,-3.5933,-3.5749,-3.5676,-3.5756,-3.6397,-3.6355,-3.5867,0.0,0.0,0.0,0.0,-3.6364,-3.6381,-3.652,-3.6656,0.0,-3.5919,0.0,0.0,0.0,0.0,0.0,0.0,0.0,0.0,0.0,0.0,-3.8348,-3.8733,-3.8755,-3.8664,-3.8664,-3.8245,-3.7912,0.0,-3.7779,-3.7175,-3.6397,0.0,0.0,0.0,0.0,-3.7838,-3.7729,-3.8544,-3.9183,-3.9272,-3.9427,-3.9551,-3.967,-3.9675,-3.9724,-3.9854,-3.9878,-3.9709,-3.933,-3.9071,-3.8572,0.0,0.0,0.0,0.0,0.0,0.0,0.0,0.0,0.0,0.0,0.0,0.0,0.0,0.0,0.0,0.0,0.0,0.0,0.0,0.0,0.0,0.0,0.0,0.0,0.0,0.0,0.0,0.0,-3.2473,-3.2531,-3.363,-3.3631,-3.3496,0.0,0.0,0.0,0.0,0.0,0.0,-3.1861,-3.1498,-3.1574,-3.2157,-3.2164,-3.2563,-3.3459,-3.3932,-3.4363,-3.4695,-3.5188,-3.5329,-3.5198,-3.5198,-3.5198,-3.5198,-3.5198,-3.5198,-3.5321,-3.6215,-3.6464,-3.635,-3.6643,-3.6764,-3.6786,-3.6843,-3.6843,-3.6843,-3.6943,-3.7041,-3.6993,-3.6252,0.0,-3.6453,-3.6168,0.0,0.0,0.0,0.0,-3.6849,-3.7599,-3.7801,-3.7918,-3.8425,-3.851,-3.8478,-3.8478,-3.8282,-3.824,0.0,-3.8295,-3.7632,-3.684,0.0,0.0,0.0,0.0,-3.7671,-3.7704,-3.8416,-3.8931,-3.8942,-3.9119,-3.9279,-3.9401,-3.9401,-3.9427,-3.9502,-3.9513,-3.95,-3.95,-3.9126,-3.8816,-3.8607,0.0,0.0,0.0,0.0,0.0,0.0,0.0,0.0,0.0,0.0,0.0,0.0,0.0,0.0,0.0,0.0,0.0,0.0,0.0,0.0,0.0,0.0,0.0,0.0,0.0,0.0,0.0,0.0,0.0,-3.2502,-3.329,0.0,0.0,0.0,0.0,-3.3795,-3.273,-3.2267,-3.2787,-3.1703,-3.1271,-3.181,-3.1737,-3.2098,-3.2855,-3.2633,-3.3158,-3.4411,-3.4203,-3.4392,-3.4899,-3.4899,-3.4899,-3.4899,-3.4899,-3.4994,-3.5135,-3.5321,-3.5475,-3.5583,-3.5583,-3.5639,-3.5694,-3.58,-3.5844,-3.5888,-3.6019,-3.6326,-3.6481,-3.5692,-3.5472,-3.5684,-3.678,-3.6614,0.0,0.0,-3.7174,-3.7356,-3.8159,-3.836,-3.8378,-3.8396,-3.8415,-3.8415,-3.8415,-3.7799,-3.7489,0.0,-3.8378,-3.8104,-3.732,0.0,-3.721,-3.7106,-3.7174,-3.7502,-3.8269,-3.8396,-3.8446,-3.8523,-3.8523,-3.8707,-3.9101,-3.9129,-3.9219,-3.9483,-3.9483,-3.9483,-3.9483,-3.9462,-3.9091,-3.8338,-3.8294,0.0,0.0,0.0,0.0,0.0,0.0,0.0,0.0,0.0,0.0,0.0,0.0,0.0,0.0,0.0,0.0,0.0,0.0,0.0,0.0,0.0,0.0,0.0,0.0,0.0,0.0,0.0,0.0,-3.2896,-3.3197,0.0,-3.2365,-3.2642,-3.259,-3.1884,-3.1735,-3.1742,-3.1917,-3.1493,-3.1364,-3.1531,-3.1511,-3.1735,-3.2222,-3.2655,-3.3201,-3.391,-3.4034,-3.4348,-3.4899,-3.4546,-3.4546,-3.4899,-3.4899,-3.4947,-3.4994,-3.4994,-3.5198,-3.5383,-3.5383,-3.5429,-3.552,-3.5566,-3.5639,-3.5667,-3.5711,-3.5827,-3.5977,-3.6022,-3.6208,-3.6558,-3.7356,-3.7584,-3.7598,-3.789,-3.7963,-3.8036,-3.8281,-3.8322,-3.8322,-3.8289,-3.8256,-3.8256,-3.8256,-3.8056,-3.7929,-3.8219,-3.7936,-3.7544,-3.7252,-3.7635,-3.7799,-3.7288,-3.7635,-3.8072,-3.8346,-3.8382,-3.8415,-3.8446,-3.8478,-3.8572,-3.8707,-3.8803,-3.8881,-3.8979,-3.8979,-3.8979,-3.8979,-3.9146,-3.9104,-3.8824,-3.8995,-3.8482,0.0,0.0,0.0,0.0,0.0,0.0,0.0,0.0,0.0,0.0,0.0,0.0,0.0,0.0,0.0,0.0,0.0,0.0,0.0,0.0,0.0,0.0,0.0,0.0,0.0,0.0,-3.2877,-3.2484,-3.2756,-3.259,-3.1768,-3.1961,-3.183,-3.1007,-3.1162,-3.1244,-3.1206,-3.1145,-3.1185,-3.1358,-3.1375,-3.1683,-3.2386,-3.294,-3.3437,-3.3935,-3.4121,-3.4448,-3.4804,-3.4448,-3.4497,-3.4899,-3.4899,-3.4899,-3.4899,-3.4899,-3.4994,-3.5152,-3.5198,-3.5291,-3.5446,-3.5446,-3.5475,-3.5594,-3.5577,-3.5622,-3.5694,-3.6333,-3.6661,-3.6882,-3.7524,-3.7895,-3.8083,-3.8083,-3.8219,-3.8271,-3.8086,-3.8018,-3.7984,-3.7756,-3.781,-3.7898,-3.7845,-3.7985,-3.8124,-3.814,-3.7805,-3.754,-3.754,-3.7958,-3.8081,-3.7249,-3.7826,-3.8245,-3.7972,-3.8172,-3.8336,-3.8368,-3.8415,-3.8478,-3.851,-3.8352,-3.8414,-3.8689,-3.845,-3.8414,-3.8689,-3.8881,-3.8979,-3.8979,-3.9146,-3.8721,-3.7667,0.0,0.0,0.0,0.0,0.0,0.0,0.0,0.0,0.0,0.0,0.0,0.0,0.0,0.0,0.0,0.0,0.0,0.0,0.0,0.0,0.0,0.0,0.0,-3.3441,-3.3701,-3.3257,-3.1319,-3.1964,-3.2188,-3.113,-3.1568,-3.1731,-3.1397,-3.1201,-3.0998,-3.0797,-3.0643,-3.0797,-3.1303,-3.1319,-3.1991,-3.3399,-3.3399,-3.3776,-3.4448,-3.4448,-3.4546,-3.4691,-3.4643,-3.4739,-3.4899,-3.4899,-3.4899,-3.4899,-3.4899,-3.4899,-3.4899,-3.5041,-3.5198,-3.5291,-3.5291,-3.54,-3.5492,-3.5594,-3.5577,-3.5739,-3.658,-3.6597,-3.6451,-3.7228,-3.7505,-3.7505,-3.7505,-3.7845,-3.8054,-3.7632,-3.7505,-3.7377,-3.6865,-3.7076,-3.7376,-3.7266,-3.7577,-3.7916,-3.8002,-3.8088,-3.8192,-3.8192,-3.8192,-3.792,-3.7174,-3.7685,0.0,-3.7123,-3.7703,-3.8207,-3.8238,-3.83,-3.8396,-3.851,-3.7924,-3.7881,-3.8726,-3.8028,-3.7955,-3.8744,-3.8781,-3.8781,-3.8781,-3.8762,-3.858,-3.8233,0.0,0.0,0.0,0.0,0.0,0.0,0.0,0.0,0.0,0.0,0.0,0.0,0.0,0.0,0.0,0.0,0.0,0.0,0.0,0.0,0.0,0.0,-3.437,-3.4127,-3.3655,-3.3198,-3.2791,-3.2657,-3.2417,-3.1985,-3.1556,-3.124,-3.0988,-3.0974,-3.0915,-3.0871,-3.1348,-3.1632,-3.1797,-3.1797,-3.2236,-3.3161,-3.3225,-3.3405,-3.3716,-3.3423,-3.3475,-3.3869,-3.3614,-3.3951,-3.4739,-3.4851,-3.4899,-3.4899,-3.4899,-3.4899,-3.4899,-3.4947,-3.5041,-3.5152,-3.5152,-3.5291,-3.5492,-3.5537,-3.5549,-3.5667,-3.5898,-3.6308,-3.6799,-3.7017,-3.7283,-3.7578,-3.7933,-3.7667,-3.7283,-3.7469,-3.7469,-3.7413,-3.7246,-3.7523,-3.781,-3.7721,-3.7863,-3.7967,-3.7984,-3.8036,-3.8088,-3.8174,-3.8192,-3.8101,-3.7884,-3.8047,0.0,-3.7884,-3.8047,-3.799,-3.741,-3.7435,-3.7731,-3.836,-3.8345,-3.8902,-4.0359,-4.023,-4.0212,-4.0432,-4.0451,-4.0451,-4.0451,-3.9995,-3.966,0.0,0.0,0.0,0.0,0.0,0.0,0.0,0.0,0.0,0.0,0.0,0.0,0.0,0.0,0.0,0.0,0.0,0.0,0.0,0.0,0.0,0.0,-3.4486,-3.4265,-3.4128,-3.3579,-3.3172,-3.3063,-3.2702,-3.2318,-3.1823,-3.1589,-3.1273,-3.0856,-3.1169,-3.138,-3.138,-3.1785,-3.2141,-3.2449,-3.2465,-3.2805,-3.3501,-3.3876,-3.4066,-3.413,-3.3957,-3.4191,-3.4771,-3.3943,-3.4182,0.0,-3.4936,-3.4851,-3.4899,-3.4899,-3.4899,0.0,0.0,0.0,0.0,0.0,-3.5198,-3.5354,-3.5446,-3.552,-3.5594,-3.5844,-3.6114,-3.6374,-3.6597,-3.6821,-3.7055,-3.7319,-3.715,-3.6939,-3.7208,-3.7094,-3.6917,-3.6803,-3.7094,-3.7376,-3.7301,-3.7577,-3.7915,-3.7984,-3.7984,0.0,-3.8174,-3.8192,-3.8083,-3.7739,-3.7975,-3.8065,-3.7721,-3.7975,-3.8138,-3.8011,-3.8107,-3.8482,-3.9331,-3.926,0.0,0.0,0.0,-4.0763,-4.1093,-4.1111,0.0,0.0,0.0,-4.0633,-4.0752,0.0,0.0,0.0,-3.9432,-3.9222,0.0,0.0,0.0,0.0,0.0,0.0,0.0,0.0,0.0,0.0,0.0,0.0,0.0,0.0,0.0,0.0,-3.4292,-3.3906,-3.3661,-3.3429,-3.3124,-3.2654,-3.2474,-3.2124,-3.1359,-3.1715,-3.1745,-3.1131,-3.172,-3.2125,-3.2125,0.0,0.0,0.0,0.0,-3.3647,-3.4343,-3.4991,-3.5247,-3.5142,-3.5268,-3.5609,-3.6136,-3.494,-3.4936,-3.5827,-3.512,-3.4938,-3.5148,-3.5048,-3.4982,-3.4899,-3.4899,-3.4899,-3.4899,-3.5041,-3.5105,-3.5135,-3.5383,0.0,0.0,-3.6062,-3.5958,-3.5694,-3.6174,-3.6301,-3.6301,-3.6343,-3.6557,-3.6781,-3.6821,-3.6557,-3.6199,-3.6037,-3.6333,-3.6638,-3.6603,-3.717,-3.7774,-3.7949,-3.7984,-3.8036,-3.8174,-3.8192,-3.7938,-3.7232,-3.7721,-3.792,-3.7247,-3.783,-3.8554,-3.9188,0.0,0.0,-4.0735,-4.0335,-4.0414,-4.1313,-4.0708,-4.0634,-4.135,-4.1387,-4.1387,-4.1387,-4.1387,-4.1601,-4.2079,-4.2079,-4.236,-4.2819,-4.075,-4.033,0.0,0.0,0.0,0.0,0.0,0.0,0.0,0.0,0.0,0.0,0.0,0.0,0.0,0.0,0.0,-3.4134,-3.4031,-3.3742,-3.322,-3.2912,-3.2719,-3.2588,-3.2845,-3.285,-3.241,-3.2613,-3.2623,-3.2229,-3.2608,-3.2886,-3.2886,-3.3388,-3.402,-3.4748,-3.4781,-3.5137,-3.5866,-3.6027,-3.5559,-3.4561,0.0,0.0,-3.4805,-3.4607,-3.5221,-3.629,-3.5849,-3.601,-3.6488,-3.5993,-3.5446,-3.4899,-3.4899,-3.4899,-3.4899,-3.4947,-3.4994,-3.5105,-3.5152,-3.5245,-3.5383,-3.5566,-3.5739,-3.5924,-3.6199,-3.6241,0.0,-3.6661,-3.6333,-3.5941,-3.6326,-3.6182,-3.6079,-3.6516,-3.686,-3.717,-3.7522,-3.7774,-3.7949,-3.7984,-3.7984,-3.8036,-3.8174,-3.8192,-3.8138,-3.7975,-3.8083,-3.8138,-3.7975,-3.8663,-3.8971,-3.8464,-3.9073,-3.9865,-4.0716,-4.0796,-4.1445,-4.2928,-4.2873,-4.2855,-4.302,-4.3039,-4.3039,-4.3039,-4.3039,-4.3088,-4.3185,-4.3185,-4.325,-4.3354,-4.2521,-4.2273,0.0,0.0,0.0,0.0,0.0,0.0,0.0,0.0,0.0,0.0,0.0,-3.4657,-3.448,0.0,-3.4339,-3.4181,-3.4,-3.3715,-3.319,-3.3075,-3.3071,-3.3071,-3.2997,-3.2926,-3.2846,-3.3071,-3.3135,-3.2814,-3.3291,-3.3744,-3.4117,-3.4457,-3.4975,-3.572,-3.5736,-3.593,-3.6303,-3.6643,-3.6334,-3.5361,-3.5705,-3.5758,-3.5383,-3.5089,-3.5346,-3.6087,-3.6244,-3.6381,-3.6506,-3.6537,-3.6125,-3.5446,-3.5446,-3.5214,-3.4899,-3.4899,-3.4947,-3.4994,-3.5088,-3.5135,-3.5245,-3.5446,-3.5594,-3.5739,-3.5915,-3.5915,-3.5898,-3.6182,-3.5941,-3.5711,-3.6174,-3.6199,-3.6224,-3.6661,-3.7055,-3.7358,-3.7559,-3.7792,-3.8018,-3.8088,-3.8088,-3.8122,-3.8192,-3.8192,-3.8192,-3.8192,-3.8192,-3.8337,-3.8735,-3.9152,-3.9532,-3.9912,-4.0416,-4.1032,-4.192,-4.2132,-4.2601,-4.3442,-4.3497,-4.3497,-4.3497,-4.3497,-4.3497,-4.3497,-4.3497,-4.3582,-4.3749,-4.3749,-4.3828,-4.3943,-4.3717,-4.3534,0.0,0.0,0.0,0.0,0.0,0.0,0.0,0.0,-3.3813,-3.4318,-3.4918,-3.5307,-3.5107,-3.502,-3.4811,-3.4298,-3.4018,-3.3743,-3.3418,-3.3452,-3.3599,-3.3897,-3.3429,-3.3121,-3.3192,-3.3541,-3.3612,-3.3324,-3.3922,-3.4554,-3.5153,-3.5315,-3.5736,-3.6481,-3.6497,-3.6562,-3.6707,-3.7132,-3.6965,-3.6342,-3.6352,-3.6322,-3.6182,-3.563,-3.5689,-3.6209,-3.6869,-3.6829,-3.6384,-3.7028,-3.682,-3.6042,-3.6158,-3.5843,-3.5297,-3.5015,-3.4899,-3.4899,-3.5041,-3.5041,-3.5088,-3.5337,-3.5383,-3.5383,-3.5503,-3.5532,-3.5532,-3.5577,-3.5577,-3.5711,-3.6088,-3.6131,-3.6259,-3.6643,-3.6999,-3.7283,-3.7433,-3.7774,-3.807,-3.8174,-3.8192,-3.8192,-3.8192,-3.8192,-3.8192,-3.8192,-3.8192,-3.8482,-3.9297,-3.9532,-4.0148,-4.156,-4.1978,-4.245,-4.3196,-4.3428,-4.3497,-4.3497,-4.3497,-4.3497,-4.3497,-4.3497,-4.3497,-4.3497,-4.3548,-4.3749,-4.4005,-4.4005,-4.4091,-4.4318,-4.426,-4.4192,-2.7407,-2.9082,-3.1054,-3.2191,-3.3343,-3.4406,0.0,0.0,-3.5432,-3.5507,-3.5411,-3.5296,-3.5266,-3.5019,-3.4626,-3.4049,-3.3821,-3.3797,-3.3978,-3.3722,-3.4002,-3.539,-3.4887,-3.4278,-3.4002,-3.4319,-3.4431,-3.4037,-3.4651,-3.5088,-3.5185,-3.5817,-3.6497,-3.7193,-3.7209,-3.7517,-3.8165,-3.7626,-3.7037,-3.6399,-3.6415,-3.6072,-3.5529,-3.5597,-3.6276,-3.7478,-3.8355,-3.8128,-3.7128,-3.7785,-3.7305,-3.6166,-3.675,-3.6936,-3.6704,-3.5379,-3.4899,-3.4899,-3.4899,-3.4899,-3.4947,-3.5105,-3.5041,-3.4994,-3.5245,-3.5337,-3.5337,-3.5492,-3.5549,-3.5622,-3.565,-3.5639,-3.5817,-3.6661,-3.6843,-3.702,-3.7898,-3.814,-3.8174,-3.8192,-3.8192,-3.8192,-3.8192,-3.8192,-3.8192,-3.8192,-3.8192,-3.8482,-3.9297,-3.9967,-4.0727,-4.1633,-4.2505,-4.3177,-4.3444,-4.3497,-4.3497,-4.3497,-4.3497,-4.3497,-4.3497,-4.3497,-4.3497,-4.3497,-4.3781,-4.3974,-4.4005,-4.4005,-4.4036,-4.4048,-4.373,-4.3855,-2.9761,-3.0779,-3.1617,0.0,-3.3826,-3.4464,-3.4973,-3.5078,-3.5176,-3.5609,-3.5527,-3.5339,-3.5262,-3.5001,-3.4647,0.0,-3.3891,-3.3816,-3.4227,-3.4198,-3.4454,-3.5349,-3.5156,-3.4891,-3.4772,-3.4493,-3.43,-3.4101,-3.4764,-3.538,-3.5817,-3.6513,-3.7226,-3.7922,-3.7954,-3.7915,-3.7844,-3.7535,-3.6845,-3.5834,-3.5834,-3.5642,-3.54,-3.5464,-3.615,-3.7191,-3.7429,-3.762,-3.7857,-3.815,-3.7866,-3.7334,-3.7628,-3.7483,-3.6986,-3.5926,-3.5545,-3.5479,-3.5048,-3.4899,-3.4899,-3.5058,-3.5088,-3.5152,-3.5354,-3.5429,-3.5503,-3.5549,-3.5594,-3.5622,-3.5622,-3.58,-3.6131,-3.6741,-3.686,-3.6999,-3.7632,-3.7792,-3.7792,-3.7792,-3.802,-3.8192,-3.8192,-3.8192,-3.8192,-3.8192,-3.8192,-3.8645,-3.9876,-4.0311,-4.1017,-4.2377,-4.2996,-4.334,-4.3446,-4.3463,-4.3497,-4.3497,-4.3497,-4.3497,-4.3497,-4.3497,-4.3497,-4.3497,-4.3649,-4.3716,-4.3716,-4.3716,-4.3716,-4.3716,-4.3781,-4.3923,-3.0718,0.0,0.0,-3.347,-3.4197,-3.4622,-3.4892,-3.4956,-3.5116,-3.5645,-3.5611,-3.5418,-3.5283,-3.5016,-3.4689,-3.434,-3.3935,-3.3925,-3.4622,-3.4675,-3.4836,-3.5446,-3.5348,-3.5178,-3.5085,-3.448,-3.4101,-3.4101,-3.4959,-3.5736,-3.627,-3.7145,-3.7857,-3.8375,-3.8391,-3.8091,-3.7417,-3.7222,-3.6523,-3.54,-3.5204,-3.5154,-3.5154,-3.54,-3.5961,-3.6784,-3.6723,-3.7191,-3.8051,-3.8222,-3.8297,-3.8266,-3.8441,-3.8179,-3.7615,-3.6887,-3.6489,-3.6208,-3.5462,-3.5197,-3.5164,-3.506,-3.5152,-3.5245,-3.5354,-3.5475,-3.5594,-3.5594,-3.5577,-3.5622,-3.5622,-3.5827,-3.6199,-3.6638,-3.6741,-3.686,-3.7395,-3.7505,-3.7542,-3.7667,-3.7967,-3.8192,-3.8192,-3.8192,-3.8192,-3.8192,-3.8373,-3.9007,-4.0347,-4.0908,-4.1706,-4.2996,-4.3287,-4.3429,-4.3411,-4.3463,-4.3497,-4.3497,-4.3497,-4.3497,-4.3497,-4.3497,-4.3497,-4.3497,-4.3582,-4.3649,-4.3649,-4.3649,-4.3649,-4.3649,-4.3781,-4.3878,-2.8952,-3.0378,-3.1781,-3.3308,-3.4587,-3.5523,-3.5793,-3.5854,-3.5879,-3.5895,-3.5729,-3.554,-3.543,-3.5076,-3.4693,-3.4363,-3.3895,-3.4066,-3.5367,-3.5013,-3.5046,-3.6208,-3.5671,-3.5085,0.0,-3.4349,-3.4101,-3.4101,-3.5461,-3.6287,-3.6303,-3.7614,-3.8375,-3.8391,-3.8391,-3.8091,-3.7417,-3.6768,-3.6072,-3.54,-3.4721,-3.4414,-3.4467,-3.5415,-3.6102,-3.643,-3.7071,-3.737,-3.7488,-3.8051,-3.8278,-3.8374,-3.899,-3.9222,-3.9123,-3.8411,-3.7698,-3.697,-3.6224,-3.5976,-3.5843,-3.5131,-3.4994,-3.5105,-3.5088,-3.5308,-3.5492,-3.5492,-3.5566,-3.5622,-3.5622,-3.5622,-3.5739,-3.6216,-3.6343,-3.6533,-3.7321,-3.7505,-3.7632,-3.8088,-3.8192,-3.8192,-3.8192,-3.8192,-3.8192,-3.8192,-3.8844,-3.9641,-4.0419,-4.1978,-4.3087,-4.316,-4.3305,-4.3411,-4.3497,-4.3497,-4.3497,-4.3497,-4.3497,-4.3497,-4.3497,-4.3497,-4.3497,-4.3497,-4.3814,-4.3974,-4.3974,-4.3974,-4.3974,-4.3974,-4.3649,-4.3532,-2.9886,-3.1294,-3.2683,-3.4242,-3.4963,-3.5372,-3.5704,-3.5847,-3.5898,-3.5899,-3.5749,-3.5396,-3.4728,-3.4713,-3.4524,-3.3749,-3.3603,-3.4124,-3.5587,-3.5117,-3.4987,-3.5933,-3.5554,0.0,0.0,0.0,0.0,-3.4101,-3.5007,-3.5558,-3.5558,-3.6918,-3.7679,-3.7679,-3.7719,-3.7401,-3.6768,-3.6087,-3.54,-3.4721,-3.4971,-3.4839,-3.4414,-3.5415,-3.5737,-3.5429,-3.5958,-3.6383,-3.6723,-3.6951,-3.7531,-3.8334,-3.8535,-3.8898,-3.9239,-3.9007,-3.8758,-3.8377,-3.7152,-3.6738,-3.6622,-3.5876,-3.5789,-3.5897,-3.5395,-3.5367,-3.5549,-3.5549,-3.5577,-3.5622,-3.5622,-3.5622,-3.5711,-3.6174,-3.6045,-3.6071,-3.6939,-3.7094,-3.7246,-3.7632,-3.7985,-3.8192,-3.8192,-3.8627,-3.9152,-3.9659,-3.9967,-4.0419,-4.1216,-4.2396,-4.3178,-4.3214,-4.3358,-4.3463,-4.3497,-4.3497,-4.3497,-4.3497,-4.3497,-4.3497,-4.3497,-4.3497,-4.3497,-4.3497,-4.3615,-4.3682,-4.3682,-4.3682,-4.3682,-4.3682,-4.3781,-4.3846,-3.0725,-3.1971,-3.3096,-3.4624,-3.5095,-3.529,-3.5624,-3.5798,-3.5898,-3.5892,-3.5527,-3.5001,-3.4314,-3.4305,-3.415,-3.3421,-3.3469,-3.4152,-3.569,-3.5168,-3.4931,-3.5805,-3.5481,-3.4897,0.0,0.0,0.0,-3.4101,-3.4764,-3.5185,-3.5185,-3.6303,-3.6841,-3.6644,-3.6667,-3.6232,-3.537,-3.4949,-3.451,-3.408,-3.4736,-3.4905,-3.4601,-3.5234,-3.5365,-3.5148,-3.5359,-3.5861,-3.643,-3.643,-3.7115,-3.8278,-3.8278,-3.8717,-3.9272,-3.9272,-3.9272,-3.9106,-3.7914,-3.75,-3.7384,-3.6672,-3.642,-3.6329,-3.5874,-3.5677,-3.5622,-3.5622,-3.5622,-3.5622,-3.5622,-3.5622,-3.5667,-3.5958,-3.5827,-3.5854,-3.6701,-3.69,-3.7055,-3.765,-3.8002,-3.8192,-3.8192,-3.8862,-3.9641,-4.0401,-4.0745,-4.1126,-4.1705,-4.2614,-4.3214,-4.3251,-4.3428,-4.3497,-4.3497,-4.3497,-4.3497,-4.3497,-4.3497,-4.3497,-4.3497,-4.3497,-4.3497,-4.3497,-4.3497,-4.3497,-4.3497,-4.3497,-4.3497,-4.3532,-4.3716,-4.3814,-3.1386,-3.232,-3.3032,-3.4449,-3.499,-3.5284,-3.5619,-3.5806,-3.5898,-3.5837,-3.5112,-3.4406,0.0,0.0,-3.3599,-3.3271,-3.3451,-3.4134,-3.5606,-3.5098,-3.4874,0.0,0.0,0.0,0.0,0.0,0.0,-3.4101,0.0,-3.5121,-3.5121,-3.5833,-3.5953,-3.534,-3.5331,-3.4747,-3.3501,-3.3455,-3.3472,-3.3427,-3.4037,-3.4514,-3.4765,-3.4832,-3.5044,-3.54,-3.54,-3.574,-3.626,-3.626,-3.7021,-3.8181,-3.8213,-3.8652,-3.9222,-3.9309,-3.9272,-3.9172,-3.8493,-3.8278,-3.8146,-3.7536,-3.6951,-3.6463,-3.6538,-3.6139,-3.5622,-3.5622,-3.5622,-3.5622,-3.5622,-3.5622,-3.5622,-3.5622,-3.5622,-3.5854,-3.6701,-3.69,-3.715,-3.802,-3.8192,-3.8192,-3.8246,-3.888,-3.9659,-4.0456,-4.1234,-4.1778,-4.196,-4.2687,-4.3251,-4.3394,-4.3463,-4.3497,-4.3497,-4.3497,-4.3497,-4.3497,-4.3497,-4.3497,-4.3497,-4.3497,-4.3497,-4.3497,-4.3497,-4.3497,-4.3497,-4.3497,-4.3497,-4.3497,-4.3497,-4.3497,-3.169,-3.2766,-3.3827,-3.4676,-3.5028,-3.5257,-3.5494,-3.5719,-3.5721,-3.5068,-3.47,-3.4057,0.0,0.0,0.0,-3.2353,-3.2974,0.0,-3.4666,-3.4482,0.0,-3.4951,0.0,-3.4643,-3.4151,-3.4101,0.0,0.0,-3.4262,-3.4376,-3.4376,-3.5072,-3.5182,-3.4612,-3.4613,-3.4281,-3.3501,-3.2974,-3.2776,-3.2759,-3.3033,-3.3171,-3.3299,-3.3539,-3.3665,-3.3806,-3.3931,-3.4117,-3.4287,-3.4667,-3.533,-3.6135,-3.7125,-3.7878,-3.8543,-3.9073,-3.9272,-3.9255,-3.9056,-3.9007,-3.8891,-3.8214,-3.7636,-3.7133,-3.6628,-3.6047,-3.5622,-3.5622,-3.5622,-3.5622,-3.5622,-3.5622,-3.5622,-3.5622,-3.5622,-3.5854,-3.6701,-3.69,-3.715,-3.802,-3.8192,-3.8373,-3.8989,-3.926,-3.9858,-4.1198,-4.1633,-4.2069,-4.2723,-4.3014,-4.3251,-4.3394,-4.3463,-4.3497,-4.3497,-4.3497,-4.3497,-4.3497,-4.3497,-4.3497,-4.3497,-4.3497,-4.3497,-4.3497,-4.3497,-4.3497,-4.3497,-4.3497,-4.3497,-4.3497,-4.3497,-4.3497,-3.2451,-3.3427,-3.4307,-3.4695,-3.5078,-3.5284,-3.5077,-3.5169,-3.5096,-3.425,-3.3731,-3.3048,-3.1921,-3.2488,0.0,0.0,0.0,0.0,-3.4333,-3.4217,-3.4226,0.0,-3.4726,0.0,-3.4151,-3.4101,-3.4101,0.0,-3.4101,-3.4101,-3.4101,-3.4253,-3.4027,-3.3505,-3.3264,-3.2824,-3.2226,-3.2119,-3.2077,-3.2092,-3.248,-3.2737,-3.2864,-3.3099,-3.3223,-3.3362,0.0,-3.3499,-3.3546,-3.4073,-3.4701,-3.5371,-3.6339,-3.7143,-3.7781,-3.8179,-3.838,-3.8432,-3.8432,-3.8484,-3.8534,-3.8802,-3.8271,-3.7532,-3.7177,-3.6363,-3.5622,-3.5622,-3.5622,-3.5622,-3.5622,-3.5622,-3.5622,-3.5622,-3.5756,-3.6071,-3.6741,-3.7055,-3.7376,-3.8072,-3.8192,-3.8337,-3.879,-3.917,-3.9804,-4.0999,-4.1579,-4.2178,-4.3032,-4.3233,-4.334,-4.3446,-4.3463,-4.3497,-4.3497,-4.3497,-4.3497,-4.3497,-4.3497,-4.3497,-4.3497,-4.3497,-4.3497,-4.3497,-4.3497,-4.3497,-4.3497,-4.3497,-4.3497,-4.3497,-4.3497,-4.3497,-3.3442,-3.4165,-3.4574,-3.4737,-3.5124,-3.5303,-3.4575,-3.4495,-3.4334,-3.3429,-3.2557,-3.1875,-3.1583,-3.1886,-3.2108,-3.1797,0.0,-3.3629,-3.4127,-3.4005,-3.4031,-3.4482,-3.453,-3.4399,-3.4134,-3.4101,-3.405,-3.3984,-3.3984,-3.3984,-3.3984,-3.3475,-3.2933,-3.2272,-3.1709,-3.1146,-3.0628,-3.1119,-3.1395,-3.1395,-3.2149,-3.2551,-3.2753,-3.2924,-3.3093,-3.323,-3.323,0.0,-3.3291,-3.3813,-3.4379,-3.5015,-3.5712,-3.6323,-3.6868,-3.7018,-3.7153,-3.727,-3.727,-3.7369,-3.7735,-3.8974,-3.8556,-3.7545,-3.7706,-3.6709,-3.5622,-3.5622,-3.5622,-3.5622,-3.5622,-3.5622,-3.5622,-3.5667,-3.6002,-3.6409,-3.686,-3.7321,-3.7703,-3.8106,-3.8192,-3.8192,-3.8192,-3.8771,-3.9514,-4.0383,-4.1233,-4.2122,-4.3087,-4.334,-4.3411,-4.3497,-4.3497,-4.3497,-4.3497,-4.3497,-4.3497,-4.3497,-4.3497,-4.3497,-4.3497,-4.3497,-4.3497,-4.3497,-4.3497,-4.3497,-4.3497,-4.3497,-4.3513,-4.3548,-4.3548,-4.3548,-3.4195,-3.4557,-3.4813,-3.5047,-3.5268,-3.5237,-3.4553,-3.4457,0.0,-3.2635,-3.206,-3.1583,-3.077,-3.0968,-3.128,-3.1446,-3.2122,-3.2726,-3.31,-3.2894,-3.2952,0.0,-3.3491,-3.3583,-3.4036,-3.4101,0.0,0.0,0.0,-3.3355,-3.3355,-3.3251,-3.2718,-3.1709,-3.1087,-3.0687,-3.0568,-3.0684,-3.0742,-3.0742,-3.1174,-3.1412,-3.1412,-3.1693,-3.181,-3.1884,-3.1884,0.0,-3.1869,-3.2471,-3.2792,-3.306,-3.4638,-3.5351,-3.5587,-3.6702,-3.7102,-3.7153,-3.727,-3.7402,-3.7534,-3.7819,-3.7332,-3.669,-3.6754,-3.6224,-3.5622,-3.5622,-3.5622,-3.5622,-3.5622,-3.5622,-3.5711,-3.6088,-3.6259,-3.6492,-3.7246,-3.7774,-3.8106,-3.8174,-3.8192,-3.8192,-3.8192,-3.8301,-3.8914,-4.0435,-4.0848,-4.1572,-4.3158,-4.3394,-4.3411,-4.3497,-4.3497,-4.3497,-4.3497,-4.3497,-4.3497,-4.3497,-4.3497,-4.3497,-4.3497,-4.3497,-4.3497,-4.3497,-4.3497,-4.3497,-4.3497,-4.3497,-4.3649,-4.391,-4.391,-4.391,-3.4595,-3.4832,-3.4994,-3.52,-3.54,-3.5243,-3.4042,0.0,0.0,-3.1708,-3.1202,-3.0906,-3.0383,-3.0601,0.0,-3.0789,-3.1597,-3.2191,-3.198,-3.2206,-3.2587,-3.3102,-3.3143,-3.3356,0.0,-3.3764,0.0,0.0,0.0,-3.2648,-3.2788,-3.2516,-3.1905,-3.1087,-3.0747,-3.0568,-3.0568,-3.0568,-3.0568,-3.0568,-3.0955,-3.1087,-3.1087,-3.1366,-3.1482,-3.1482,-3.1482,0.0,-3.1539,-3.2176,-3.2398,-3.2539,-3.403,-3.4586,-3.4686,-3.5613,-3.6057,-3.6171,-3.6219,-3.6393,-3.6518,-3.6535,-3.6599,-3.6662,-3.6662,-3.6168,-3.5622,-3.5622,-3.5622,-3.5622,-3.5622,-3.5622,-3.5667,-3.5871,-3.6284,-3.6838,-3.7685,-3.8054,-3.8192,-3.8192,-3.8225,-3.8241,-3.8241,-3.8256,-3.8867,-4.052,-4.086,-4.1512,-4.3175,-4.3411,-4.3463,-4.3497,-4.3497,-4.3497,-4.3497,-4.3497,-4.3497,-4.3497,-4.3497,-4.3497,-4.3497,-4.3497,-4.3497,-4.3497,-4.3497,-4.3497,-4.3497,-4.3497,-4.3682,-4.4005,-4.3814,-4.3846,-3.4869,-3.5117,-3.5239,-3.5364,-3.554,-3.5288,-3.3589,-3.3203,0.0,-3.1034,-3.0519,-3.0321,-3.0171,-3.0288,-3.0329,0.0,-3.083,-3.1369,-3.1038,-3.1448,-3.2019,0.0,-3.2774,0.0,-3.3709,-3.3292,0.0,0.0,0.0,0.0,-3.216,-3.1652,-3.1087,-3.0628,-3.0568,-3.0568,-3.0568,-3.0568,-3.0568,-3.0568,-3.0955,-3.1087,-3.1087,-3.1366,-3.1482,-3.1482,-3.1482,0.0,0.0,-3.2023,-3.2231,-3.2287,-3.3351,-3.3815,-3.4034,-3.4529,-3.4994,-3.5291,-3.5337,-3.5475,-3.5594,-3.5577,-3.6028,-3.6535,-3.6535,-3.6096,-3.5622,-3.5622,-3.5622,-3.5622,-3.5622,-3.5622,-3.5622,-3.5711,-3.6416,-3.7226,-3.7898,-3.814,-3.8192,-3.8192,-3.8241,-3.8274,-3.8307,-3.8354,-3.8948,-4.0604,-4.0946,-4.1565,-4.321,-4.3463,-4.3497,-4.3497,-4.3497,-4.3497,-4.3497,-4.3497,-4.3497,-4.3497,-4.3497,-4.3497,-4.3497,-4.3513,-4.3513,-4.3497,-4.3532,-4.3566,-4.3513,-4.3582,-4.3795,-4.4091,-4.3886,-4.3918,-3.5096,-3.5502,-3.5577,-3.5631,-3.5726,-3.5346,-3.3605,0.0,-3.2703,-3.0974,-3.0402,-3.0171,-2.9961,-2.9698,-2.9502,0.0,0.0,-2.9713,-3.0439,-3.0204,-3.0403,-3.1658,0.0,0.0,-3.272,0.0,0.0,0.0,0.0,0.0,-3.1537,-3.1029,-3.0628,-3.0568,-3.0568,-3.0568,-3.0568,-3.0568,-3.0568,-3.0568,-3.0955,-3.1087,-3.1087,-3.1366,-3.1482,-3.1482,-3.1482,0.0,0.0,-3.1582,-3.1582,-3.164,-3.2287,-3.2949,-3.3563,-3.4086,-3.4706,-3.5291,-3.5446,-3.5492,-3.5537,-3.5594,-3.5673,-3.5723,-3.5723,-3.5673,-3.5622,-3.5622,-3.5622,-3.5622,-3.5622,-3.5622,-3.5711,-3.6131,-3.686,-3.7469,-3.7542,-3.7898,-3.8192,-3.8192,-3.8192,-3.8225,-3.8307,-3.8307,-3.8919,-4.0708,-4.0979,-4.1599,-4.3296,-4.3497,-4.3497,-4.3497,-4.3497,-4.3497,-4.3497,-4.3497,-4.3497,-4.3497,-4.3497,-4.3497,-4.3497,-4.3548,-4.3548,-4.3497,-4.3686,-4.3719,-4.3582,-4.3892,-4.4192,-4.4465,-4.4624,-4.4701,-3.52,-3.5549,-3.562,-3.5682,-3.5363,-3.4695,-3.3476,0.0,-3.1764,-3.0546,-2.9985,-2.9691,-2.9604,-2.9101,-2.8664,0.0,0.0,0.0,-2.873,-2.9248,-2.9812,-3.0424,-3.0972,0.0,0.0,0.0,0.0,0.0,0.0,0.0,-3.0628,-3.0507,-3.0447,-3.0568,-3.0568,-3.0568,-3.0568,-3.0568,-3.0568,-3.0568,-3.0955,-3.1087,-3.1087,-3.1366,-3.1482,-3.1482,-3.1482,0.0,0.0,-3.1482,-3.1482,-3.1582,-3.2176,-3.2734,-3.3339,-3.3969,-3.4658,-3.5291,-3.5446,-3.552,-3.5549,-3.5577,-3.5622,-3.5622,-3.5622,-3.5622,-3.5622,-3.5622,-3.5622,-3.5622,-3.5622,-3.5622,-3.5711,-3.6174,-3.6719,-3.7208,-3.7469,-3.7915,-3.8241,-3.8241,-3.8322,-3.8401,-3.8433,-3.8483,-3.9113,-4.0808,-4.1046,-4.1647,-4.3277,-4.3497,-4.3497,-4.3497,-4.3497,-4.3497,-4.3497,-4.3497,-4.3497,-4.3497,-4.3497,-4.3532,-4.3548,-4.3582,-4.3634,-4.3686,-4.3771,-4.3865,-4.3968,-4.4091,-4.4374,-4.48,-4.4726,-4.4776,-3.4958,-3.5435,-3.5678,-3.5747,-3.5112,-3.4254,0.0,0.0,-3.1106,-3.0171,-2.9672,-2.9359,-2.92,-2.8633,-2.8129,-2.7857,0.0,-2.7589,-2.7258,-2.7927,-2.851,0.0,0.0,0.0,0.0,0.0,0.0,0.0,0.0,0.0,-2.9974,-3.0158,-3.0326,-3.0507,-3.0568,-3.0568,-3.0568,-3.0568,-3.0568,-3.0568,-3.0955,-3.1087,-3.1087,-3.1366,-3.1482,-3.1482,-3.1482,0.0,0.0,-3.1482,-3.1482,-3.1524,-3.1966,-3.2641,-3.3391,-3.3869,-3.4593,-3.5412,-3.5475,-3.5549,-3.5622,-3.5622,-3.5622,-3.5622,-3.5622,-3.5622,-3.5622,-3.5622,-3.5622,-3.5622,-3.5622,-3.5622,-3.5711,-3.6045,-3.6557,-3.6999,-3.734,-3.7879,-3.8322,-3.8322,-3.8401,-3.8478,-3.851,-3.859,-3.9116,-4.0543,-4.0965,-4.1607,-4.2965,-4.3332,-4.3497,-4.3497,-4.3497,-4.3497,-4.3497,-4.3497,-4.3497,-4.3497,-4.3497,-4.3513,-4.3582,-4.3634,-4.3701,-4.3804,-4.3818,-4.3961,-4.4121,-4.4192,-4.4411,-4.48,-4.4695,-4.477,-3.4221,-3.5148,-3.5812,-3.5875,-3.5191,-3.4218,-3.3145,-3.2064,-3.0993,-2.9921,-2.9533,-2.924,-2.8704,-2.8388,-2.7913,-2.7063,-2.6707,0.0,-2.6333,-2.6141,-2.6104,0.0,0.0,0.0,0.0,0.0,0.0,0.0,0.0,0.0,-2.9808,-2.9974,-3.0158,-3.0312,-3.0507,-3.0568,-3.0568,-3.0568,-3.0568,-3.0568,-3.0955,-3.1087,-3.1087,-3.1366,-3.1482,0.0,0.0,0.0,0.0,-3.1482,-3.1482,-3.1482,-3.1539,-3.2351,-3.3598,-3.3582,-3.4447,-3.5577,-3.5622,-3.5622,-3.5622,-3.5622,-3.5622,-3.5622,-3.5622,-3.5622,-3.5622,-3.5622,-3.5622,-3.5622,-3.5622,-3.5622,-3.5622,-3.5773,-3.6416,-3.702,-3.7173,-3.7826,-3.8382,-3.8382,-3.8382,-3.8415,-3.851,-3.851,-3.8816,-3.9772,-4.0598,-4.1405,-4.2213,-4.3002,-4.3497,-4.3497,-4.3497,-4.3497,-4.3497,-4.3497,-4.3497,-4.3497,-4.3497,-4.3513,-4.3582,-4.3719,-4.3804,-4.3804,-4.3929,-4.3974,-4.3897,-4.4181,-4.4289,-4.4318,-4.4568,-4.4846,-3.3353,-3.3789,-3.3964,-3.3988,-3.3278,-3.2464,-3.2039,-3.1035,-3.0073,-2.9589,-2.9256,-2.8902,-2.841,-2.7966,-2.7447,-2.6805,-2.635,-2.593,0.0,0.0,0.0,-2.5788,0.0,0.0,0.0,0.0,0.0,0.0,0.0,0.0,-2.9651,-2.9837,-3.0007,-3.0312,-3.0507,-3.0568,-3.0568,-3.0568,-3.0642,-3.0762,-3.0955,-3.1132,-3.1234,-3.1409,-3.1482,0.0,0.0,0.0,0.0,-3.167,-3.1727,-3.1727,-3.1826,-3.2586,-3.3582,-3.3684,-3.4529,-3.552,-3.5577,-3.5622,-3.5622,-3.5622,-3.5622,-3.5622,-3.5622,-3.5622,-3.5622,-3.5711,-3.5728,-3.5728,-3.5728,-3.5728,-3.5773,-3.5773,-3.6416,-3.702,-3.7173,-3.7877,-3.8478,-3.8478,-3.8528,-3.8627,-3.8609,-3.8658,-3.8915,-3.9772,-4.012,-4.0763,-4.2139,-4.2525,-4.2892,-4.3424,-4.3548,-4.3548,-4.3479,-4.3497,-4.3513,-4.3548,-4.3548,-4.3649,-4.38,-4.3851,-4.3883,-4.3929,-4.3974,-4.4079,-4.425,-4.4318,-4.4465,-4.465,-4.472,-4.4789,-3.2526,-3.2935,-3.309,-3.3036,-3.2338,-3.1588,-3.1322,-3.0345,-2.9419,-2.9177,-2.8795,-2.8386,-2.7936,-2.7512,-2.7066,-2.6573,-2.5961,-2.5442,0.0,0.0,0.0,0.0,0.0,0.0,0.0,0.0,0.0,0.0,0.0,0.0,-2.9602,-2.9699,-2.9946,-3.0219,-3.0387,-3.0507,-3.0568,-3.0568,-3.0702,-3.0821,-3.1014,-3.119,-3.1278,-3.1409,-3.1482,0.0,0.0,0.0,0.0,-3.167,-3.167,-3.1727,-3.1826,-3.2586,-3.3649,-3.3735,-3.4529,-3.5566,-3.5577,-3.5622,-3.5622,-3.5622,-3.5622,-3.5684,-3.5684,-3.5622,-3.5622,-3.5711,-3.5773,-3.5817,-3.5817,-3.5861,-3.5905,-3.5949,-3.6539,-3.7173,-3.7303,-3.7964,-3.8559,-3.8559,-3.8658,-3.8707,-3.8707,-3.8707,-3.8872,-3.9368,-3.9698,-4.0249,-4.1258,-4.1662,-4.2158,-4.2947,-4.3073,-4.3235,-4.3529,-4.36,-4.3634,-4.3667,-4.3667,-4.3734,-4.3897,-4.3897,-4.3929,-4.4005,-4.4005,-4.4079,-4.425,-4.425,-4.4318,-4.4511,-4.472,-4.4776,0.0,-3.2426,-3.2869,-3.2724,-3.2081,-3.1341,-3.0907,-2.9925,0.0,-2.873,-2.8272,-2.7783,-2.7348,-2.7049,-2.6707,-2.6279,-2.5503,-2.5028,0.0,-2.4627,0.0,0.0,0.0,0.0,0.0,0.0,0.0,0.0,0.0,0.0,-2.9484,-2.96,-2.9756,-2.9907,-3.0076,-3.03,-3.0568,-3.0568,-3.0702,-3.0821,-3.1014,-3.119,-3.1351,-3.1409,-3.1482,0.0,0.0,0.0,0.0,-3.1539,-3.1539,-3.1539,-3.1727,-3.2547,-3.3582,-3.3735,-3.4496,-3.547,-3.5532,-3.5532,-3.5577,-3.5577,-3.5667,-3.5817,-3.5817,-3.5728,-3.5622,-3.5622,-3.5711,-3.5817,-3.5817,-3.5905,-3.6062,-3.6208,-3.6781,-3.7342,-3.7487,-3.8135,-3.8707,-3.8707,-3.8707,-3.8707,-3.8707,-3.8707,-3.8707,-3.8707,-3.9331,-3.9827,-3.9882,-4.0561,-4.1332,-4.2139,-4.2268,-4.2665,-4.3468,-4.3682,-4.3804,-4.3804,-4.3804,-4.3837,-4.3897,-4.3897,-4.3929,-4.4005,-4.4005,-4.4005,-4.4005,-4.4005,-4.4005,-4.3986,-4.4519,-4.4776,-3.08,0.0,-3.0861,-3.0715,-3.0445,-3.0154,0.0,-2.9326,-2.8847,-2.8529,-2.821,-2.7794,-2.7175,-2.6639,-2.611,-2.5556,-2.4871,-2.4414,-2.4477,0.0,0.0,0.0,0.0,0.0,0.0,0.0,0.0,0.0,0.0,-2.8778,-2.8532,-2.833,-2.8375,-2.8464,-2.864,-2.9288,-3.0568,-3.0568,-3.0762,-3.1014,-3.1087,-3.1249,-3.1467,-3.1482,-3.1482,0.0,0.0,0.0,-3.1539,-3.167,-3.1784,-3.1883,-3.2038,-3.2586,-3.3287,-3.3339,-3.3802,-3.4431,-3.4833,-3.4975,-3.5085,-3.547,-3.5667,-3.5817,-3.5817,-3.5861,-3.5932,-3.6036,-3.6079,-3.6096,-3.6096,-3.6122,-3.6233,-3.6498,-3.6925,-3.7415,-3.7861,-3.8368,-3.8707,-3.8707,-3.8707,-3.8707,-3.8707,-3.8707,-3.8707,-3.8707,-3.8854,-3.9203,-3.9808,-4.0065,-4.0519,-4.1374,-4.2101,-4.2641,-4.2908,-4.3351,-4.3701,-4.3883,-4.3883,-4.3897,-4.3974,-4.3974,-4.3974,-4.4005,-4.4005,-4.4005,-4.4005,-4.4005,-4.4005,-4.4005,-4.4346,-4.4493,-3.0359,-3.0286,-3.0147,-2.9953,-2.9891,-2.9735,-2.9351,-2.9016,-2.8682,-2.8324,0.0,-2.7409,-2.6723,-2.6497,-2.6089,0.0,-2.489,0.0,0.0,0.0,0.0,0.0,0.0,0.0,0.0,0.0,0.0,0.0,0.0,-2.8001,-2.782,-2.7827,-2.7879,-2.8024,-2.814,-2.8641,-2.9638,-2.9987,-3.0324,-3.0616,-3.094,-3.1249,-3.1482,-3.1482,-3.1482,0.0,0.0,0.0,-3.1539,-3.1727,-3.1841,-3.1955,-3.2135,-3.2586,-3.3093,-3.3198,-3.3563,-3.4036,-3.4333,-3.4625,-3.4975,-3.5515,-3.5817,-3.5993,-3.5993,-3.6079,-3.6148,-3.6122,-3.6165,-3.6225,-3.6225,-3.6208,-3.6301,-3.6457,-3.6825,-3.7248,-3.7721,-3.8135,-3.8483,-3.8658,-3.8707,-3.8707,-3.8707,-3.8707,-3.8707,-3.8707,-3.8738,-3.8897,-3.9338,-3.9424,-3.9749,-4.0622,-4.1132,-4.1785,-4.2637,-4.3005,-4.3393,-4.3923,-4.3961,-4.3942,-4.4005,-4.4005,-4.4005,-4.4005,-4.4005,-4.4005,-4.4005,-4.4005,-4.4079,-4.4192,-4.4457,-4.465,-3.0194,-3.028,-3.028,-2.9907,-2.9767,-2.9607,-2.9141,-2.8761,-2.8366,0.0,0.0,0.0,0.0,-2.626,0.0,0.0,0.0,0.0,0.0,0.0,0.0,0.0,0.0,0.0,0.0,0.0,0.0,0.0,0.0,-2.711,-2.711,-2.729,-2.7539,-2.7683,-2.7855,-2.7968,-2.8194,-2.9059,-2.9696,-3.0142,-3.066,-3.116,-3.1482,-3.1482,-3.1482,-3.1482,0.0,0.0,-3.1539,-3.1727,-3.1841,-3.1898,-3.2094,-3.2492,-3.2949,-3.3039,-3.3407,-3.3919,-3.4086,-3.4577,-3.5224,-3.5667,-3.5993,-3.6225,-3.6225,-3.6251,-3.6259,-3.6088,-3.6122,-3.6208,-3.6208,-3.6276,-3.6301,-3.6367,-3.6638,-3.7017,-3.7505,-3.7879,-3.8219,-3.8627,-3.8707,-3.8707,-3.8707,-3.8707,-3.8707,-3.8707,-3.875,-3.8792,-3.8792,-3.8851,-3.9169,-3.9834,-4.0037,-4.0725,-4.2211,-4.2465,-4.2891,-4.3763,-4.3931,-4.4005,-4.4005,-4.4005,-4.4005,-4.4005,-4.4048,-4.4048,-4.4005,-4.4079,-4.4221,-4.443,-4.4726,-4.4985,-3.0095,-3.0619,-3.0928,-3.0097,-2.9418,-2.8934,-2.8772,-2.8174,-2.7435,0.0,0.0,0.0,0.0,-2.5183,-2.4434,0.0,0.0,0.0,0.0,0.0,0.0,0.0,0.0,0.0,0.0,0.0,0.0,0.0,0.0,0.0,-2.614,-2.5976,-2.6036,-2.6394,-2.6517,-2.6666,-2.6813,-2.8161,-2.9258,-3.0127,-3.0231,-3.0686,-3.1482,-3.1482,-3.1482,-3.1539,0.0,-3.1727,-3.1784,-3.1883,-3.2053,-3.215,-3.2191,-3.2342,-3.2492,-3.2492,-3.2841,-3.3443,-3.4464,-3.5299,-3.5888,-3.5932,-3.6079,-3.6225,-3.6225,-3.6251,-3.6301,-3.6259,-3.6259,-3.6259,-3.6259,-3.6301,-3.6367,-3.6719,-3.686,-3.7094,-3.7844,-3.8068,-3.8219,-3.8627,-3.8707,-3.8707,-3.8707,-3.8707,-3.8707,-3.8707,-3.8707,-3.8738,-3.8738,-3.8762,-3.8888,-3.9076,-3.9745,-4.0341,-4.0707,-4.1386,-4.2129,-4.2927,-4.3615,-4.4005,-4.4005,-4.4005,-4.4005,-4.4005,-4.4221,-4.4221,-4.4005,-4.4457,-4.4572,-4.4411,-4.4896,-4.5159,-3.0708,-3.0576,-3.0442,-3.0448,-3.0486,-3.0446,-3.0155,-2.9547,-2.8741,0.0,0.0,0.0,0.0,0.0,-2.5063,-2.5492,0.0,0.0,0.0,0.0,0.0,0.0,0.0,0.0,0.0,0.0,0.0,0.0,0.0,0.0,-2.4439,-2.4727,-2.5104,-2.5342,-2.5632,-2.5974,-2.6379,-2.7238,-2.8134,-2.9094,-2.9788,-3.0389,-3.0986,-3.1302,-3.1482,-3.1539,0.0,-3.1799,-3.1799,-3.2053,-3.2135,-3.2191,-3.2302,-3.2342,-3.2398,-3.2398,-3.2788,-3.3443,-3.4301,-3.5035,-3.5722,-3.6019,-3.6148,-3.6233,-3.6233,-3.6276,-3.6301,-3.6301,-3.6301,-3.6301,-3.6301,-3.6301,-3.6343,-3.6516,-3.6557,-3.6781,-3.7614,-3.7774,-3.7948,-3.8596,-3.8707,-3.8689,-3.875,-3.8732,-3.878,-3.8792,-3.884,-3.8851,-3.8851,-3.8921,-3.896,-3.8989,-3.9369,-3.9834,-4.0346,-4.0736,-4.1479,-4.2723,-4.3559,-4.4005,-4.4005,-4.4005,-4.4079,-4.4221,-4.4346,-4.443,-4.443,-4.4676,-4.48,-4.4849,-4.5074,-4.5282,-3.1219,-3.0629,-3.0167,-3.0716,-3.1027,-3.1203,-3.1249,-3.0574,-2.9607,0.0,0.0,0.0,0.0,-2.5304,0.0,0.0,0.0,0.0,0.0,0.0,0.0,0.0,0.0,0.0,0.0,0.0,0.0,0.0,0.0,0.0,-2.3148,-2.38,-2.4323,-2.4513,-2.4937,-2.5412,-2.592,-2.6379,-2.719,-2.8207,-2.9359,-3.0078,-3.0522,-3.121,-3.1539,-3.1597,-3.1784,-3.1841,-3.1883,-3.215,-3.2247,-3.2247,-3.2342,-3.2453,-3.2508,-3.2749,-3.3198,-3.3836,-3.4431,-3.4964,-3.5406,-3.5848,-3.5897,-3.5783,-3.5783,-3.5904,-3.6042,-3.6042,-3.6163,-3.6301,-3.6301,-3.6301,-3.6301,-3.6301,-3.6367,-3.6661,-3.7377,-3.7596,-3.7895,-3.8609,-3.875,-3.875,-3.8822,-3.8822,-3.8851,-3.8892,-3.8921,-3.8997,-3.8997,-3.9036,-3.9073,-3.9073,-3.9101,-3.9361,-4.003,-4.0271,-4.0921,-4.2166,-4.3169,-4.3801,-4.3986,-4.4005,-4.4121,-4.4383,-4.4465,-4.4599,-4.48,-4.4938,-4.5052,-4.5201,-4.5263,-4.54,-3.1203,-3.1146,-3.1042,-3.0769,-2.9783,-2.9246,-3.0761,-2.9745,0.0,-2.8243,0.0,0.0,0.0,-2.387,0.0,0.0,0.0,0.0,0.0,0.0,0.0,0.0,0.0,0.0,0.0,0.0,0.0,0.0,0.0,0.0,-2.3088,-2.3255,-2.361,-2.4021,-2.4381,-2.4667,-2.4797,-2.5714,-2.6827,-2.8207,-2.8847,-2.9648,-3.0522,-3.121,-3.1597,-3.1799,-3.1955,-3.2053,-3.2191,-3.2342,-3.2398,-3.2398,-3.2398,-3.2578,-3.2935,-3.3767,-3.4333,-3.483,-3.5722,-3.5702,-3.5225,-3.5266,-3.48,-3.4249,-3.4249,-3.4731,-3.5266,-3.5266,-3.5766,-3.6301,-3.6301,-3.6301,-3.6301,-3.6301,-3.662,-3.7058,-3.7506,-3.7928,-3.8373,-3.8803,-3.8881,-3.8881,-3.8892,-3.8892,-3.8892,-3.891,-3.8892,-3.891,-3.891,-3.8968,-3.9007,-3.9007,-3.9045,-3.912,-3.9194,-3.9918,-4.0438,-4.0568,-4.2017,-4.3225,-4.3968,-4.4005,-4.4121,-4.4383,-4.465,-4.4776,-4.48,-4.5302,-4.5419,-4.5201,-4.5476,-4.5586,-3.2017,-3.1654,-3.1203,-3.096,-3.0407,0.0,0.0,-3.1099,-2.9625,-2.7656,-2.7063,0.0,0.0,0.0,0.0,0.0,0.0,0.0,0.0,0.0,0.0,0.0,0.0,0.0,0.0,0.0,0.0,0.0,0.0,0.0,0.0,-2.2445,-2.2859,-2.3135,-2.3551,-2.4021,-2.4553,-2.5092,-2.5716,-2.6477,-2.7969,-2.891,-2.934,-3.0083,-3.0493,-3.0563,-3.0806,-3.0899,-3.0953,-3.1113,-3.1166,-3.1166,-3.1362,-3.1571,-3.1864,-3.24,-3.2945,-3.3532,-3.4098,-3.437,-3.4507,-3.4507,-3.4318,-3.4093,-3.4093,-3.4283,-3.453,-3.4614,-3.4844,-3.5255,-3.6084,-3.6301,-3.6343,-3.6502,-3.669,-3.7013,-3.7667,-3.7928,-3.8212,-3.8785,-3.891,-3.8892,-3.8968,-3.895,-3.8979,-3.9036,-3.9017,-3.9017,-3.9017,-3.9064,-3.9045,-3.9045,-3.9073,-3.9101,-3.9101,-3.9398,-3.9807,-4.0364,-4.1906,-4.2946,-4.3243,-4.3726,-4.4121,-4.4383,-4.465,-4.4872,-4.5052,-4.5419,-4.555,-4.5438,-4.555,-4.5586,-3.2804,-3.206,-3.1331,-3.1336,0.0,0.0,-3.26,-3.2065,-3.0533,-2.7883,-2.5773,0.0,0.0,0.0,0.0,0.0,0.0,0.0,0.0,0.0,0.0,0.0,0.0,0.0,0.0,0.0,0.0,0.0,0.0,0.0,0.0,-2.1726,-2.2223,-2.2322,-2.2859,-2.3399,-2.4002,-2.4483,-2.4937,-2.5189,-2.6834,-2.788,-2.8434,-2.9387,-2.9917,-2.997,-3.0099,-3.0293,-3.0397,-3.0516,-3.0552,-3.0654,-3.0842,-3.1027,-3.1323,-3.1646,-3.2115,-3.263,-3.3127,-3.341,-3.3675,-3.3775,-3.3696,-3.3526,-3.3526,-3.3717,-3.3946,-3.4007,-3.4219,-3.46,-3.5521,-3.5972,-3.6203,-3.6359,-3.6812,-3.7281,-3.7843,-3.8147,-3.8405,-3.8873,-3.895,-3.8979,-3.9036,-3.9036,-3.9064,-3.9101,-3.9101,-3.9101,-3.9101,-3.9101,-3.9101,-3.9101,-3.9101,-3.9129,-3.9156,-3.9165,-3.9425,-4.0076,-4.1418,-4.2348,-4.2779,-4.3336,-4.386,-4.4383,-4.4572,-4.4849,-4.5201,-4.5381,-4.5513,-4.5586,-4.5586,-4.5586,-3.3369,-3.2372,-3.1515,0.0,0.0,0.0,-3.297,-3.2187,-3.0646,-2.8965,-2.3741,-1.956,-1.9916,0.0,0.0,0.0,0.0,0.0,0.0,0.0,0.0,0.0,0.0,0.0,0.0,0.0,0.0,0.0,0.0,0.0,0.0,-2.1308,-2.1698,-2.1698,-2.2383,-2.2739,-2.2909,-2.3943,-2.4567,-2.4681,-2.5453,-2.6529,-2.7935,-2.9327,-3.0031,-3.0173,-3.0173,-3.0418,-3.0775,-3.0775,-3.0911,-3.1079,-3.1079,-3.1274,-3.1598,-3.1945,-3.2269,-3.2557,-3.3313,-3.3191,-3.2737,-3.3058,-3.2773,-3.2283,-3.2283,-3.2845,-3.3476,-3.3476,-3.4019,-3.4581,-3.4581,-3.5177,-3.5794,-3.5811,-3.6952,-3.8083,-3.8083,-3.8609,-3.9082,-3.9101,-3.9101,-3.9101,-3.9101,-3.9101,-3.9101,-3.9101,-3.9101,-3.9101,-3.9101,-3.9101,-3.9101,-3.9101,-3.9101,-3.9156,-3.9298,-3.9298,-3.9376,-3.9483,-4.0309,-4.1378,-4.2735,-4.2797,-4.3282,-4.4364,-4.4383,-4.4676,-4.5201,-4.5201,-4.5342,-4.5586,-4.5586,-4.5586,-3.2889,-3.2594,0.0,-3.1732,0.0,0.0,0.0,-2.7156,0.0,0.0,-1.8603,-1.7307,-1.7799,0.0,0.0,0.0,0.0,0.0,0.0,0.0,0.0,0.0,0.0,0.0,0.0,0.0,0.0,0.0,0.0,0.0,0.0,-2.1019,-2.1423,-2.1698,-2.2185,-2.2555,-2.2739,-2.3378,-2.3793,-2.3956,-2.4894,-2.603,-2.7193,-2.7728,-2.8246,-2.8782,-2.8882,-2.9079,-2.9356,-2.9548,-2.9722,-2.9986,-2.9986,-3.0156,-3.0445,-3.0735,-3.0892,-3.1037,-3.1573,-3.1862,-3.1963,-3.2147,-3.2229,-3.2283,-3.2283,-3.2493,-3.2687,-3.2824,-3.3017,-3.3228,-3.3364,-3.4001,-3.4712,-3.5083,-3.5651,-3.6402,-3.7271,-3.7723,-3.82,-3.8943,-3.9101,-3.9101,-3.9101,-3.9101,-3.9101,-3.9101,-3.9101,-3.911,-3.9219,-3.9245,-3.9272,-3.9376,-3.9376,-3.9401,-3.9452,-3.9452,-3.9477,-3.9502,-3.9727,-4.0359,-4.1341,-4.2482,-4.3231,-4.3557,-4.4353,-4.4827,-4.4995,-4.5173,-4.5361,-4.5531,-4.5531,-4.5584,-3.3403,-3.3105,0.0,-3.2784,-2.8561,-2.35,-2.0046,0.0,0.0,0.0,0.0,-1.4836,-1.5676,0.0,0.0,0.0,0.0,0.0,0.0,0.0,0.0,0.0,0.0,0.0,0.0,0.0,0.0,0.0,0.0,0.0,0.0,-2.0009,-2.0602,-2.1221,-2.1702,-2.2199,-2.28,-2.321,-2.3569,-2.376,-2.4523,-2.5439,-2.6414,-2.6953,-2.753,-2.822,-2.8653,-2.8889,-2.9059,-2.9305,-2.9486,-2.9665,-2.9665,-2.9754,-2.9946,-3.013,-3.0199,-3.0326,-3.0716,-3.1162,-3.1585,-3.1821,-3.2179,-3.2521,-3.2521,-3.2521,-3.2555,-3.2672,-3.2705,-3.2737,-3.2884,-3.3241,-3.3779,-3.4443,-3.5091,-3.581,-3.6565,-3.6974,-3.747,-3.8442,-3.8618,-3.8711,-3.9045,-3.9137,-3.9165,-3.9165,-3.9219,-3.9298,-3.9376,-3.9376,-3.9427,-3.9483,-3.9502,-3.9508,-3.9556,-3.9599,-3.9599,-3.9647,-3.9647,-3.9892,-4.0419,-4.16,-4.2543,-4.32,-4.3868,-4.4455,-4.4895,-4.5129,-4.532,-4.5495,-4.5547,-4.5616,-3.4377,-3.3672,-3.2953,-3.3677,-2.8076,0.0,-1.028,-1.1855,-1.5557,-1.6412,0.0,-1.2371,0.0,0.0,0.0,0.0,0.0,0.0,0.0,0.0,0.0,0.0,0.0,0.0,0.0,0.0,0.0,0.0,0.0,0.0,0.0,-1.868,-1.9465,-2.0462,-2.1014,-2.1779,-2.2787,-2.3318,-2.3688,-2.3891,-2.4305,-2.4851,-2.5563,-2.6715,-2.755,-2.8174,-2.909,-2.9515,-2.9531,-2.9814,-2.9918,-2.9902,-2.9902,-2.9946,-3.0017,-3.0017,-3.0119,-3.0248,-3.0568,-3.1027,-3.1514,-3.1878,-3.2369,-3.2852,-3.2884,-3.2916,-3.2916,-3.2916,-3.2916,-3.2916,-3.2916,-3.2916,-3.3062,-3.383,-3.4898,-3.5763,-3.5866,-3.6233,-3.679,-3.7634,-3.7782,-3.8042,-3.8841,-3.9107,-3.9205,-3.9305,-3.9408,-3.9483,-3.9526,-3.9526,-3.9508,-3.9551,-3.9551,-3.9599,-3.9717,-3.9717,-3.9781,-3.9889,-3.9889,-3.9889,-3.9889,-4.0495,-4.1518,-4.2983,-4.3077,-4.3679,-4.4781,-4.4931,-4.5166,-4.5495,-4.5635,-4.57,-3.3244,-3.3235,0.0,0.0,-1.876,-1.0292,-0.4856,-0.5321,-0.7339,-0.8592,-0.978,-1.0896,0.0,0.0,0.0,0.0,0.0,0.0,0.0,0.0,0.0,0.0,0.0,0.0,0.0,0.0,0.0,0.0,0.0,0.0,-1.7736,-1.8489,-1.9156,-1.9814,-2.0899,-2.1741,-2.2137,-2.3125,-2.3688,0.0,-2.4305,-2.4694,-2.516,-2.6108,-2.7144,-2.8304,-2.9136,-2.9576,-2.9681,-2.9902,-3.0033,-3.0162,-3.0162,-3.0146,-3.0146,-3.0146,-3.0205,-3.0248,-3.0401,-3.074,-3.1184,-3.164,-3.2056,-3.2488,-3.2802,-3.2916,-3.2916,-3.2916,-3.2916,-3.2916,-3.2916,-3.2916,-3.2952,-3.3098,-3.3494,-3.4027,-3.487,-3.5257,-3.5742,-3.6753,-3.6946,-3.7206,-3.8024,-3.8268,-3.8621,-3.9358,-3.9483,-3.9551,-3.9647,-3.967,-3.9693,-3.9804,-3.9804,-3.9845,-3.9848,-3.9867,-3.9867,-3.9889,-3.9889,-3.9889,-3.9889,-4.0677,-4.1279,-4.1619,-4.2243,-4.3023,-4.3966,-4.4094,-4.4591,-4.5419,-4.5545,-4.5677,-3.2378,0.0,0.0,-1.6046,0.0,-0.6828,-0.212,-0.2244,-0.3838,-0.5351,-0.7382,0.0,0.0,0.0,0.0,0.0,0.0,0.0,0.0,0.0,0.0,0.0,0.0,0.0,0.0,0.0,0.0,0.0,0.0,-1.5463,-1.6585,-1.7129,-1.7872,-1.888,-1.9792,-2.0568,-2.1302,-2.2187,-2.275,-2.3065,-2.4002,-2.4808,-2.5674,-2.6336,-2.7348,-2.8543,-2.9074,-2.947,-2.983,-2.993,-3.0017,-3.0103,-3.0146,-3.0231,-3.029,-3.029,-3.0333,-3.0359,-3.0443,-3.0699,-3.1083,-3.1338,-3.1841,-3.2352,-3.2588,-3.2802,-3.2948,-3.2979,-3.3011,-3.3011,-3.3011,-3.3011,-3.3011,-3.3011,-3.3099,-3.3376,-3.3989,-3.4264,-3.4706,-3.5855,-3.6048,-3.6333,-3.7305,-3.7922,-3.8479,-3.9029,-3.9448,-3.9735,-3.9781,-3.9804,-3.9826,-3.9889,-3.9889,-3.9889,-3.9889,-3.9889,-3.9889,-3.9889,-3.9889,-3.9889,-3.9889,-4.0347,-4.0786,-4.129,-4.1708,-4.236,-4.3262,-4.3809,-4.4345,-4.4897,-4.5436,-4.5723,-2.8963,0.0,-1.0238,-0.6092,-0.5479,0.0,-0.0756,-0.0992,-0.255,-0.4341,0.0,0.0,0.0,0.0,0.0,0.0,0.0,0.0,0.0,0.0,0.0,0.0,0.0,0.0,0.0,0.0,0.0,0.0,0.0,-1.4266,-1.5275,-1.563,-1.6515,-1.8007,-1.8536,-1.9344,-2.0526,-2.129,-2.1865,-2.2237,-2.3682,-2.5034,-2.634,-2.6841,-2.7565,-2.8543,-2.8935,-2.9425,-2.9858,-3.0017,-3.0103,-3.0146,-3.0231,-3.0359,-3.0501,-3.0501,-3.0526,-3.0568,-3.0568,-3.0797,-3.11,-3.1123,-3.162,-3.2214,-3.2369,-3.2654,-3.2948,-3.3055,-3.3086,-3.3086,-3.3086,-3.3086,-3.3086,-3.3086,-3.3129,-3.3238,-3.3393,-3.3491,-3.3899,-3.4976,-3.5312,-3.5684,-3.6663,-3.7627,-3.8361,-3.866,-3.9267,-3.974,-3.987,-3.9889,-3.9889,-3.9889,-3.9889,-3.9889,-3.9889,-3.9889,-3.9889,-3.9889,-3.9889,-3.9889,-3.9889,-3.9933,-4.0342,-4.1189,-4.1207,-4.1628,-4.2546,-4.3436,-4.3943,-4.4116,-4.5124,-4.5587,-1.7527,0.0,-0.5756,0.0,-0.2206,0.1034,0.0,0.0,-0.1752,0.0,0.0,0.0,0.0,0.0,0.0,0.0,0.0,0.0,0.0,0.0,0.0,0.0,0.0,0.0,0.0,0.0,0.0,0.0,-1.3324,-1.4042,-1.4681,-1.5542,-1.6394,-1.7295,-1.8566,-1.9552,-2.0333,-2.1365,-2.2199,-2.2836,-2.4047,-2.5258,-2.6286,-2.6659,-2.7203,-2.7879,-2.8858,-2.9425,-2.9677,-3.0146,-3.0443,-3.0609,-3.0609,-3.0692,-3.0831,-3.0831,-3.0831,-3.0871,-3.0871,-3.0871,-3.0975,-3.1312,-3.1504,-3.1728,-3.2386,-3.2588,-3.2737,-3.3024,-3.3086,-3.3086,-3.3086,-3.3086,-3.3086,-3.3086,-3.3117,-3.3178,-3.3433,-3.3509,-3.3679,-3.4253,-3.5091,-3.5818,-3.6085,-3.6804,-3.7681,-3.8584,-3.8774,-3.9115,-3.9816,-3.9889,-3.9889,-3.9889,-3.9889,-3.9889,-3.9889,-3.9889,-3.9889,-3.9889,-3.9889,-3.9889,-3.9889,-4.0,-4.0196,-4.0438,-4.0329,-4.0711,-4.1589,-4.1961,-4.2533,-4.3269,-4.4293,-4.4755,-0.3944,-0.3475,-0.4072,0.0,0.1238,0.2255,0.0668,0.0,-0.1138,0.0,0.0,0.0,0.0,0.0,0.0,0.0,0.0,0.0,0.0,0.0,0.0,0.0,0.0,0.0,0.0,0.0,0.0,0.0,-1.2666,-1.3317,-1.4106,-1.4903,-1.5824,-1.6664,-1.7696,-1.871,-1.9639,-2.0355,-2.1491,-2.2859,-2.3891,-2.4924,-2.592,-2.6606,-2.7218,-2.773,-2.8606,-2.9182,-2.9605,-3.0146,-3.0443,-3.0526,-3.0651,-3.0749,-3.079,-3.0871,-3.0912,-3.0912,-3.0912,-3.0912,-3.0912,-3.1095,-3.1329,-3.1617,-3.2144,-3.2504,-3.2752,-3.3147,-3.3256,-3.3256,-3.3256,-3.3256,-3.3256,-3.3256,-3.3256,-3.3286,-3.3422,-3.3364,-3.3426,-3.3968,-3.4738,-3.5299,-3.536,-3.6099,-3.6931,-3.7845,-3.8376,-3.8982,-3.9816,-3.9889,-3.9889,-3.9889,-3.9889,-3.9889,-3.9889,-3.9889,-3.9889,-3.9889,-3.9889,-3.9889,-3.9889,-4.002,-4.0139,-4.0176,-4.0283,-4.0578,-4.1066,-4.1634,-4.2116,-4.2507,-4.3432,-4.4136,0.0,0.0,-0.1316,0.322,0.3532,0.2411,0.0,0.0,-0.0208,0.0,0.0,0.0,0.0,0.0,0.0,0.0,0.0,0.0,0.0,0.0,0.0,0.0,0.0,0.0,0.0,0.0,0.0,0.0,-1.1922,-1.2666,-1.3695,-1.4474,-1.5321,-1.6167,-1.7019,-1.8056,-1.9131,-1.9922,-2.1175,-2.2822,-2.3865,-2.4784,-2.5673,-2.6645,-2.7335,-2.7695,-2.8304,-2.8873,-2.9454,-3.0044,-3.0401,-3.0568,-3.0733,-3.0814,-3.0814,-3.0952,-3.0992,-3.0992,-3.0992,-3.0992,-3.0992,-3.0992,-3.1173,-3.1504,-3.2021,-3.2368,-3.2702,-3.3256,-3.3393,-3.3393,-3.3393,-3.3393,-3.3393,-3.3393,-3.3393,-3.3393,-3.3393,-3.3386,-3.3504,-3.3949,-3.4508,-3.4908,-3.4908,-3.5438,-3.614,-3.6973,-3.7847,-3.8681,-3.9515,-3.98,-3.9933,-3.9933,-3.9933,-3.9933,-3.9933,-3.9933,-3.9933,-3.9933,-3.9933,-3.9933,-3.9933,-4.0101,-4.0194,-4.0194,-4.0462,-4.0642,-4.0733,-4.1377,-4.1699,-4.1719,-4.257,-4.3324,0.0,0.525,0.0,0.373,0.344,0.0,0.0,0.0,0.0,0.0,0.0,0.0,0.0,0.0,0.0,0.0,0.0,0.0,0.0,0.0,0.0,0.0,0.0,0.0,0.0,0.0,0.0,0.0,-1.1242,-1.2452,-1.3492,-1.441,-1.5259,-1.5974,-1.7088,-1.8172,-1.9309,-2.0839,-2.2025,-2.2822,-2.404,-2.5092,-2.5837,-2.6893,-2.7437,-2.761,-2.7993,-2.8528,-2.9239,-2.9821,-3.041,-3.0975,-3.0975,-3.1055,-3.119,-3.119,-3.119,-3.119,-3.119,-3.119,-3.119,-3.119,-3.119,-3.1368,-3.2074,-3.2317,-3.2453,-3.3196,-3.3393,-3.3393,-3.3393,-3.3393,-3.3393,-3.3393,-3.3393,-3.3393,-3.3393,-3.3788,-3.4148,-3.4179,-3.4567,-3.4908,-3.4908,-3.4946,-3.5249,-3.6121,-3.6994,-3.7888,-3.8743,-3.9581,-4.0096,-4.0096,-4.0096,-4.0057,-3.9996,-3.9996,-3.9996,-3.9996,-3.9996,-4.0017,-4.0096,-4.0336,-4.0496,-4.0496,-4.0734,-4.0765,-4.0511,-4.0739,-4.0848,-4.0868,-4.168,-4.2086,0.0,0.0,0.0,0.3954,0.3533,0.3078,0.1997,0.1806,0.0,0.0,0.0,0.0,0.0,0.0,0.0,0.0,0.0,0.0,0.0,0.0,0.0,0.0,0.0,0.0,0.0,0.0,0.0,0.0,0.0,-1.0484,-1.1909,-1.2785,-1.4011,-1.5745,-1.6594,-1.7891,-1.977,-2.0944,-2.1901,-2.2677,-2.3539,-2.4513,-2.5673,-2.6549,-2.7255,-2.774,-2.8137,-2.8527,-2.895,-2.9793,-3.03,-3.0576,-3.0975,-3.1173,-3.1274,-3.1274,-3.1274,-3.1252,-3.123,-3.119,-3.119,-3.119,-3.119,-3.1329,-3.2109,-3.2351,-3.2519,-3.3327,-3.352,-3.352,-3.352,-3.352,-3.352,-3.352,-3.352,-3.352,-3.352,-3.3884,-3.4189,-3.4189,-3.4651,-3.502,-3.502,-3.502,-3.5305,-3.6141,-3.654,-3.7224,-3.8612,-3.9069,-3.9489,-4.004,-4.0117,-4.0077,-4.0057,-4.0057,-4.0057,-4.0057,-4.0057,-4.0077,-4.0117,-4.027,-4.0372,-4.0372,-4.0642,-4.0765,-4.0765,-4.0837,-4.0848,-4.0867,-4.1158,-4.1563,0.4864,0.4709,0.0,0.0,0.3484,0.3215,0.2254,0.0,0.0,0.0,0.0,0.0,0.0,0.0,0.0,0.0,0.0,0.0,0.0,0.0,0.0,0.0,0.0,0.0,0.0,0.0,0.0,0.0,0.0,0.0,-1.0194,-1.1236,-1.3041,-1.5587,-1.6645,-1.8085,-2.0096,-2.1135,-2.2013,-2.2714,-2.3539,-2.457,-2.5714,-2.6534,-2.7342,-2.8073,-2.8317,-2.859,-2.8935,-2.9677,-3.0199,-3.0559,-3.0975,-3.1213,-3.1351,-3.1351,-3.1351,-3.1351,-3.1308,-3.1308,-3.1308,-3.1308,-3.1308,-3.1445,-3.2231,-3.247,-3.2636,-3.3386,-3.3605,-3.3605,-3.3605,-3.3605,-3.3605,-3.3605,-3.3605,-3.3605,-3.3605,-3.3917,-3.4223,-3.4223,-3.4694,-3.5092,-3.5092,-3.5092,-3.5283,-3.5816,-3.6157,-3.6843,-3.8252,-3.869,-3.9185,-4.0061,-4.0157,-4.0157,-4.0137,-4.0137,-4.0137,-4.0137,-4.0137,-4.0157,-4.0234,-4.0375,-4.0454,-4.0496,-4.073,-4.0869,-4.0971,-4.0926,-4.0907,-4.0907,-4.0907,-4.1335,0.0,0.0,0.0,0.0,0.0,0.0,0.2093,0.0,0.2406,0.0,0.0,0.0,0.0,0.0,0.0,0.0,0.0,0.0,0.0,0.0,0.0,0.0,0.0,0.0,0.0,0.0,0.0,0.0,-0.6404,-0.7759,-0.8408,-1.0086,-1.2424,-1.5562,-1.7298,-1.8813,-2.0096,-2.1451,-2.2347,-2.2969,-2.4239,-2.519,-2.5849,-2.693,-2.781,-2.8511,-2.8527,-2.8811,-2.9305,-2.9499,-3.0156,-3.0975,-3.0975,-3.123,-3.1517,-3.1517,-3.1517,-3.1517,-3.1517,-3.1517,-3.1517,-3.1517,-3.1517,-3.1651,-3.2404,-3.2588,-3.2752,-3.3415,-3.3605,-3.3605,-3.3605,-3.3605,-3.3605,-3.3605,-3.3605,-3.3605,-3.3605,-3.3986,-3.4311,-3.4292,-3.4733,-3.5092,-3.5092,-3.5092,-3.5092,-3.5092,-3.5813,-3.6687,-3.7583,-3.8439,-3.9317,-4.0215,-4.031,-4.0272,-4.0196,-4.0196,-4.0196,-4.0196,-4.0215,-4.0308,-4.0489,-4.0629,-4.0754,-4.0878,-4.103,-4.1085,-4.1085,-4.0971,-4.0907,-4.0907,-4.0888,-4.1354,0.2363,0.0,0.0,0.0,0.0,0.0,0.2104,0.2125,0.2133,0.0,0.0,0.0,0.0,0.0,0.0,0.0,0.0,0.0,0.0,0.0,0.0,0.0,0.0,0.0,0.0,0.0,0.0,0.0,-0.3824,-0.5076,-0.6331,-0.9458,-1.2563,-1.5446,-1.6986,-1.8475,-1.9868,-2.1262,-2.2457,-2.3412,-2.3859,-2.491,-2.6453,-2.6938,-2.7715,-2.8685,-2.9167,-2.9396,-2.947,-2.9677,-2.9968,-3.0326,-3.0935,-3.1213,-3.1351,-3.1521,-3.1559,-3.1559,-3.1517,-3.1517,-3.1517,-3.1517,-3.1517,-3.1651,-3.2437,-3.2669,-3.283,-3.3541,-3.3753,-3.3753,-3.3753,-3.3753,-3.3753,-3.3753,-3.3753,-3.3753,-3.3753,-3.4005,-3.4255,-3.4357,-3.4813,-3.5176,-3.5176,-3.5176,-3.5176,-3.5176,-3.5367,-3.6071,-3.7504,-3.7922,-3.8648,-4.0138,-4.031,-4.0291,-4.0272,-4.0272,-4.0272,-4.0272,-4.0362,-4.0441,-4.0489,-4.0629,-4.0718,-4.0754,-4.0898,-4.0963,-4.0963,-4.1023,-4.1038,-4.1038,-4.0988,-4.1132,0.0696,0.0905,0.1282,0.1506,0.0,0.0,0.1429,0.1418,0.1209,0.0,0.0,0.0,0.0,0.0,0.0,0.0,0.0,0.0,0.0,0.0,0.0,0.0,0.0,0.0,0.0,-0.1499,-0.172,-0.1305,-0.197,-0.3253,-0.5288,-0.8479,-1.1417,-1.3924,-1.6278,-1.8044,-1.9183,-2.1318,-2.2798,-2.3682,-2.4221,-2.5231,-2.6534,-2.7041,-2.7799,-2.8716,-2.9396,-2.9726,-2.9694,-2.9826,-3.007,-3.0393,-3.0861,-3.1235,-3.1542,-3.1728,-3.1802,-3.1802,-3.1746,-3.1763,-3.1726,-3.1651,-3.1631,-3.1763,-3.2352,-3.2651,-3.289,-3.3476,-3.3734,-3.386,-3.3807,-3.3807,-3.3807,-3.3807,-3.3807,-3.3807,-3.3807,-3.3998,-3.425,-3.442,-3.4793,-3.5107,-3.5193,-3.5209,-3.5209,-3.5209,-3.5209,-3.5687,-3.7024,-3.7483,-3.8228,-3.9623,-4.0081,-4.031,-4.031,-4.031,-4.0328,-4.0381,-4.046,-4.0549,-4.0655,-4.0742,-4.0818,-4.0859,-4.0935,-4.0988,-4.0988,-4.1071,-4.111,-4.111,-4.1071,-4.1052,-0.1196,-0.0783,-0.0335,0.0279,0.0502,0.0,0.0361,0.0305,0.0124,-0.0525,0.0,0.0,0.0,0.0,0.0,0.0,0.0,0.0,0.0,0.0,0.0,0.0,0.0,0.0,-0.0672,-0.0739,-0.0671,-0.0402,-0.0686,-0.1983,-0.464,-0.681,-0.9244,-1.2084,-1.5105,-1.7398,-1.895,-2.1711,-2.3386,-2.3917,-2.4948,-2.5798,-2.639,-2.7159,-2.7963,-2.8732,-2.9425,-2.9858,-3.0017,-3.0017,-3.0342,-3.0723,-3.0804,-3.1218,-3.18,-3.2037,-3.2108,-3.2108,-3.2108,-3.2108,-3.2073,-3.1893,-3.1873,-3.1893,-3.2283,-3.2634,-3.2996,-3.3361,-3.3662,-3.3868,-3.3834,-3.3807,-3.3807,-3.3788,-3.3807,-3.3815,-3.3815,-3.4023,-3.4274,-3.4486,-3.4733,-3.4964,-3.5176,-3.5209,-3.5209,-3.5209,-3.5209,-3.5515,-3.6394,-3.7196,-3.8037,-3.8916,-3.9775,-4.031,-4.0328,-4.0328,-4.0379,-4.05,-4.053,-4.0655,-4.0888,-4.0906,-4.0988,-4.1091,-4.1091,-4.111,-4.111,-4.111,-4.111,-4.111,-4.111,-4.111,-0.3414,0.0,0.0,0.0,0.0,0.0,-0.0284,-0.0174,-0.0178,0.0,0.0,0.0,0.0,0.0,0.0,0.0,0.0,0.0,0.0,0.0,0.0,0.0,0.0,0.0,-0.0202,-0.0404,-0.0336,0.0135,0.0,-0.0836,-0.2504,-0.2614,-0.6047,-1.3615,-1.3382,-1.6281,-2.2819,-2.3043,-2.3682,-2.4765,-2.5118,-2.5715,-2.6669,-2.7464,-2.8207,-2.8904,-2.9738,-3.0103,-3.0146,-3.0274,-3.0316,-3.0384,-3.0845,-3.1201,-3.1449,-3.2038,-3.2249,-3.2249,-3.2249,-3.2197,-3.2108,-3.2197,-3.2126,-3.2161,-3.2813,-3.3093,-3.3225,-3.3689,-3.3842,-3.3868,-3.3834,-3.3842,-3.3868,-3.3815,-3.3868,-3.3947,-3.3895,-3.4087,-3.4375,-3.4612,-3.4793,-3.4982,-3.5245,-3.5245,-3.5226,-3.5277,-3.5226,-3.5515,-3.6394,-3.7196,-3.8037,-3.8916,-3.9775,-4.0345,-4.0454,-4.0469,-4.0506,-4.0653,-4.0761,-4.0848,-4.0902,-4.0993,-4.1078,-4.1089,-4.1097,-4.111,-4.111,-4.111,-4.111,-4.111,-4.111,-4.111,0.0,0.0,0.0,-0.274,0.0,0.0,0.0,-0.162,-0.1647,-0.1556,0.0,0.0,0.0,0.0,0.0,0.0,0.0,0.0,0.0,0.0,0.0,0.0,0.0,0.0,0.0135,0.0403,0.1007,0.208,0.1828,0.1091,-0.0205,-0.0844,-0.4897,-1.3029,-1.3727,-1.7032,-2.3352,-2.4351,-2.4984,-2.5203,-2.5495,-2.6056,-2.675,-2.7429,-2.8061,-2.8764,-2.9544,-3.0044,-3.0316,-3.0359,-3.0359,-3.0401,-3.0982,-3.1432,-3.1841,-3.2283,-3.2454,-3.2454,-3.2454,-3.2404,-3.2335,-3.2318,-3.2249,-3.2283,-3.2781,-3.3166,-3.3486,-3.3876,-3.3998,-3.3972,-3.3921,-3.3921,-3.3947,-3.3895,-3.3947,-3.3998,-3.3947,-3.4117,-3.4379,-3.4653,-3.4832,-3.5035,-3.5273,-3.5258,-3.5261,-3.5293,-3.5226,-3.5362,-3.5837,-3.6599,-3.7458,-3.8355,-3.9197,-3.9902,-4.0403,-4.0457,-4.0526,-4.0699,-4.0762,-4.0855,-4.0987,-4.107,-4.1089,-4.1103,-4.1091,-4.111,-4.111,-4.111,-4.111,-4.111,-4.111,-4.111,0.0,0.0,0.0,0.0,0.0,-0.3503,0.0,0.0,0.0,0.0,0.0,0.0,0.0,0.0,0.0,0.0,0.0,0.0,0.0,0.0,0.0,0.0,0.0,0.0,0.0,0.1265,0.2333,0.3816,0.3586,0.3066,0.2316,0.0886,-0.3117,-1.039,-1.3313,-1.727,-2.2385,-2.5392,-2.6513,-2.5877,-2.6176,-2.6486,-2.6832,-2.7291,-2.7864,-2.8559,-2.9303,-2.9941,-3.0401,-3.0459,-3.0526,-3.0658,-3.1162,-3.1694,-3.2214,-3.2521,-3.2672,-3.2672,-3.2672,-3.2639,-3.2573,-3.2454,-3.2454,-3.2504,-3.2798,-3.3225,-3.3707,-3.4005,-3.4099,-3.4074,-3.4023,-3.3998,-3.4023,-3.3998,-3.4023,-3.4023,-3.4023,-3.4232,-3.4486,-3.4694,-3.4944,-3.5136,-3.53,-3.5304,-3.5308,-3.5308,-3.5258,-3.5242,-3.5293,-3.6017,-3.6818,-3.7578,-3.8517,-3.9397,-4.012,-4.0332,-4.0526,-4.0742,-4.0762,-4.0855,-4.1096,-4.1091,-4.1095,-4.1097,-4.1097,-4.1097,-4.1097,-4.1097,-4.1097,-4.111,-4.111,-4.111,0.0,0.0,0.0,0.0,-0.5567,0.0,0.0,0.0,-0.3368,-0.2925,0.0,0.0,0.0,0.0,0.0,0.0,0.0,0.0,0.0,0.0,0.0,0.0,0.0,0.0,0.0,0.1933,0.2731,0.3478,0.3851,0.4294,0.4894,0.4999,0.1981,-0.454,-0.8757,-1.4157,-2.0952,-2.5541,-2.7725,-2.7419,-2.7232,-2.7122,-2.7011,-2.7327,-2.7947,-2.8732,-2.9483,-3.0027,-3.0485,-3.0609,-3.0797,-3.1083,-3.138,-3.1605,-3.186,-3.2588,-3.2884,-3.2884,-3.2884,-3.2737,-3.2639,-3.277,-3.2943,-3.316,-3.3415,-3.368,-3.3895,-3.4049,-3.4099,-3.4074,-3.4023,-3.4049,-3.4074,-3.4023,-3.4099,-3.4173,-3.4099,-3.448,-3.4851,-3.487,-3.5174,-3.5432,-3.5379,-3.535,-3.5315,-3.5383,-3.5315,-3.53,-3.53,-3.6048,-3.6638,-3.6734,-3.8153,-3.9192,-3.9405,-4.0133,-4.0703,-4.094,-4.0974,-4.1011,-4.1104,-4.1097,-4.1105,-4.1111,-4.1111,-4.1111,-4.1111,-4.1111,-4.1095,-4.111,-4.111,-4.111,0.0,0.0,0.0,0.0,0.0,0.0,-0.586,0.0,-0.5296,0.0,0.0,0.0,0.0,0.0,0.0,0.0,-0.2875,0.0,0.0,0.0,0.0,0.0,0.0,0.0,0.0,0.0,0.0,0.0,0.5219,0.5542,0.5422,0.5744,0.2966,-0.3566,-0.5596,-1.1131,-2.0711,-2.2867,-2.5389,-2.8341,-2.7788,-2.7515,-2.7473,-2.7473,-2.7993,-2.8935,-2.9316,-2.9908,-3.0609,-3.0773,-3.0998,-3.1283,-3.1642,-3.1878,-3.2127,-3.2737,-3.2948,-3.2916,-3.2948,-3.2884,-3.277,-3.2884,-3.3147,-3.3444,-3.3577,-3.3815,-3.4099,-3.4148,-3.4148,-3.4148,-3.4124,-3.4148,-3.4148,-3.4124,-3.4173,-3.4197,-3.4173,-3.4545,-3.4908,-3.4908,-3.5226,-3.5493,-3.546,-3.5412,-3.5364,-3.5398,-3.533,-3.5315,-3.5364,-3.5671,-3.6108,-3.6603,-3.7751,-3.8685,-3.9254,-4.0063,-4.0642,-4.0874,-4.0986,-4.107,-4.1101,-4.1097,-4.1109,-4.1096,-4.1091,-4.1091,-4.1091,-4.1091,-4.1106,-4.1095,-4.1095,-4.1095,-0.9302,0.0,0.0,0.0,0.0,0.0,0.0,0.0,0.0,0.0,0.0,0.0,0.0,0.0,0.0,-0.4138,0.0,-0.2464,0.0,0.0,0.0,0.0,0.0,0.0,0.0,0.0,0.0,0.0,0.0,0.6167,0.5557,0.5881,0.3852,-0.095,-0.2785,-0.8526,-1.8557,-2.0404,-2.3952,-2.917,-2.8403,-2.7978,-2.7855,-2.759,-2.8042,-2.915,-2.9255,-2.9848,-3.0773,-3.0871,-3.1078,-3.13,-3.1842,-3.2109,-3.2266,-3.2834,-3.2979,-3.2948,-3.3011,-3.3024,-3.3068,-3.3037,-3.3339,-3.368,-3.3726,-3.3947,-3.4173,-3.4197,-3.4197,-3.4221,-3.4245,-3.4245,-3.4269,-3.4293,-3.4316,-3.4316,-3.4321,-3.4651,-3.4945,-3.4982,-3.5258,-3.5493,-3.5493,-3.546,-3.5427,-3.5427,-3.5398,-3.5364,-3.5412,-3.5427,-3.5657,-3.6301,-3.7142,-3.8003,-3.8893,-3.9735,-4.0398,-4.0837,-4.1008,-4.1104,-4.1097,-4.1097,-4.1094,-4.1105,-4.1105,-4.1105,-4.1105,-4.1105,-4.1105,-4.1105,-4.1096,-4.1091,0.0,0.0,0.0,-0.9439,0.0,0.0,0.0,0.0,-0.7379,0.0,0.0,0.0,0.0,0.0,-0.6327,-0.5648,-0.4567,0.0,0.0,0.0,0.0,0.0,0.0,0.0,0.0,0.0,0.0,0.0,0.0,0.0,0.5881,0.5877,0.5862,0.5778,-0.024,-0.6619,-1.3198,-1.9243,-2.4893,-3.0136,-2.93,-2.8542,-2.7955,-2.774,-2.8158,-2.9194,-2.948,-3.0081,-3.0912,-3.0975,-3.0975,-3.1015,-3.1789,-3.2039,-3.2109,-3.2848,-3.3073,-3.3028,-3.3055,-3.3262,-3.3458,-3.3419,-3.3607,-3.3924,-3.4055,-3.4099,-3.4124,-3.4173,-3.4197,-3.4221,-3.4363,-3.4386,-3.4427,-3.4561,-3.4602,-3.4604,-3.4672,-3.4851,-3.5034,-3.5157,-3.5354,-3.5493,-3.5493,-3.5493,-3.5493,-3.5493,-3.5493,-3.5493,-3.5493,-3.5493,-3.5512,-3.5532,-3.6257,-3.712,-3.8052,-3.8934,-3.9887,-4.0922,-4.1066,-4.1108,-4.1108,-4.1108,-4.1108,-4.1108,-4.1108,-4.1108,-4.1108,-4.1108,-4.1108,-4.1108,-4.1105,-4.1091,0.0,0.0,-1.0742,-1.0386,0.0,0.0,0.0,0.0,0.0,0.0,0.0,0.0,0.0,0.0,-0.747,-0.6445,-0.5438,-0.4091,0.0,0.0,0.0,0.0,0.0,0.0,0.0,0.0,0.0,0.0,0.6057,0.0,0.0,0.5818,0.5947,0.5939,0.3934,-0.2269,-1.3008,-1.4892,-2.0761,-3.0644,-2.9565,-2.8779,-2.825,-2.8204,-2.8638,-2.9512,-2.9908,-3.0393,-3.0975,-3.1072,-3.1428,-3.186,-3.2127,-3.2486,-3.2898,-3.3152,-3.3183,-3.3055,-3.3086,-3.3208,-3.3386,-3.3447,-3.3652,-3.3954,-3.4154,-3.4316,-3.445,-3.4473,-3.4473,-3.4473,-3.4517,-3.4539,-3.4539,-3.4602,-3.4668,-3.4752,-3.4753,-3.4962,-3.5168,-3.5254,-3.5393,-3.5509,-3.5554,-3.5573,-3.5541,-3.5507,-3.5501,-3.5495,-3.5507,-3.5493,-3.5493,-3.5493,-3.6299,-3.6953,-3.729,-3.8704,-4.0003,-4.0948,-4.1066,-4.1108,-4.1108,-4.1108,-4.1108,-4.1108,-4.1108,-4.1108,-4.1108,-4.1108,-4.1108,-4.1108,-4.1101,-4.1097,-1.1617,-1.1512,0.0,-1.1066,-1.0746,0.0,-1.0432,0.0,0.0,0.0,0.0,0.0,0.0,0.0,-0.8634,-0.7693,-0.6827,-0.5148,0.0,-0.4334,0.0,0.0,0.0,0.0,0.0,0.0,0.0,0.2738,0.4994,0.6274,0.0,0.0,0.5818,0.5877,0.5723,0.0691,-0.971,-1.1809,-1.7799,-2.7593,-2.883,-2.9104,-2.8573,-2.8446,-2.8889,-2.9733,-3.0021,-3.0502,-3.1117,-3.1213,-3.1582,-3.2127,-3.2283,-3.2669,-3.3214,-3.3292,-3.3274,-3.3196,-3.3165,-3.3375,-3.3615,-3.3652,-3.3943,-3.4298,-3.4431,-3.4561,-3.4666,-3.4623,-3.4602,-3.4623,-3.4666,-3.4689,-3.4732,-3.4772,-3.487,-3.4981,-3.5015,-3.5149,-3.5292,-3.5388,-3.5476,-3.5547,-3.5591,-3.5604,-3.5591,-3.5528,-3.5522,-3.5502,-3.5515,-3.5488,-3.5501,-3.5534,-3.6084,-3.6704,-3.7385,-3.8845,-4.0111,-4.0989,-4.1074,-4.1108,-4.1108,-4.1108,-4.1108,-4.1108,-4.1108,-4.1108,-4.1108,-4.1108,-4.1108,-4.1108,-4.1108,-4.1108]}]]